GFSMA_500_spd_000.txt.gz
Wind_Speed
27 28 31 33 34 34 31 26 23 25 26 27 28 31 34 35 36 36 36 36 36 36 37 38 38 39 41 41 41 42 41 41 41 42 43 43 44 43 43 44 45 45 45
29 32 32 34 33 33 28 26 26 28 30 31 34 36 37 39 40 40 38 37 37 38 39 40 41 42 43 43 44 45 45 45 45 44 44 44 45 46 47 47 48 48 49
29 30 30 32 33 31 28 27 28 30 34 36 39 41 43 43 43 41 39 39 39 40 41 42 43 44 44 45 46 47 48 49 50 50 51 52 53 55 55 56 56 57 56
26 27 31 32 33 32 31 29 31 34 37 40 43 45 45 45 43 40 38 38 40 41 42 44 45 46 46 48 49 50 52 54 56 58 59 60 61 63 63 63 63 63 63
24 27 31 32 32 29 29 31 33 37 40 41 43 43 41 37 36 37 38 40 41 42 44 46 48 50 52 54 55 57 57 59 61 62 63 64 65 66 66 67 67 68 68
26 29 32 30 27 28 32 34 37 37 38 41 40 36 34 36 38 40 41 42 44 46 49 51 52 54 56 58 59 61 62 63 64 65 65 66 67 67 67 68 69 70 70
28 29 29 27 28 32 35 37 37 39 40 39 35 37 38 40 41 42 44 46 50 52 54 56 58 59 61 63 64 65 65 64 66 66 66 67 68 68 67 68 69 70 70
30 31 31 32 33 36 39 38 39 41 42 38 37 37 39 42 45 47 49 51 54 56 58 61 62 64 65 65 65 65 65 65 66 67 68 70 71 72 74 74 75 75 74
32 34 35 37 37 40 41 40 42 43 42 41 41 41 43 43 45 46 50 55 57 61 62 62 63 63 62 62 63 65 67 70 72 74 76 78 80 81 82 82 83 83 83
36 38 40 41 42 43 42 42 43 42 41 42 45 48 50 53 54 54 53 56 58 59 60 60 59 60 63 66 69 72 74 77 80 82 84 86 88 90 91 91 91 91 91
40 42 43 44 45 43 43 44 43 41 43 45 48 51 54 58 62 63 61 57 60 61 60 60 62 64 66 70 73 76 79 81 85 89 93 96 99 100 101 102 101 101 100
43 44 45 46 45 43 44 43 43 44 47 50 54 57 60 63 65 65 63 64 65 64 64 64 65 68 72 75 79 83 87 91 96 99 102 105 107 110 112 113 113 114 115
45 46 46 45 43 44 43 43 45 48 51 55 57 61 65 69 67 71 71 70 68 68 71 73 75 76 79 83 88 93 98 102 106 109 113 117 120 121 123 123 125 126 127
45 45 44 43 43 43 44 46 48 52 56 58 61 66 69 71 75 76 74 73 73 73 74 76 78 83 89 95 101 106 111 116 121 124 127 129 129 129 128 126 123 118 113
43 43 43 43 42 43 46 48 52 55 58 61 66 68 72 76 76 74 74 77 80 80 76 80 86 92 99 105 111 118 122 127 131 130 124 116 108 99 92 88 85 83 82
41 42 43 42 43 46 49 52 55 57 61 66 67 72 77 77 75 75 78 81 83 86 87 89 97 106 111 117 123 128 129 125 118 110 106 102 95 89 84 76 72 69 67
41 42 42 44 47 50 53 55 57 62 65 66 72 76 78 76 76 79 80 83 89 95 101 97 106 109 117 123 123 116 108 104 101 95 89 85 82 79 74 71 67 63 63
41 42 44 47 50 54 56 59 64 63 66 71 75 78 75 77 79 79 84 90 98 103 109 111 111 117 117 105 96 94 86 84 83 78 73 70 68 64 62 61 61 61 61
41 44 47 51 54 57 60 59 59 66 71 76 76 74 77 77 80 85 91 98 105 109 114 118 117 105 93 89 77 65 62 56 51 48 48 47 47 45 45 47 49 53 57
44 48 51 54 56 55 56 61 66 71 76 73 73 76 76 81 87 93 98 106 111 114 115 108 96 88 77 57 50 47 41 38 34 34 33 33 33 34 34 37 39 40 43
47 52 54 52 54 57 62 66 71 74 70 72 74 77 82 88 94 98 106 111 113 109 97 88 81 66 51 43 43 41 34 28 31 34 27 29 31 31 33 34 35 36 40
50 50 52 55 58 62 66 70 72 69 72 73 77 84 90 95 100 105 111 111 103 90 82 72 60 49 37 42 33 32 31 28 24 32 27 29 31 30 33 34 34 33 38
50 54 56 58 62 65 70 67 69 71 72 78 84 90 95 101 106 110 108 97 82 75 66 57 43 41 39 33 35 26 25 25 27 28 23 24 30 29 33 35 33 30 34
53 55 58 60 65 68 65 67 69 73 79 85 90 96 101 105 110 104 93 79 69 57 49 42 45 39 30 33 31 29 23 20 25 31 29 26 34 28 29 33 29 24 25
54 56 60 64 63 64 66 68 73 79 84 89 96 102 105 110 102 89 76 66 52 44 37 42 38 32 33 34 32 27 21 19 22 31 34 31 31 27 28 29 22 19 15
54 59 62 60 62 64 68 73 79 84 90 95 100 104 108 99 82 72 63 50 39 31 38 33 31 33 34 33 32 32 30 27 27 29 32 29 27 28 23 25 23 16 13

GFSMA_500_spd_003.txt.gz
Wind_Speed
28 26 25 25 27 30 32 33 32 26 23 24 24 26 28 30 33 36 37 38 39 38 38 36 36 37 37 38 38 38 39 40 40 40 39 39 40 40 40 40 39 39 39
27 26 26 28 31 32 33 33 31 26 26 28 28 32 33 36 39 42 43 43 41 39 38 38 38 38 39 40 41 42 43 43 44 45 44 43 44 45 45 44 44 44 44
25 25 26 29 30 32 33 32 30 29 28 31 32 35 39 39 40 41 42 39 36 35 35 37 39 40 41 42 43 44 45 45 47 48 48 48 50 51 52 53 53 53 53
23 25 25 27 29 32 32 31 30 28 30 33 36 38 38 40 40 35 32 32 34 35 37 39 40 41 42 43 45 47 48 49 51 53 54 54 54 57 58 58 59 60 60
24 25 25 27 29 32 32 29 28 29 32 35 37 37 40 39 36 32 34 36 38 39 40 42 44 46 48 49 50 52 53 53 54 56 57 58 60 61 62 62 63 63 63
24 25 25 28 29 32 30 29 29 31 35 38 37 39 40 38 36 36 37 40 42 44 47 49 51 52 54 54 55 56 57 59 60 61 62 62 63 64 64 65 65 66 66
26 25 26 27 29 31 31 32 34 35 37 36 39 40 39 38 37 39 41 44 47 49 51 53 55 57 57 59 60 59 60 62 64 65 65 66 66 67 66 65 65 66 67
28 27 28 29 32 33 35 37 39 40 39 39 39 38 38 39 40 42 45 48 51 53 57 59 60 60 60 60 61 63 64 65 65 67 69 70 71 72 73 72 72 72 72
31 32 32 33 35 37 39 41 43 44 43 42 42 42 40 39 40 43 47 51 54 57 61 63 62 63 64 65 65 66 67 68 70 72 74 76 77 78 79 80 80 81 80
36 37 38 38 40 41 43 45 47 46 45 45 45 44 44 45 46 46 47 50 54 59 60 62 64 64 64 65 66 69 72 74 76 78 80 82 84 85 86 86 87 88 88
38 40 39 41 43 44 47 49 49 48 47 46 45 46 48 50 53 55 55 55 58 60 64 65 65 63 63 64 67 71 74 77 81 84 87 88 90 92 94 95 96 98 100
39 40 40 42 44 47 50 51 49 49 47 46 47 49 51 54 56 60 62 63 63 63 65 66 65 65 67 70 73 76 79 81 83 87 90 94 98 101 105 107 109 111 113
40 41 42 43 46 49 51 50 49 48 48 48 50 53 55 58 61 65 67 67 68 70 72 72 73 76 76 74 77 81 86 90 95 99 103 107 110 113 116 118 120 123 125
40 41 42 45 47 49 49 48 49 49 49 52 54 57 60 63 67 69 70 73 73 72 73 77 77 75 77 81 87 92 96 101 105 108 114 118 122 124 127 129 130 132 132
41 41 42 44 46 47 47 49 49 50 52 55 58 61 64 66 66 72 75 77 76 76 74 74 78 83 88 92 98 102 108 113 117 121 123 123 121 117 113 109 107 106 106
39 39 41 43 45 47 48 49 50 53 56 58 61 63 63 67 72 76 76 76 79 77 73 78 81 91 97 104 109 114 118 119 116 111 108 105 99 92 85 85 86 87 88
38 39 41 44 46 47 48 50 53 56 59 61 60 64 69 72 76 74 77 79 79 83 84 81 91 97 104 110 114 117 110 101 93 87 77 71 70 69 65 60 58 61 67
39 40 43 44 46 48 50 54 56 58 57 61 64 68 73 73 74 78 79 82 86 90 95 95 99 105 112 112 104 90 84 74 68 65 65 64 59 49 43 41 39 41 44
40 42 42 44 47 50 53 54 55 58 61 65 69 72 71 74 77 79 83 88 93 98 104 108 108 113 104 89 76 66 55 51 56 55 52 48 42 37 34 33 31 30 31
40 41 43 46 49 52 53 56 58 62 65 68 70 71 74 76 80 84 89 95 101 105 110 115 112 95 78 65 52 42 46 44 46 47 42 39 38 35 35 32 29 27 26
40 43 46 49 51 53 56 59 62 64 68 68 71 73 76 81 86 91 96 101 108 111 114 106 88 73 60 43 40 43 37 36 36 38 33 36 36 36 39 38 37 32 28
42 45 48 51 53 57 59 61 64 67 67 70 72 77 82 87 91 96 103 109 112 108 94 77 67 55 40 40 35 31 34 33 30 36 28 29 42 37 42 40 37 31 27
44 47 49 53 56 58 60 64 64 66 68 72 76 82 86 92 98 103 108 109 94 79 72 65 49 38 38 33 27 30 29 27 31 35 31 26 37 34 36 34 34 25 21
46 49 52 54 56 60 63 63 65 67 71 77 82 87 93 98 104 108 104 85 71 66 57 48 35 39 32 28 29 28 26 23 25 33 32 28 32 31 32 32 33 26 21
48 50 52 56 60 61 62 63 66 71 76 81 87 93 98 103 106 99 81 68 60 49 40 33 39 32 29 31 31 28 26 24 21 28 30 31 32 28 27 27 29 25 22
47 51 56 59 59 61 62 66 70 75 80 86 92 98 102 103 91 75 66 57 43 34 34 37 30 29 31 32 32 32 28 26 24 23 29 28 29 17 25 21 20 21 21

GFSMA_500_spd_006.txt.gz
Wind_Speed
30 29 32 32 30 30 28 28 31 32 32 31 27 26 27 28 29 31 34 37 39 41 41 40 40 40 39 38 36 36 37 39 39 39 40 40 41 41 41 42 42 42 42
29 30 32 32 32 31 29 31 33 33 33 33 30 30 30 31 32 36 36 38 41 40 39 36 33 33 34 36 37 38 39 41 42 43 43 43 45 45 45 46 46 46 46
31 31 32 31 32 31 31 32 32 34 34 34 32 31 31 34 36 34 38 40 39 37 34 33 35 36 37 39 40 42 43 43 46 47 48 47 48 48 50 51 51 51 51
33 31 32 32 32 32 31 31 33 34 36 33 31 32 34 35 35 37 40 40 37 36 36 37 39 40 41 43 45 46 48 49 50 52 54 54 54 54 56 56 56 57 57
34 33 33 33 33 32 31 31 32 35 34 32 33 34 37 38 38 39 40 40 38 39 40 42 43 45 48 50 51 53 55 55 56 57 58 59 58 59 60 61 61 61 61
35 35 34 33 32 30 30 31 31 32 32 35 37 39 40 40 41 42 42 42 41 42 44 47 49 51 52 53 55 56 57 58 59 60 60 61 60 61 63 63 64 64 65
35 37 34 31 30 31 31 31 33 35 36 38 41 42 44 43 43 44 44 44 46 47 49 51 53 54 55 57 59 60 60 60 60 61 62 64 65 66 67 68 68 68 68
36 37 34 33 33 33 34 35 36 38 40 42 43 47 48 47 46 46 46 48 49 51 53 55 57 59 60 62 63 62 62 63 64 66 68 70 71 71 72 72 73 74 75
35 38 37 36 37 38 39 39 41 42 43 45 47 48 48 48 47 48 48 50 53 55 58 60 62 64 66 68 67 67 68 68 70 72 73 74 75 76 78 79 80 81 82
35 39 40 40 41 42 44 44 44 45 47 49 50 52 52 50 49 48 47 51 54 57 60 62 64 68 70 71 72 74 74 74 74 74 75 76 79 81 84 86 87 89 90
37 38 41 43 44 45 46 47 47 47 50 51 54 53 51 51 52 51 51 54 57 59 60 63 68 69 71 74 75 74 73 73 76 78 80 81 83 85 87 89 91 93 94
39 40 42 42 44 46 47 48 48 50 52 54 53 53 52 52 53 55 58 59 59 59 64 66 68 72 74 73 72 74 75 75 75 76 78 82 86 89 92 96 98 101 104
43 43 44 44 46 48 48 49 49 52 53 52 53 52 52 54 56 59 61 63 65 66 68 72 73 72 73 75 76 76 76 79 82 84 87 92 95 98 103 107 110 112 114
43 42 43 43 46 48 49 49 51 52 52 52 52 53 55 58 60 62 64 66 67 71 75 77 76 79 81 81 81 84 86 88 92 96 101 106 110 114 117 119 120 120 120
41 41 41 42 44 47 48 50 51 51 52 52 53 56 60 62 62 62 64 70 75 75 74 77 79 81 83 86 88 91 97 101 105 110 114 118 120 120 113 102 97 94 90
40 40 40 41 43 44 48 49 50 51 52 54 57 61 61 60 62 67 72 74 75 76 77 78 81 85 88 93 96 103 109 113 116 118 116 109 99 89 76 66 65 65 63
39 40 40 42 43 46 47 49 51 52 55 57 59 59 61 64 69 71 73 75 77 78 78 77 85 90 95 104 108 114 120 117 107 95 83 76 64 57 55 53 47 45 47
39 41 42 43 45 46 48 50 52 55 57 58 60 63 66 68 71 73 75 77 79 82 85 86 90 97 105 111 115 115 104 88 77 65 54 52 51 53 43 41 40 37 37
40 41 41 44 45 47 49 52 54 57 58 61 64 66 68 71 73 75 76 80 83 87 93 96 98 105 110 112 102 81 72 62 52 48 51 47 46 41 40 39 37 37 39
38 39 43 45 46 48 51 54 56 58 62 64 66 69 71 73 74 77 81 85 90 95 100 106 109 110 102 83 70 60 47 41 46 42 45 45 43 37 39 41 41 37 35
36 42 43 44 47 50 52 56 59 61 63 67 70 71 72 74 77 82 86 92 98 103 107 111 106 92 72 60 49 37 39 39 34 43 41 37 38 39 43 44 43 42 39
40 40 43 46 49 52 55 58 60 63 67 69 70 70 74 77 81 87 93 99 104 109 106 97 80 66 54 39 35 38 31 31 30 40 39 31 38 38 42 42 42 40 38
39 42 45 48 51 54 57 59 63 66 67 68 70 73 78 82 88 93 98 104 106 94 83 70 61 49 35 37 35 26 29 31 32 36 33 28 38 37 37 37 35 32 34
41 43 46 50 53 55 59 62 64 66 66 69 74 78 83 88 94 99 104 103 86 72 66 58 45 37 40 39 31 28 28 27 28 34 33 28 32 35 33 29 28 29 28
41 45 48 51 53 57 60 63 63 65 69 73 78 83 89 94 99 104 101 82 67 62 52 42 38 41 39 33 32 30 30 29 28 30 33 31 31 33 31 25 23 21 20
44 46 49 52 55 58 61 61 64 68 72 76 82 88 93 99 104 96 78 67 55 44 38 40 39 37 38 37 36 37 37 33 31 26 32 29 31 27 27 23 21 20 23

GFSMA_500_spd_009.txt.gz
Wind_Speed
26 26 30 33 35 37 38 37 36 34 31 35 34 35 32 31 31 30 29 30 33 35 35 39 38 38 38 34 32 31 32 36 36 36 36 38 39 40 41 42 42 42 43
27 27 29 32 35 36 37 38 38 35 33 36 35 36 35 34 34 33 32 34 34 35 39 39 37 37 35 34 33 35 36 36 37 39 40 41 42 43 44 45 46 46 46
32 30 31 34 36 37 37 37 36 36 36 36 36 37 37 35 33 33 35 35 36 38 39 40 38 36 37 37 38 39 41 42 43 45 46 47 47 48 48 50 51 50 51
34 34 34 36 36 37 37 37 38 37 36 36 36 37 38 33 35 35 37 39 39 40 42 42 40 39 40 41 42 44 46 48 49 51 53 55 56 56 55 56 57 56 55
36 36 37 36 37 37 37 38 38 36 36 35 34 34 34 35 37 38 39 41 43 43 44 43 44 43 44 46 48 50 52 53 54 55 56 57 59 60 59 60 61 62 61
36 39 39 37 38 38 38 39 37 35 34 33 33 35 36 38 40 41 42 44 45 47 47 47 46 47 48 51 53 55 56 57 58 60 60 61 60 61 60 60 62 62 63
38 40 40 38 39 39 39 37 36 36 36 36 36 38 40 43 43 45 46 48 49 49 50 50 50 50 52 55 57 58 59 61 62 63 63 63 62 62 62 62 64 65 67
38 39 39 39 40 40 40 39 40 39 40 41 41 42 43 46 49 50 51 53 53 52 52 53 53 54 57 59 61 62 63 65 66 67 67 66 66 67 68 69 71 72 73
39 38 38 39 40 40 43 43 44 45 45 47 46 46 47 48 50 52 53 54 55 54 54 55 57 60 62 63 65 67 68 69 72 72 72 73 73 74 75 75 76 76 77
39 38 39 40 41 41 44 46 47 48 49 49 48 49 49 50 52 52 53 54 54 54 56 58 61 64 66 68 70 72 73 74 75 76 76 76 76 76 78 80 81 83 84
39 40 39 41 43 44 44 47 49 49 49 49 50 50 50 52 54 54 53 52 54 56 58 60 61 63 67 69 71 72 74 77 78 77 77 78 80 81 81 82 83 85 86
38 39 42 43 44 45 46 48 49 50 50 50 51 51 52 53 55 56 56 55 56 58 63 66 66 66 66 69 74 77 77 77 78 79 79 80 81 83 85 87 90 93 94
38 39 42 44 47 48 49 49 49 48 48 49 50 51 51 53 55 57 58 60 63 64 65 65 66 69 73 75 74 76 77 77 78 80 83 85 85 88 92 96 99 101 102
38 40 42 44 46 46 47 47 46 46 47 48 49 50 52 54 56 58 62 67 68 67 67 69 72 73 75 77 78 79 79 81 83 86 88 93 98 102 106 109 112 115 117
40 41 43 44 44 45 45 44 45 45 47 49 49 51 53 55 58 63 66 68 69 71 70 71 74 77 81 83 83 84 85 89 94 98 102 107 111 115 116 113 108 99 92
41 42 42 42 42 42 43 44 46 48 49 50 51 53 56 59 63 65 67 69 70 72 73 76 79 81 83 85 87 92 96 100 105 111 116 118 114 107 93 79 69 60 55
41 42 42 41 41 43 44 45 47 48 50 51 53 56 59 63 65 67 67 70 73 77 80 77 80 83 87 92 95 101 108 113 116 114 105 91 81 71 59 46 45 43 42
40 41 41 42 44 45 46 46 48 49 50 53 56 60 62 64 65 67 71 74 77 78 80 82 82 87 94 100 105 111 116 109 97 85 73 65 53 42 41 40 42 39 36
39 41 43 44 44 44 44 49 48 50 53 55 59 62 63 65 68 71 74 75 77 81 83 85 90 97 102 108 112 105 91 77 70 61 47 42 44 37 41 39 37 34 36
40 42 43 43 43 43 49 48 50 53 55 58 61 62 65 68 71 72 75 79 81 83 89 94 98 103 109 104 88 76 68 60 44 44 46 41 35 40 40 35 34 35 38
40 42 43 44 43 47 48 50 52 54 57 59 62 65 68 70 71 75 78 81 85 90 95 102 107 105 91 76 69 61 49 39 45 41 36 35 39 39 39 36 34 37 39
42 43 43 42 45 47 51 52 55 57 59 61 64 66 68 72 76 78 82 88 92 98 104 107 98 85 72 62 50 41 41 43 33 36 37 32 39 37 38 34 35 38 38
42 40 40 44 47 49 52 54 55 58 60 63 64 67 72 76 79 83 87 91 99 104 99 91 80 66 51 42 39 41 39 34 35 38 39 31 38 36 37 33 34 34 31
37 38 43 46 48 50 53 54 57 59 61 62 66 71 75 79 82 86 93 100 101 91 81 70 54 44 42 43 42 38 35 32 34 38 42 33 38 34 36 32 31 30 28
37 42 44 46 48 51 53 55 57 59 61 65 70 74 78 81 87 94 100 99 86 70 55 47 45 46 44 44 43 41 38 37 35 34 42 36 38 34 34 31 29 28 25
41 43 44 46 49 52 54 56 57 59 64 68 73 78 80 88 94 99 95 80 62 49 48 49 46 44 43 43 44 44 43 41 41 34 40 35 35 37 24 34 30 27 23

GFSMA_500_spd_012.txt.gz
Wind_Speed
28 27 27 27 26 28 29 31 34 36 38 38 37 37 35 37 35 33 32 32 33 31 31 32 32 35 36 35 34 32 31 31 31 32 32 33 34 35 37 38 39 40 41
32 28 28 29 30 30 31 32 34 35 36 36 37 37 37 40 36 34 35 34 34 33 33 33 34 36 36 36 37 35 34 34 34 36 38 40 41 41 40 41 42 43 44
32 29 29 31 32 32 34 34 34 35 36 35 36 37 38 35 35 35 35 33 33 33 33 33 35 37 39 39 39 38 38 38 38 40 41 44 46 48 49 49 50 49 49
33 32 31 32 34 34 35 36 37 36 37 36 36 36 35 35 33 33 32 32 33 35 34 35 37 40 42 42 43 42 42 42 43 45 47 49 51 52 53 53 54 55 56
34 34 34 35 35 36 37 37 38 37 36 36 36 35 33 31 32 32 33 34 36 37 37 40 42 42 44 46 47 46 45 46 48 51 53 54 55 56 56 57 56 58 60
36 36 34 35 36 37 39 37 39 38 37 36 36 35 34 33 33 35 37 39 40 42 43 44 45 46 46 49 50 49 49 50 52 55 57 57 58 60 62 62 60 58 59
38 37 35 38 40 40 40 39 40 39 38 37 37 37 38 41 43 43 42 41 42 44 48 49 49 49 50 52 51 51 52 55 58 60 61 61 62 63 63 64 64 63 62
39 39 38 40 41 41 40 40 40 39 40 41 43 45 46 45 47 46 45 46 46 45 48 50 51 54 55 54 53 54 56 59 61 64 65 65 65 66 67 67 67 67 67
38 39 39 40 42 41 40 41 40 39 41 44 46 48 48 50 50 48 49 49 48 49 51 52 55 57 56 56 57 60 63 64 66 67 68 68 69 69 71 72 73 73 74
37 39 39 40 40 41 41 42 42 42 43 44 47 50 51 51 51 50 50 49 49 51 53 55 56 57 58 60 63 67 69 69 69 69 70 72 75 77 77 77 77 78 78
38 37 39 39 41 40 41 42 42 44 46 48 49 51 52 52 51 50 48 49 50 53 55 56 55 56 60 64 66 68 69 70 72 74 76 78 78 79 80 81 82 82 82
39 37 39 39 39 40 40 41 43 45 48 50 51 51 50 49 49 49 48 49 51 51 54 56 60 63 65 65 67 69 71 73 75 76 78 80 83 84 83 84 84 85 87
41 39 39 40 40 41 42 42 43 45 47 48 48 48 47 47 49 51 53 54 53 52 55 59 63 66 67 69 69 70 72 74 77 78 81 82 84 86 87 89 90 92 95
41 40 41 40 40 41 42 44 45 46 46 45 46 47 48 49 51 53 55 56 56 59 60 61 63 65 67 70 72 74 75 76 78 80 82 85 88 91 95 97 101 104 108
41 42 40 40 40 41 42 44 45 44 45 46 47 49 49 51 52 53 55 59 63 64 62 61 64 67 70 72 75 76 78 80 83 87 92 96 99 102 105 108 111 112 112
42 41 39 39 40 41 43 44 44 46 47 49 49 50 52 52 54 56 59 61 63 65 66 67 70 72 73 75 76 79 83 87 92 97 102 105 108 109 107 101 92 80 72
41 39 37 39 41 42 43 43 44 47 49 50 51 52 52 55 57 59 62 62 64 67 69 68 71 73 75 78 82 87 92 97 102 107 109 106 101 90 77 67 56 48 44
39 37 37 39 41 41 42 43 46 48 48 51 51 53 55 57 60 62 62 64 66 67 71 71 72 75 81 86 91 96 101 106 107 102 92 82 73 62 47 40 41 36 36
36 37 38 38 39 40 42 44 48 49 51 51 53 55 58 60 61 63 64 65 67 71 73 76 78 84 89 96 101 105 105 97 87 78 70 61 44 45 44 40 34 35 34
36 36 36 37 38 42 44 47 48 50 51 54 56 58 60 61 62 62 64 68 71 74 78 82 87 92 99 103 106 97 81 71 59 52 46 45 46 43 38 36 37 34 32
34 36 37 36 39 45 46 46 48 51 54 55 58 59 61 61 62 65 69 71 76 79 83 90 95 100 103 97 81 66 54 44 44 48 46 45 42 39 40 40 36 34 34
34 35 44 41 43 40 43 47 52 54 55 57 58 59 59 61 66 69 73 78 81 87 92 98 103 103 87 69 53 47 46 45 43 47 45 38 39 38 42 40 39 34 35
38 37 39 39 39 40 46 51 53 54 55 57 57 58 60 65 68 72 75 81 89 95 100 102 97 77 58 53 53 52 51 48 44 44 44 37 40 39 43 42 41 34 35
38 35 35 36 40 46 50 51 52 54 55 56 57 60 63 66 69 75 82 89 93 98 97 84 68 56 54 56 54 51 50 47 45 45 45 38 37 38 38 40 42 34 36
33 34 38 41 45 47 49 50 52 53 54 56 60 63 67 70 73 82 90 93 95 90 72 59 55 55 53 52 52 50 48 48 45 45 49 44 39 36 38 37 43 36 35
35 37 40 43 46 47 48 49 51 52 54 58 61 67 72 76 78 91 95 93 82 62 51 52 51 50 48 47 48 48 47 46 47 43 48 46 41 41 33 33 42 38 32

GFSMA_500_spd_015.txt.gz
Wind_Speed
26 24 25 23 26 27 26 26 25 26 29 31 32 34 35 36 36 37 36 39 34 32 32 33 35 33 32 30 29 30 30 32 34 35 33 32 30 31 32 33 34 34 36
30 28 26 25 26 28 29 29 30 31 32 33 32 33 32 34 34 35 38 37 35 33 33 33 32 33 31 31 31 33 33 34 35 37 37 37 37 37 37 39 40 41 40
31 30 28 27 27 29 30 30 31 33 34 33 33 32 32 31 32 32 33 34 33 31 31 32 31 31 31 32 33 34 35 36 38 39 39 41 42 42 43 44 45 46 46
34 31 30 30 30 30 31 31 33 34 34 35 35 33 32 32 31 32 32 31 31 31 31 31 32 33 34 37 38 39 39 40 40 43 43 43 44 46 48 49 50 50 51
35 34 34 33 34 32 32 32 34 35 36 36 36 35 33 32 32 32 32 32 34 34 36 38 37 39 41 42 43 42 43 43 45 47 47 46 48 50 53 55 55 55 54
32 33 34 35 36 35 33 35 37 36 37 36 36 36 36 34 34 34 36 39 42 43 42 42 43 43 43 45 45 45 46 48 49 50 50 50 51 55 57 58 59 59 59
32 33 33 33 35 37 36 38 39 39 38 37 37 36 37 39 40 43 45 46 44 45 47 46 47 47 46 45 47 48 50 52 52 53 53 54 56 57 59 62 63 63 62
33 35 35 34 36 38 39 39 40 39 38 38 39 38 38 41 43 46 46 48 49 47 47 47 47 48 48 48 49 51 54 53 53 55 56 58 60 63 64 64 64 65 65
31 31 33 34 34 37 40 39 38 39 40 39 40 41 41 42 43 46 48 50 50 50 49 47 49 49 49 51 53 55 55 55 57 60 62 63 63 63 64 65 66 67 68
33 34 32 32 33 35 37 38 38 39 39 40 41 41 43 44 46 47 50 51 50 49 49 49 49 50 53 56 56 56 58 61 63 64 64 65 67 69 70 71 72 73 74
36 37 35 32 32 34 36 37 38 40 40 40 40 41 43 45 46 46 47 47 47 48 48 50 52 54 56 55 57 60 64 66 67 67 67 69 71 72 74 75 77 79 79
39 39 37 34 35 35 35 37 38 40 40 40 41 43 44 46 46 45 45 44 45 46 50 53 55 56 56 59 62 64 64 64 66 67 68 71 74 76 77 79 80 81 82
40 39 37 39 37 37 37 36 38 40 41 42 43 44 45 46 47 48 49 50 48 47 49 51 55 58 62 63 64 66 66 68 69 71 72 74 76 76 78 80 82 85 88
42 40 40 40 40 39 37 35 38 40 42 43 44 45 46 48 49 51 52 53 52 51 51 54 57 60 63 64 66 68 69 69 70 71 73 75 78 82 84 87 90 94 97
44 43 41 41 43 40 36 37 39 42 43 44 44 46 49 51 52 53 54 54 55 55 56 57 59 60 62 64 67 69 70 71 73 77 81 85 87 91 94 97 101 105 108
44 42 42 41 41 38 38 38 40 42 42 43 46 49 51 52 53 55 53 55 58 61 63 62 63 64 65 65 67 68 73 77 81 86 90 94 97 100 104 107 107 104 99
43 41 41 41 39 39 38 39 41 42 42 46 47 50 53 53 53 54 56 58 61 62 63 64 66 67 67 70 73 76 81 85 90 97 101 104 106 105 96 91 81 70 63
39 39 40 38 38 37 37 39 40 42 44 48 50 53 53 53 55 56 59 60 61 62 64 64 65 68 72 76 81 85 92 97 103 107 106 98 84 74 68 55 45 42 46
38 37 39 38 37 37 38 40 40 42 47 51 52 51 53 56 57 59 60 61 62 62 64 65 68 73 79 86 89 95 101 104 102 91 75 64 55 47 47 48 50 49 43
35 36 36 37 35 37 39 39 43 48 52 50 52 54 57 58 59 60 61 60 62 64 67 70 75 79 85 92 99 103 101 89 68 62 56 57 55 55 51 49 46 41 36
33 31 35 34 36 37 39 45 49 50 48 51 54 58 57 58 60 61 60 63 65 69 73 76 82 89 96 101 103 93 74 59 54 59 58 57 56 52 50 47 43 39 37
31 28 32 35 36 39 42 45 44 47 51 54 56 56 57 59 60 60 64 66 71 75 79 83 89 95 99 99 82 65 58 58 53 56 54 51 53 47 48 46 45 43 43
25 25 33 36 40 41 41 41 46 49 54 55 55 57 58 58 60 62 65 69 74 79 84 90 95 101 90 70 61 57 53 50 48 50 51 46 50 47 47 44 46 46 47
33 31 36 38 40 37 41 44 48 52 52 54 57 57 57 60 62 64 67 71 76 82 91 96 94 79 61 56 52 47 47 46 48 49 54 46 46 44 44 43 46 46 48
35 36 42 37 37 40 44 48 50 51 54 55 56 56 59 61 64 68 71 74 81 90 95 86 68 55 50 48 49 50 51 50 46 44 51 47 44 41 39 39 41 45 48
35 36 35 37 41 44 47 48 51 53 55 54 56 59 61 64 67 71 75 81 87 92 79 56 51 46 48 50 52 54 53 51 47 40 46 42 38 40 31 32 35 40 45

GFSMA_500_spd_018.txt.gz
Wind_Speed
28 26 25 24 25 25 26 26 26 26 26 26 29 31 32 33 33 34 35 36 38 38 38 39 36 35 33 35 35 34 32 32 30 30 30 30 32 32 33 33 31 31 31
30 31 28 27 27 27 26 26 26 26 28 29 31 33 33 32 32 32 31 31 33 35 36 35 36 35 34 33 33 33 32 33 33 34 33 33 34 35 36 37 37 36 37
31 32 30 28 27 27 27 28 29 28 29 30 32 33 33 33 33 32 30 30 30 31 33 34 33 33 33 34 34 34 34 36 36 37 38 38 38 38 40 41 41 41 41
30 32 30 30 30 30 30 31 29 29 29 31 33 34 35 35 33 33 31 30 30 31 32 32 32 33 34 36 37 40 40 41 42 42 42 42 42 43 43 44 44 45 46
31 32 31 33 34 34 34 33 32 32 31 33 36 36 36 36 35 34 34 32 33 34 35 37 39 40 41 42 42 43 45 47 47 46 46 45 46 47 47 48 49 49 51
33 31 33 32 33 34 35 35 34 33 34 37 38 38 38 36 36 36 36 37 37 38 42 45 47 46 46 46 46 49 49 49 47 48 48 48 49 50 51 52 53 55 56
32 33 34 35 36 37 36 35 36 35 36 37 39 38 37 37 38 37 36 39 42 45 46 48 47 49 49 48 48 49 49 49 50 50 51 53 54 53 53 55 56 58 60
31 32 31 30 31 32 34 35 35 36 36 37 37 37 38 38 38 39 40 41 42 44 46 48 49 51 52 52 51 51 51 52 52 52 55 57 57 56 58 59 61 63 65
36 32 32 31 29 29 32 34 35 35 36 36 36 37 38 38 39 40 42 44 45 47 48 50 50 50 50 51 51 50 50 52 55 58 59 59 60 61 64 66 66 66 65
38 37 36 34 33 32 30 32 34 34 35 36 36 37 38 39 40 41 42 44 45 46 47 48 48 48 48 49 51 52 54 56 58 59 60 62 65 68 68 67 67 67 68
42 40 38 38 37 35 35 32 33 35 36 36 37 37 38 40 42 43 44 44 45 46 48 49 51 51 52 54 55 56 57 57 59 62 64 66 67 68 69 69 71 72 73
45 44 41 39 39 39 38 36 34 35 36 36 37 38 39 41 43 43 43 43 44 47 50 53 54 54 55 55 55 56 58 60 62 63 64 66 68 70 72 74 75 76 77
48 46 45 44 41 40 40 39 38 37 36 38 38 40 42 44 45 46 46 47 47 47 49 51 53 55 55 56 59 61 63 63 64 66 67 69 71 72 73 74 75 76 79
50 49 46 47 42 41 41 41 41 41 39 40 41 43 44 45 46 47 48 50 50 52 53 52 52 54 57 60 62 63 64 66 67 69 70 71 72 74 76 78 80 83 87
50 47 43 46 43 41 42 43 44 43 38 43 43 45 45 46 48 50 52 53 55 55 54 53 55 56 58 60 62 63 65 66 67 69 72 75 79 82 84 87 91 94 97
49 47 44 44 44 43 42 42 42 38 48 45 45 46 47 48 50 53 54 56 56 56 57 59 60 60 60 61 63 65 67 69 72 76 80 83 86 89 91 94 97 100 103
48 47 43 43 43 42 42 43 41 41 45 45 45 47 49 50 52 56 56 56 58 59 61 62 62 64 64 65 65 67 71 75 78 84 89 93 96 97 101 103 100 94 86
47 43 42 42 42 38 44 37 37 45 44 44 46 48 49 57 59 58 56 59 62 62 63 63 64 64 65 66 69 72 76 80 86 93 98 102 105 103 96 85 74 63 55
44 41 40 40 39 40 39 42 43 43 42 44 47 50 56 60 60 58 60 63 63 63 64 64 64 66 67 71 73 76 82 89 96 101 106 103 89 74 68 65 61 59 59
41 40 38 39 38 42 39 40 39 42 44 47 50 57 59 59 58 60 63 63 63 64 64 65 67 68 71 75 78 84 90 98 103 99 85 74 70 68 68 65 63 61 59
40 41 38 39 34 40 45 36 39 42 47 50 57 54 55 59 61 62 62 63 63 63 66 68 70 72 76 81 87 92 97 99 83 71 67 61 60 58 58 57 57 57 57
39 38 38 32 39 44 37 42 43 48 53 56 51 55 58 61 61 61 63 63 64 68 70 72 73 77 82 87 91 97 92 74 56 58 58 56 61 59 57 55 54 55 56
34 32 46 35 35 35 43 44 49 50 50 50 53 57 58 59 61 62 62 64 67 70 73 75 77 83 86 91 94 79 59 54 54 56 59 56 59 53 53 51 51 54 54
30 29 44 34 41 39 46 50 45 47 50 53 55 56 58 60 62 62 64 67 68 72 73 78 84 88 91 89 71 53 54 56 55 58 63 59 56 51 48 45 49 51 51
44 44 40 42 42 45 47 46 49 51 52 54 56 58 60 61 62 65 67 69 72 75 79 83 87 89 83 62 50 54 58 56 57 58 63 62 53 47 44 40 46 49 50
31 37 41 46 44 45 46 48 50 53 54 56 59 61 62 62 65 67 70 72 75 78 82 86 86 74 55 48 52 55 57 60 62 60 59 59 48 48 39 37 41 43 47

GFSMA_500_spd_021.txt.gz
Wind_Speed
27 26 26 25 23 25 26 26 27 26 26 26 26 27 29 31 33 34 35 34 35 34 34 33 34 35 36 34 35 36 35 35 36 34 34 33 31 30 30 29 29 31 32
29 28 29 29 27 26 26 27 27 27 27 26 26 28 29 32 34 35 35 33 33 33 32 30 30 30 31 32 34 34 34 34 34 33 34 34 34 34 35 34 33 34 36
30 30 30 30 30 28 28 27 28 28 29 29 28 28 29 31 33 35 36 35 34 33 32 30 30 31 31 31 31 32 34 36 35 35 36 38 39 39 39 39 39 38 38
29 30 30 31 31 30 31 31 31 31 32 31 31 32 32 34 35 35 35 35 34 34 34 32 32 32 32 32 33 35 36 38 40 41 44 45 48 48 46 44 43 43 43
32 31 31 31 31 32 32 33 34 35 34 35 35 34 36 37 38 38 36 35 35 34 36 36 36 36 37 40 43 44 44 44 45 47 49 49 48 47 47 47 46 47 47
33 33 32 32 32 34 36 37 38 37 36 35 35 36 38 38 39 38 36 35 35 35 35 38 41 43 45 46 47 47 47 48 48 49 50 51 51 50 50 50 50 51 52
32 31 33 35 36 36 36 35 35 37 36 36 36 36 36 37 37 36 36 36 36 37 38 39 39 41 44 45 46 48 49 50 51 51 51 52 52 54 54 53 54 55 57
34 34 35 35 34 32 31 32 32 32 33 33 35 36 36 37 36 37 36 36 38 39 41 42 43 44 46 48 49 49 49 49 51 52 53 54 54 54 54 56 59 59 59
39 39 38 37 35 34 33 34 34 33 33 33 34 36 37 37 37 37 37 39 40 41 42 42 43 43 45 46 47 48 49 50 50 51 52 54 56 58 60 61 61 61 61
44 40 39 37 38 38 37 38 37 35 35 36 36 36 38 38 38 39 39 40 41 42 42 43 43 43 44 46 47 49 50 52 54 56 58 59 60 61 61 62 63 65 66
47 47 45 43 41 42 40 39 39 38 39 38 38 37 38 38 38 40 42 44 45 45 45 45 45 46 47 48 49 50 52 53 54 56 57 59 61 63 64 66 67 67 67
51 50 50 49 47 46 46 41 40 41 41 40 40 40 40 40 40 42 44 46 47 47 48 49 50 51 52 53 54 54 54 54 55 58 60 61 63 64 65 66 68 69 70
49 48 49 49 50 47 48 47 43 43 44 42 41 41 42 44 42 44 46 47 48 49 50 52 53 55 56 57 56 56 57 59 60 61 62 62 64 65 67 69 70 71 72
51 50 49 49 49 49 48 50 47 45 44 44 44 45 48 41 45 47 47 50 50 51 51 53 56 56 56 55 57 59 61 62 63 64 65 66 67 67 69 70 72 74 76
54 51 50 50 49 50 48 49 46 46 44 44 45 44 43 46 49 48 49 51 54 55 54 57 57 56 57 59 61 62 62 63 65 66 67 68 69 71 74 76 79 83 86
55 54 52 51 50 50 50 48 46 47 45 45 45 46 43 50 51 51 51 53 57 58 57 62 62 59 61 63 64 64 66 66 67 68 69 71 74 77 80 83 87 91 93
56 57 53 51 50 51 49 48 48 46 45 49 41 43 48 49 50 52 52 55 60 62 64 67 62 65 66 66 66 67 68 69 70 73 75 78 80 84 88 91 94 97 99
57 57 53 51 50 50 49 48 48 43 48 41 42 44 49 49 50 53 55 61 64 67 66 63 66 67 67 68 68 67 70 72 75 78 81 83 87 90 94 98 99 95 88
55 56 56 56 53 49 48 48 45 45 46 53 47 45 49 51 53 56 60 64 65 63 66 68 68 67 67 67 68 70 72 75 79 83 87 89 92 96 97 91 80 71 67
54 58 54 55 51 50 48 46 42 45 48 45 45 49 53 53 56 61 65 65 64 67 69 68 69 68 67 70 72 73 75 79 82 87 92 93 95 87 75 71 69 66 66
51 48 52 49 48 47 45 44 46 46 47 53 49 50 54 56 59 62 63 64 68 68 68 69 69 67 70 73 75 78 80 82 86 91 90 80 73 68 70 70 70 70 70
44 50 45 43 43 44 42 47 51 50 46 58 51 58 56 57 59 61 64 66 67 68 70 68 68 71 74 76 79 81 83 86 87 80 72 59 66 68 69 71 71 70 69
45 42 40 38 38 39 40 45 50 51 58 54 59 58 59 58 60 62 64 67 69 68 69 71 73 75 76 80 81 84 86 86 77 66 62 58 67 67 71 70 67 67 65
37 36 32 31 34 47 49 42 46 55 55 53 53 55 58 60 63 66 68 68 69 69 72 74 76 78 79 81 83 85 83 73 55 58 66 63 69 71 68 60 56 58 59
27 28 31 34 49 43 41 43 44 48 53 54 57 60 63 65 66 69 70 69 70 73 76 77 78 79 80 82 85 80 63 52 52 59 67 71 64 56 50 42 46 52 57
24 28 34 37 38 35 38 48 53 50 54 58 60 62 64 65 67 69 71 72 74 76 78 79 80 81 82 82 71 54 47 50 56 60 66 55 49 45 35 31 35 42 48

GFSMA_500_spd_024.txt.gz
Wind_Speed
29 28 28 28 27 24 24 25 26 28 28 28 26 26 26 27 28 30 31 32 33 33 33 33 32 31 30 29 29 30 32 32 32 33 33 33 34 34 33 32 30 29 28
30 29 29 30 30 28 29 27 26 27 26 25 26 26 27 28 29 32 33 33 33 33 34 34 32 31 30 29 29 30 30 30 29 31 32 33 33 32 33 33 33 34 34
31 30 30 30 31 30 30 30 28 27 28 27 28 29 31 33 33 34 36 37 37 36 35 34 33 32 32 31 30 29 27 27 29 30 32 33 35 34 37 40 38 40 39
32 31 31 30 31 30 29 30 30 29 29 30 31 33 33 35 36 37 38 39 38 38 37 34 33 32 34 34 34 34 34 36 38 39 41 42 43 43 43 44 45 46 47
33 31 31 32 32 31 30 30 31 32 32 34 35 38 36 36 36 37 39 39 40 38 36 34 33 33 33 36 39 40 42 43 45 45 45 46 47 47 48 48 49 49 48
35 33 33 33 34 32 32 32 33 35 36 36 34 35 36 37 37 37 37 38 36 35 34 35 35 35 36 37 38 39 41 41 42 42 43 45 47 48 48 50 50 51 50
37 36 35 33 33 34 35 34 35 34 33 31 30 31 32 33 34 34 34 35 34 35 35 34 34 35 36 37 39 41 42 44 45 46 46 46 46 47 48 49 50 52 53
38 37 37 38 36 35 35 34 33 33 33 32 32 32 31 31 33 34 34 35 36 36 36 36 36 37 38 39 40 41 42 43 44 45 45 46 47 47 48 49 50 51 52
40 41 44 42 40 38 37 36 36 37 36 35 35 36 35 34 35 36 36 37 37 37 36 37 38 39 41 41 41 41 42 44 45 46 47 48 49 50 51 53 54 56 57
46 45 48 46 44 40 38 39 40 39 41 39 39 39 39 38 38 37 39 39 39 39 41 40 40 41 42 43 43 44 46 47 48 49 50 51 51 52 53 54 54 56 58
47 45 47 48 48 44 44 42 43 43 42 42 41 41 41 41 41 41 41 41 42 42 42 44 44 43 44 45 46 48 48 50 51 52 52 52 52 54 56 57 59 59 61
49 48 48 47 50 49 48 47 47 48 47 45 42 43 44 44 44 44 43 44 43 44 44 47 48 47 47 49 49 49 51 52 53 52 51 53 54 56 58 59 60 62 63
52 51 49 48 49 49 49 49 48 46 49 46 44 45 45 45 45 46 46 48 41 44 48 49 51 52 51 52 54 55 57 58 56 56 58 59 60 60 61 62 63 64 65
52 51 52 51 49 49 48 47 47 47 47 48 48 48 47 45 47 47 48 48 45 50 51 52 54 55 54 55 56 58 60 61 60 62 63 64 66 65 65 66 66 67 67
57 55 54 55 53 53 51 47 48 48 47 50 49 47 53 43 46 51 50 47 47 52 54 54 56 57 59 58 60 63 63 62 64 66 67 68 67 67 68 69 69 71 73
63 57 57 56 55 55 52 49 49 49 50 51 50 50 48 52 52 50 50 48 50 55 57 58 58 61 63 63 63 63 64 67 69 69 68 68 68 69 70 71 73 76 78
67 58 57 57 54 54 54 52 49 49 50 52 52 53 50 52 62 48 45 49 58 59 60 60 61 65 65 63 64 66 69 71 71 70 70 70 71 72 74 77 78 80 82
66 65 58 58 57 57 55 54 52 49 50 53 53 52 55 50 55 52 50 51 55 60 61 63 66 67 65 65 68 70 70 72 71 71 72 73 76 78 79 80 83 85 88
69 65 62 61 57 57 56 56 54 49 51 51 53 57 49 59 53 50 51 59 58 60 64 67 66 66 67 70 70 71 71 71 71 74 76 78 80 81 84 86 89 90 88
70 69 64 59 55 55 58 56 54 52 52 52 52 52 57 59 55 60 61 61 60 63 69 68 68 70 70 70 72 72 70 72 74 78 80 82 84 85 88 90 86 80 76
61 63 60 58 51 48 52 56 51 51 52 52 52 54 64 53 55 61 62 63 68 71 68 70 71 72 71 71 73 73 73 76 78 81 82 84 85 88 87 76 69 70 73
41 46 53 53 49 51 45 45 45 50 52 48 51 59 58 58 57 65 64 65 71 68 69 71 72 71 71 73 76 77 79 80 80 82 82 82 86 79 67 63 68 74 78
37 39 38 46 46 54 43 42 45 49 48 46 55 49 59 57 59 64 66 69 69 70 72 73 74 75 77 79 80 81 83 83 83 83 83 79 72 59 60 66 70 68 67
25 28 36 40 42 50 41 39 44 48 50 55 55 60 61 59 64 65 67 69 70 72 75 77 80 82 83 85 86 85 84 82 79 79 71 56 54 55 61 58 53 57 60
21 31 35 37 43 31 36 41 47 45 46 45 52 54 63 66 61 61 63 66 72 77 81 84 87 88 89 89 86 83 79 76 68 52 51 49 55 56 47 42 45 49 51
23 24 14 18 26 31 34 39 34 36 40 41 44 49 52 55 59 65 71 76 80 84 86 88 90 90 87 83 79 71 63 48 39 40 50 51 50 41 31 31 35 41 44

GFSMA_500_spd_027.txt.gz
Wind_Speed
29 28 29 28 29 29 27 28 27 27 27 27 27 27 27 25 24 25 26 28 31 33 34 35 34 33 32 31 30 29 30 30 30 30 29 29 29 30 31 32 32 34 32
31 31 30 30 31 31 29 31 30 30 29 28 27 26 26 26 27 30 31 33 35 37 37 37 36 36 34 32 30 30 30 29 30 29 27 26 26 27 28 29 30 31 32
31 31 31 30 31 32 31 31 32 31 31 29 29 28 28 29 30 31 32 34 36 36 36 36 36 36 34 32 31 31 31 32 31 31 31 31 31 33 33 33 32 34 36
32 33 31 31 32 33 32 30 30 32 31 30 30 30 30 32 34 35 35 34 35 36 37 35 31 31 31 31 31 30 32 34 36 38 39 40 41 42 42 42 42 42 43
36 35 33 33 33 33 33 31 31 32 31 31 32 32 34 34 31 30 30 31 31 30 29 29 29 30 30 31 31 31 32 33 36 39 42 43 43 42 42 43 44 45 46
40 38 37 36 35 34 33 33 32 32 33 33 33 33 30 28 27 27 27 26 27 28 29 28 29 30 31 31 31 31 32 33 34 37 38 41 42 43 44 45 46 48 49
43 41 40 38 37 35 35 34 33 34 33 33 31 30 29 29 28 28 27 27 28 29 30 29 29 29 31 32 33 33 33 34 35 36 38 38 40 42 42 43 44 45 44
45 42 41 41 40 38 39 36 36 35 34 34 33 32 31 32 33 33 33 32 32 32 32 32 31 31 31 33 34 35 36 36 37 38 38 39 41 41 42 43 45 46 47
48 46 45 43 45 42 41 42 39 38 37 36 37 35 35 35 36 37 38 37 36 36 36 36 35 34 34 35 36 37 38 39 40 41 42 43 43 44 46 47 48 48 49
50 50 49 48 49 47 45 44 42 40 39 39 40 37 37 37 38 39 41 41 41 40 39 40 40 39 38 38 38 40 41 41 42 44 45 44 44 46 48 50 50 51 52
53 53 51 50 51 52 49 48 46 46 45 43 42 41 41 41 41 42 41 43 44 44 42 43 44 43 41 42 42 43 43 45 46 47 48 49 49 49 49 49 50 52 53
58 58 56 54 53 53 48 48 49 48 48 45 47 47 42 45 45 46 45 46 47 46 46 47 48 46 46 48 48 47 46 48 49 52 53 50 54 54 54 52 54 55 57
58 60 58 57 54 54 52 52 51 51 51 50 48 45 41 46 47 47 48 47 47 48 49 50 50 51 52 53 54 51 50 50 51 51 55 60 59 58 57 58 59 61 63
58 59 60 60 58 56 55 54 52 51 50 48 45 45 45 46 40 50 54 49 46 47 51 53 54 53 54 56 56 54 52 52 54 59 63 61 59 62 63 64 65 66 66
65 62 60 59 58 58 57 56 52 52 52 49 48 48 47 48 48 49 50 49 48 49 51 54 52 49 54 58 58 56 55 59 62 64 63 64 64 65 67 69 69 68 68
73 70 65 63 59 59 58 55 50 55 55 52 50 49 48 50 51 51 50 55 54 56 56 58 53 55 60 62 58 58 61 65 67 67 67 69 69 70 69 69 70 69 69
75 73 71 69 61 59 59 58 53 44 56 55 51 51 50 50 53 53 54 56 55 52 64 53 57 59 60 59 59 62 66 68 69 70 71 72 72 71 71 69 69 71 72
72 73 71 70 66 64 61 59 60 60 57 56 53 52 53 47 60 56 57 55 62 57 58 64 59 56 61 64 65 69 73 70 72 73 73 74 73 72 71 72 73 76 78
60 65 68 67 64 62 64 62 60 58 59 56 56 52 46 51 54 59 59 58 60 64 65 60 65 66 64 67 72 72 71 70 72 73 74 74 74 75 77 78 80 82 83
48 50 56 60 61 58 55 58 59 56 54 56 58 57 56 56 55 55 60 63 64 64 62 63 68 62 66 70 72 70 71 71 72 75 77 78 79 81 83 84 84 86 86
33 38 42 46 50 53 53 53 54 53 51 49 56 57 55 55 52 55 61 61 65 64 63 62 64 70 74 74 74 73 74 75 76 80 82 83 85 85 88 88 88 87 85
21 27 31 37 49 46 44 45 49 49 43 38 39 46 51 61 63 61 61 65 60 59 63 68 74 69 69 73 76 79 83 83 83 86 87 85 88 87 87 83 80 74 65
13 15 20 23 25 31 42 41 45 48 49 48 44 48 54 56 55 60 65 68 64 66 65 65 67 72 76 81 84 86 88 89 89 90 91 86 85 77 71 64 59 57 59
18 18 17 16 17 23 25 31 36 41 47 48 47 43 46 53 56 57 59 57 59 63 67 73 78 82 86 89 91 91 89 86 84 83 82 71 61 50 45 50 57 60 57
17 17 16 14 16 21 19 29 30 32 44 52 50 51 43 47 48 48 53 59 65 69 75 80 83 86 87 85 85 84 82 76 65 52 48 38 36 38 44 49 49 45 42
2 1 4 9 16 19 23 32 33 35 33 29 31 34 37 41 47 54 59 64 70 74 76 77 76 75 75 74 68 60 48 36 25 25 33 33 39 43 34 33 36 38 40

GFSMA_500_spd_030.txt.gz
Wind_Speed
29 28 27 27 28 29 28 29 30 31 30 29 29 29 27 26 27 27 25 26 28 30 32 33 34 35 35 34 31 31 31 29 29 29 29 29 29 28 27 26 27 28 29
30 30 30 30 30 31 31 31 32 32 33 33 32 31 30 28 27 28 28 30 32 34 34 34 34 34 36 35 34 30 30 29 29 29 30 29 28 28 27 26 27 27 27
33 33 33 33 33 33 34 34 32 32 34 34 34 33 31 30 29 29 30 33 35 34 31 30 29 27 26 24 25 26 28 29 29 30 31 32 32 33 33 33 33 33 35
37 37 36 36 36 36 37 36 32 33 34 34 34 33 32 31 31 31 33 34 27 27 25 24 24 24 24 24 24 25 27 29 30 30 31 33 35 37 39 40 41 42 43
39 39 39 40 39 38 39 37 35 35 35 34 34 34 33 33 33 33 28 26 25 23 23 23 23 23 24 24 25 26 27 28 30 31 33 34 35 36 37 38 39 39 39
44 44 42 43 43 42 40 40 38 36 35 35 35 34 34 33 33 29 27 26 25 25 24 25 26 25 25 25 25 26 27 28 30 32 33 34 35 35 36 37 37 37 38
49 47 47 46 45 45 45 43 40 39 38 37 36 35 35 33 32 30 30 30 29 29 30 31 31 31 30 30 29 29 29 30 31 31 33 34 35 36 36 37 38 39 38
51 52 52 51 49 48 48 46 44 42 41 39 38 37 35 35 33 34 33 33 34 35 35 36 36 36 36 34 34 34 34 34 35 35 35 35 36 38 38 39 40 40 41
55 54 54 55 54 52 49 49 46 45 44 42 40 41 39 38 37 36 37 36 37 38 39 40 39 40 39 39 39 38 39 40 38 39 39 39 39 40 42 42 42 42 43
57 55 55 57 57 55 52 51 49 49 47 45 45 43 44 42 40 38 38 38 39 40 42 42 43 43 43 43 43 43 43 42 41 42 42 42 43 43 45 45 47 47 46
58 59 57 56 58 57 56 53 53 51 50 51 49 49 51 50 45 43 43 42 42 43 43 45 46 46 47 47 48 48 47 47 46 45 46 46 46 46 46 47 45 48 53
56 61 62 59 60 61 60 58 56 54 54 52 51 50 48 48 46 45 45 43 41 45 45 46 48 48 48 49 50 50 51 51 51 49 48 48 48 47 46 48 52 54 55
58 58 62 66 65 64 64 62 60 59 58 55 53 51 50 51 52 51 47 43 45 50 46 49 53 50 46 49 53 53 56 58 55 52 51 50 48 49 52 53 54 56 58
65 66 64 63 65 69 69 67 64 63 61 57 50 54 55 53 56 52 48 45 48 48 50 51 54 49 52 55 54 60 56 55 56 57 56 54 52 53 56 59 61 61 62
69 69 69 68 66 65 67 67 65 63 63 61 59 58 56 56 55 52 50 50 51 51 55 54 52 57 58 58 61 61 58 57 59 62 62 60 58 63 65 69 67 67 67
70 70 70 69 70 68 66 65 65 64 63 61 59 56 53 62 57 53 52 51 54 57 58 52 57 58 63 59 61 65 59 61 64 65 65 65 67 68 73 70 70 72 72
67 69 70 69 68 68 69 67 65 64 62 61 56 50 64 60 55 52 54 55 58 59 63 51 60 64 61 64 62 69 72 66 64 65 71 73 72 74 75 73 73 73 74
61 62 60 62 64 62 64 63 65 62 61 60 58 58 57 49 57 62 56 55 56 62 60 68 66 62 65 66 66 73 74 74 66 68 72 75 77 75 74 74 74 75 76
52 52 52 52 54 55 58 60 59 62 62 59 56 58 56 61 50 53 61 59 65 57 62 67 66 64 66 72 74 69 69 71 72 73 79 82 81 76 77 79 80 81 83
43 44 42 43 45 47 49 49 53 54 59 61 61 60 61 58 60 58 60 63 68 61 66 64 64 72 71 75 70 65 68 71 74 75 77 79 82 85 87 88 89 88 89
33 38 37 35 39 38 37 41 40 45 48 50 54 58 61 60 59 63 52 54 56 65 71 73 68 70 73 73 72 74 75 77 78 81 84 86 88 90 92 92 91 90 90
25 27 31 27 28 23 19 25 31 36 41 44 46 48 50 48 51 46 53 54 62 65 71 69 67 65 70 68 70 74 77 81 85 87 89 90 91 90 89 88 84 81 78
14 15 22 27 24 22 22 24 28 28 28 29 34 40 45 48 55 61 59 58 61 56 55 56 58 63 67 72 76 80 83 85 85 86 85 83 83 76 67 58 52 49 46
9 6 9 14 17 19 19 22 21 19 22 26 36 39 43 49 52 55 55 47 47 52 57 62 64 68 72 75 78 78 77 76 77 77 76 61 51 41 34 37 41 44 46
7 8 9 10 12 16 13 11 13 12 18 24 24 32 39 45 46 39 43 48 53 56 59 64 67 68 68 67 65 62 61 60 55 48 37 24 30 31 35 41 43 45 43
12 4 2 6 6 7 14 11 10 15 18 25 32 26 24 29 34 39 45 52 56 59 61 63 60 57 54 52 50 46 41 33 28 29 28 30 36 37 31 37 39 41 40

GFSMA_500_spd_033.txt.gz
Wind_Speed
30 29 28 27 27 28 27 28 29 30 31 30 31 31 31 31 30 28 26 26 26 27 28 31 32 33 32 29 25 25 24 24 24 24 25 25 26 25 26 26 26 25 24
31 31 30 30 30 29 31 31 32 32 32 32 33 33 34 34 32 30 28 28 28 30 32 34 31 26 22 21 20 19 19 19 20 22 24 25 26 27 27 26 26 26 26
35 35 34 33 34 33 34 34 35 35 34 34 35 35 35 35 33 32 31 30 30 32 33 27 22 20 20 19 19 20 20 20 20 21 23 25 26 28 29 31 32 32 33
38 38 39 36 37 37 36 37 38 37 35 36 36 36 36 35 34 33 33 32 32 32 26 23 21 20 19 19 20 21 22 22 22 22 24 25 26 27 30 31 32 34 35
42 43 42 41 42 41 40 41 41 40 39 37 37 36 36 36 35 34 34 34 33 29 25 23 22 21 22 22 22 23 23 24 24 25 25 26 27 28 30 30 31 32 33
44 45 46 46 46 47 45 45 45 45 44 41 40 38 37 37 37 36 35 35 33 30 27 27 26 26 26 27 28 27 27 27 28 29 29 30 30 31 30 31 31 32 33
48 47 47 48 48 48 48 49 50 48 47 46 44 41 41 39 37 36 37 37 33 33 32 32 32 31 31 31 32 33 32 32 31 33 32 33 33 33 34 33 33 34 35
51 51 50 51 51 51 51 51 54 53 53 49 48 47 44 42 38 38 38 38 37 37 37 36 36 36 36 36 36 36 36 37 36 36 36 36 36 35 35 36 36 36 37
56 55 54 54 55 55 53 53 55 54 55 54 52 50 48 45 43 42 42 41 41 42 41 39 37 37 37 38 39 39 39 40 40 40 40 40 40 39 38 38 39 39 39
56 59 58 57 57 57 54 55 56 54 54 54 55 52 50 48 45 45 46 44 47 47 44 43 41 40 40 41 41 42 43 45 44 44 44 43 43 45 44 42 41 43 42
53 55 58 60 59 59 58 59 57 57 58 58 55 55 54 52 50 48 49 50 56 54 50 49 50 43 42 42 43 43 45 47 47 47 46 45 48 49 50 46 46 47 46
52 53 55 57 59 61 62 62 62 60 60 60 60 58 55 56 54 53 51 49 48 47 43 44 42 41 42 41 46 47 48 48 45 48 50 52 53 53 53 50 50 50 50
55 56 60 62 62 63 63 64 64 65 65 64 62 62 60 59 56 53 51 51 51 51 52 51 48 45 45 43 48 52 52 46 49 51 53 57 55 56 53 55 55 53 53
57 60 62 63 65 67 69 68 65 65 66 68 67 64 62 62 61 59 54 51 53 59 59 46 51 45 45 51 54 53 51 50 52 60 56 58 59 58 60 59 61 62 59
54 57 61 64 65 66 66 68 70 67 65 66 67 66 65 63 62 61 62 54 56 62 52 55 54 49 54 52 56 55 57 60 59 58 58 58 63 63 63 64 67 69 67
60 64 68 70 72 70 68 67 64 66 65 65 65 63 62 61 59 58 56 58 60 69 62 56 50 54 56 63 57 60 61 59 62 63 64 67 65 68 71 73 69 70 73
65 69 72 71 74 72 65 64 62 63 67 63 62 61 61 59 57 52 56 58 63 56 45 53 47 51 57 61 52 56 64 67 64 67 68 69 70 70 69 73 74 74 76
67 76 65 61 63 53 55 58 57 55 59 62 62 62 59 58 55 54 55 61 64 57 61 53 49 54 62 64 66 67 68 65 70 71 74 73 76 73 69 72 76 78 78
68 53 45 47 48 42 44 46 47 48 51 53 57 56 55 53 54 55 57 57 58 52 56 49 55 57 63 63 64 60 69 75 73 75 77 74 74 74 74 77 81 83 83
47 42 32 39 43 42 42 40 39 42 44 48 54 56 56 54 53 46 53 63 58 57 65 62 66 68 62 61 64 71 71 70 68 69 69 71 71 74 77 80 83 87 89
33 31 28 28 31 32 33 31 34 37 38 42 47 53 51 54 54 55 62 60 65 66 60 52 55 56 62 65 65 60 59 63 66 70 73 76 78 80 83 84 86 88 88
29 28 29 28 25 23 24 28 31 33 35 36 37 42 40 40 43 45 46 50 52 54 58 63 70 65 56 57 60 64 66 70 71 74 75 76 77 77 78 78 79 79 78
24 24 23 22 24 21 25 26 25 24 25 23 17 19 23 28 36 36 39 44 49 54 59 62 62 59 62 64 66 67 69 71 71 71 70 66 67 65 64 62 57 50 47
20 18 17 17 16 14 14 16 19 21 24 27 25 23 19 28 32 37 41 45 47 50 48 49 52 57 60 63 64 65 66 64 62 60 56 50 47 38 35 37 40 43 44
19 16 13 14 15 9 9 4 8 13 19 21 21 17 24 24 25 23 25 30 35 40 45 50 55 60 63 63 61 58 57 55 54 53 48 42 40 36 37 40 42 43 41
16 15 11 11 11 8 5 10 10 17 15 18 14 10 10 15 19 26 32 37 42 47 52 56 61 62 61 56 55 54 54 52 51 48 45 42 42 38 33 38 40 40 38

GFSMA_500_spd_036.txt.gz
Wind_Speed
27 26 25 25 27 26 27 27 28 29 30 30 29 28 28 30 30 28 30 30 28 27 27 27 28 29 29 23 17 16 15 15 15 14 15 16 17 18 19 19 20 20 20
30 31 30 28 28 29 30 31 31 30 31 31 31 31 30 32 32 32 29 32 30 30 29 29 29 29 24 17 17 16 16 16 16 16 15 15 16 18 19 20 21 22 23
33 32 32 34 33 33 33 34 33 34 34 33 33 33 32 33 33 33 31 31 32 32 31 31 30 25 21 18 17 17 17 17 17 17 17 18 17 18 20 22 23 24 25
35 36 36 35 36 38 39 38 37 37 37 38 37 36 36 35 35 35 33 30 32 32 32 32 30 25 23 21 19 19 19 19 20 20 19 20 20 20 20 22 24 25 26
37 39 40 41 39 40 41 41 41 41 42 43 42 40 39 39 39 36 36 34 32 33 33 33 30 27 25 23 23 23 24 24 25 25 24 24 24 23 24 24 25 25 26
38 41 42 43 42 42 41 43 43 45 45 46 45 44 42 41 41 40 38 37 36 34 34 34 32 31 30 28 28 28 28 28 29 29 29 29 29 28 26 27 28 28 28
43 43 44 44 45 44 45 46 47 47 48 49 49 49 48 47 44 42 41 40 39 38 35 35 34 35 35 35 33 33 33 32 32 32 32 33 32 33 32 32 31 31 31
47 47 47 47 48 46 47 50 50 51 52 52 52 53 52 50 47 46 44 43 42 41 38 37 38 38 40 39 37 36 35 35 35 35 34 35 34 35 36 36 35 35 35
48 48 49 50 50 50 50 49 51 51 51 51 51 54 54 51 49 48 48 47 45 44 43 41 42 43 43 42 41 39 39 38 38 38 38 38 38 38 38 38 38 38 40
50 51 53 53 54 54 56 54 55 54 54 54 56 54 56 53 52 50 50 51 51 47 46 45 46 51 56 51 45 44 44 42 41 40 41 41 41 42 40 40 39 40 43
47 48 50 53 54 56 56 58 59 57 56 54 55 57 57 56 55 55 52 50 52 53 46 44 49 51 44 46 44 47 52 48 41 42 41 44 44 46 43 43 43 44 44
45 47 49 51 54 55 57 58 60 62 61 59 57 57 57 58 59 57 56 56 54 52 53 52 51 49 45 44 41 42 44 40 46 47 48 49 49 47 44 48 48 49 52
47 49 52 55 56 58 59 60 62 64 65 65 64 61 61 60 61 59 58 57 58 58 57 54 52 54 52 52 49 49 48 43 43 48 51 53 48 47 50 52 55 54 55
49 48 48 51 55 58 59 61 63 64 66 66 66 65 65 61 60 60 61 60 56 58 61 58 55 48 53 54 56 50 46 50 49 51 53 53 54 54 57 58 56 59 60
44 46 51 54 55 59 64 68 71 72 71 69 67 64 65 65 63 61 59 56 58 58 60 57 61 61 60 62 57 50 47 51 48 48 51 53 54 63 58 61 62 61 62
47 50 52 55 60 67 72 73 69 66 65 65 62 64 61 61 64 62 60 55 56 59 56 58 62 61 49 52 54 48 54 47 43 51 55 56 56 60 62 63 63 63 63
44 46 49 52 60 69 72 64 57 60 62 62 60 59 58 60 59 59 59 54 47 57 64 61 61 67 57 55 54 48 46 42 50 58 60 62 65 62 65 67 67 67 69
40 43 46 51 51 54 54 52 46 39 47 53 55 55 53 55 56 58 58 57 60 59 57 58 54 61 49 37 37 45 51 53 58 55 55 55 58 68 69 70 72 73 68
39 42 47 44 44 47 45 41 41 42 34 46 48 47 49 50 50 48 49 58 59 58 48 46 38 47 55 49 59 62 59 51 52 58 62 63 66 68 64 63 66 67 69
39 39 41 38 37 40 43 37 34 33 33 39 35 35 41 45 48 45 37 33 45 57 57 50 58 58 57 60 60 58 59 61 55 56 56 58 61 62 66 68 71 75 76
36 36 33 34 35 38 39 36 28 28 27 30 30 32 33 36 43 48 56 53 46 47 50 53 61 57 53 54 57 58 55 56 58 60 60 65 64 68 69 71 72 72 73
33 30 28 29 31 33 34 33 28 25 27 29 30 32 33 34 34 37 39 43 41 41 43 46 47 50 52 51 51 51 55 58 59 63 63 66 64 66 67 67 65 63 60
33 29 26 27 24 25 25 25 27 25 23 24 26 30 30 31 31 26 28 26 31 32 36 40 39 42 49 52 51 56 60 62 62 64 63 62 61 61 60 59 56 51 48
25 26 26 24 23 23 21 19 17 18 18 16 15 19 19 11 14 17 17 18 21 26 30 32 37 42 47 51 53 56 60 62 62 61 59 55 56 55 54 53 49 48 46
25 23 22 20 21 20 21 20 16 11 10 13 16 18 15 15 6 9 11 17 21 27 32 38 43 46 49 52 55 60 61 59 56 57 55 52 53 48 47 48 47 46 44
21 22 21 20 22 23 22 19 18 15 14 16 10 12 9 12 12 16 20 25 29 33 38 41 45 49 52 55 59 59 56 53 53 54 52 47 46 42 38 43 43 41 40

GFSMA_500_spd_039.txt.gz
Wind_Speed
22 25 26 27 27 26 27 26 26 27 29 29 30 29 28 28 27 27 27 29 28 29 28 28 27 26 27 28 28 21 18 16 14 14 14 13 12 13 14 15 16 17 17
26 26 27 27 28 29 31 30 31 31 31 32 32 32 32 30 30 30 27 29 30 28 29 29 28 28 28 27 25 21 19 17 15 14 15 15 14 15 15 15 16 17 18
29 30 31 30 31 30 31 33 35 35 35 36 37 36 36 35 33 32 31 30 32 32 30 30 30 29 29 28 25 24 22 19 16 16 17 17 17 17 17 17 18 18 19
32 32 32 32 34 35 36 35 35 35 36 38 38 40 39 39 39 37 35 33 33 34 33 32 31 30 30 29 27 26 25 23 21 20 20 20 20 20 20 19 20 20 20
35 35 35 35 36 37 37 38 40 40 38 40 41 42 42 42 42 41 38 37 35 36 36 35 33 32 31 31 30 29 28 27 27 26 25 25 25 24 24 23 22 23 23
36 36 39 40 41 40 40 41 42 43 43 44 46 45 45 45 45 44 41 40 39 38 39 39 37 36 34 33 33 33 33 32 32 30 30 29 29 29 29 28 27 27 27
40 40 40 41 42 42 43 43 44 45 46 47 49 48 50 49 48 48 46 45 43 41 41 41 40 39 38 37 36 37 38 38 37 36 34 35 33 33 33 32 32 31 31
41 42 42 43 44 43 44 44 45 46 47 49 50 51 50 50 46 46 47 46 47 46 43 44 43 42 42 41 40 40 41 41 42 40 39 39 36 36 36 35 36 37 36
46 44 44 44 46 47 48 48 48 50 51 53 54 53 54 53 52 51 50 47 46 46 46 46 47 48 47 46 45 42 44 47 47 47 45 43 41 40 40 40 39 40 40
47 49 49 48 49 49 50 50 53 53 53 53 53 54 54 55 54 54 50 49 49 50 48 47 47 51 54 53 48 50 50 53 50 54 53 51 47 45 43 40 42 42 42
46 47 49 49 49 48 49 51 52 55 57 58 58 59 58 58 57 56 55 51 51 51 50 50 50 53 48 48 44 44 47 48 43 45 53 54 56 54 46 43 41 43 45
44 43 43 45 47 48 49 52 54 55 58 60 60 62 64 64 63 60 57 57 55 54 54 47 53 53 56 51 50 50 51 52 45 45 46 50 50 49 49 46 47 44 41
43 41 43 44 45 46 47 48 53 56 59 60 63 64 66 62 68 64 63 61 58 58 57 56 44 46 52 56 57 55 57 57 51 54 52 54 48 51 50 49 48 49 48
41 42 41 41 44 47 50 52 51 54 58 64 69 71 72 62 68 69 64 63 59 60 58 55 57 55 48 56 55 55 55 61 58 52 59 54 55 52 50 50 53 52 52
40 40 40 44 46 45 46 48 51 58 63 68 69 67 75 74 76 70 65 62 61 59 59 58 58 64 51 57 55 53 61 62 51 58 62 54 50 48 50 48 48 47 51
35 38 43 43 41 42 46 49 53 60 65 64 65 67 62 64 62 63 65 63 61 61 59 61 60 58 56 55 51 60 51 58 55 46 50 47 45 42 42 43 53 55 59
37 38 39 38 41 43 46 49 56 59 57 57 54 52 46 45 47 53 52 60 60 58 58 58 60 53 54 43 43 49 52 54 43 40 38 38 44 44 48 52 54 55 51
36 38 37 40 40 43 45 49 48 54 53 52 46 41 40 37 42 41 35 42 46 53 50 55 57 59 49 55 45 42 38 42 45 47 51 53 48 49 50 53 53 56 61
35 37 38 39 39 40 40 41 44 48 49 47 42 35 35 39 34 38 42 43 42 42 44 49 52 55 62 55 53 53 53 53 53 52 50 50 50 51 53 54 55 56 58
40 38 39 37 37 37 37 39 38 40 45 42 37 34 33 31 34 32 38 38 39 39 31 23 27 44 57 53 44 48 50 47 45 44 48 48 48 52 54 57 60 62 64
36 35 35 38 38 36 35 35 31 31 39 40 34 29 27 28 31 30 32 31 36 41 48 53 50 43 39 42 45 44 44 41 43 46 47 50 53 55 57 58 60 62 65
31 34 35 34 34 34 33 31 27 27 32 33 31 27 25 23 22 25 24 24 26 35 35 39 34 33 35 37 33 35 39 42 45 49 52 52 55 57 60 63 62 62 62
29 30 32 33 29 29 27 26 25 25 24 25 25 24 25 26 23 19 20 22 23 22 25 30 29 29 30 31 34 40 45 48 51 52 53 57 59 61 61 58 56 56 56
28 29 31 29 28 25 22 23 22 21 21 20 21 19 19 19 16 13 12 8 11 13 16 20 25 30 33 36 40 45 48 52 55 55 54 57 58 56 54 53 52 51 49
27 26 25 24 22 20 18 18 18 18 16 19 16 17 15 13 15 15 15 16 19 22 25 29 32 36 40 43 46 49 50 52 54 55 56 54 50 47 49 50 48 46 44
23 21 19 19 18 17 16 14 14 16 17 18 18 18 18 18 18 20 22 25 28 31 33 36 39 42 45 46 49 51 53 55 56 57 57 51 48 45 44 47 47 47 45

GFSMA_500_spd_042.txt.gz
Wind_Speed
21 23 24 24 26 27 29 30 30 31 32 32 33 33 33 32 31 29 29 30 30 30 29 28 28 27 27 28 26 27 27 24 21 20 18 16 14 14 14 14 15 17 17
23 24 26 27 29 31 31 31 31 32 33 34 35 37 37 36 34 34 33 32 32 32 31 30 31 29 29 29 28 27 27 25 24 23 20 18 16 16 16 16 16 17 18
26 27 29 29 30 31 32 33 34 35 36 36 36 39 39 38 37 37 37 34 35 36 35 33 32 32 32 31 30 30 28 27 27 26 24 22 20 19 19 19 18 18 19
30 30 30 30 33 33 34 34 35 36 37 39 41 42 42 41 41 41 41 39 38 38 37 36 34 35 33 33 34 33 30 29 29 29 28 26 25 24 23 22 21 21 20
33 33 32 32 35 36 37 38 39 39 39 40 42 44 43 43 44 44 44 43 42 41 41 39 38 37 36 36 37 36 34 32 32 32 33 32 31 29 28 27 27 26 25
35 35 35 37 38 39 39 41 41 41 42 43 43 44 45 46 47 47 47 47 46 45 45 45 42 40 39 38 39 39 38 36 35 36 36 36 34 34 33 32 33 33 32
37 37 38 40 41 42 42 42 41 42 42 44 45 45 48 49 48 49 49 48 50 48 46 46 46 45 43 42 41 41 42 41 39 41 41 39 40 41 40 37 39 38 37
39 41 42 43 44 44 44 45 45 46 47 48 49 50 52 53 53 55 55 53 51 50 47 45 45 45 45 45 45 45 45 45 44 44 43 43 44 45 43 42 43 41 41
41 43 44 44 44 44 45 46 47 47 48 49 49 53 54 53 54 54 55 55 55 55 52 49 47 47 48 47 47 47 49 50 50 49 46 48 54 51 47 47 46 45 44
45 47 47 46 45 45 47 47 47 46 49 49 51 52 54 55 58 58 55 57 58 56 56 54 52 50 48 47 47 48 49 49 54 57 50 57 53 41 49 55 50 52 51
44 46 47 48 49 49 47 46 47 47 49 52 52 52 54 57 58 58 58 59 62 60 59 59 57 51 52 50 51 54 52 53 49 49 46 47 47 44 44 50 60 57 56
43 45 46 46 45 46 48 49 49 49 49 50 52 56 59 58 57 63 67 63 57 49 61 70 59 57 56 53 56 52 54 54 54 52 47 45 48 48 47 41 47 53 54
44 46 44 42 44 46 47 47 44 48 50 49 50 52 54 59 64 69 72 70 68 72 67 62 62 59 58 56 55 58 55 58 54 52 50 55 56 49 51 51 49 48 54
46 46 43 44 45 45 44 43 47 49 46 47 49 54 58 63 69 69 68 71 74 71 56 58 54 62 60 61 62 56 52 53 54 57 55 57 55 45 50 51 55 54 54
43 44 43 44 44 41 42 44 40 41 45 48 51 54 59 64 60 64 63 66 64 66 72 71 60 59 60 62 61 57 57 58 59 56 56 55 59 59 50 51 52 46 49
41 40 39 39 40 41 40 37 42 44 47 48 50 53 56 57 56 52 47 44 50 51 56 50 60 63 60 60 55 46 54 50 50 38 46 43 40 42 41 44 44 50 48
38 37 36 38 38 39 38 40 42 45 45 48 48 48 52 54 52 46 40 39 41 43 42 47 40 52 58 63 56 56 48 45 55 42 41 39 37 39 35 38 36 36 36
37 36 36 36 37 39 39 40 42 43 44 46 43 44 45 50 45 39 36 40 40 41 40 29 33 41 48 50 53 46 47 53 42 42 40 44 51 49 44 52 51 46 44
34 36 37 37 38 38 38 39 41 44 42 43 41 40 40 44 41 38 36 34 35 28 30 31 31 32 33 19 32 40 47 43 46 44 45 52 51 43 39 40 41 43 45
32 32 33 36 36 36 38 39 39 40 41 40 39 35 35 39 40 34 33 30 29 32 32 27 26 26 29 20 30 28 34 41 45 42 45 42 40 42 40 42 44 45 48
32 32 32 33 34 35 34 35 36 38 39 38 37 32 31 33 38 33 32 26 26 23 23 21 27 30 38 39 40 36 35 35 34 34 36 38 40 42 43 46 48 51 53
30 31 31 32 32 33 33 33 33 32 34 32 30 30 30 29 29 28 28 22 19 21 20 20 24 27 34 35 30 30 31 31 32 36 39 42 43 46 49 48 50 52 54
28 28 30 30 31 30 29 29 29 28 27 24 23 23 23 24 21 25 21 19 18 18 16 15 17 21 23 25 29 32 34 37 38 41 44 45 45 46 48 50 52 54 54
26 28 29 29 28 27 26 24 23 20 18 17 19 18 19 19 20 20 22 22 22 21 22 22 24 25 28 31 35 38 40 43 46 48 51 53 53 54 54 54 54 53 51
26 26 25 25 25 23 21 20 18 18 19 20 20 20 21 23 23 25 26 26 27 28 28 30 32 34 36 39 41 43 45 47 50 52 52 54 55 56 56 55 53 50 48
25 24 22 21 22 20 19 18 18 20 21 22 24 25 26 27 28 29 30 30 31 33 34 35 37 39 40 43 45 47 49 50 53 55 57 57 57 55 52 50 49 48 48

GFSMA_500_spd_045.txt.gz
Wind_Speed
24 24 23 24 25 26 27 28 29 30 32 33 34 35 36 36 36 36 36 36 36 36 35 33 32 31 31 30 30 30 30 30 30 28 25 25 23 22 19 18 17 18 18
25 24 25 26 28 29 29 31 32 32 34 34 35 37 38 38 38 38 38 38 38 38 38 37 36 35 33 32 31 31 32 32 32 30 28 27 26 24 22 20 20 19 19
26 26 27 28 31 32 32 33 35 35 36 37 38 38 39 39 39 40 41 40 41 41 41 41 40 39 37 35 33 32 33 34 33 32 31 30 29 28 26 24 23 22 22
28 28 29 30 33 34 33 35 36 37 39 39 40 42 42 42 42 43 43 44 43 43 43 43 44 44 42 40 39 35 35 35 35 34 33 32 32 31 30 28 27 26 25
32 31 31 33 34 35 35 37 39 41 41 41 42 42 43 44 44 45 44 45 46 46 46 47 47 46 46 45 43 41 38 37 37 37 36 36 36 35 34 33 32 30 29
34 34 34 35 36 37 38 40 42 43 43 42 42 42 43 44 45 46 48 49 49 48 51 50 49 49 49 48 47 45 44 42 40 40 40 38 39 39 39 37 36 36 35
36 37 38 38 39 40 42 43 44 44 44 44 44 45 47 47 48 48 51 51 52 53 52 50 51 50 47 47 46 47 46 46 46 44 42 43 42 43 42 40 40 40 39
39 39 39 40 41 43 45 45 46 46 46 47 47 50 48 48 48 50 51 52 53 53 53 52 51 51 52 52 50 51 49 48 48 49 47 45 45 45 46 44 44 43 43
40 40 40 42 45 47 47 47 47 47 48 48 49 50 49 49 50 50 51 52 52 54 54 55 53 54 54 55 54 53 52 50 49 50 50 48 52 51 49 47 49 54 61
41 42 44 46 49 50 48 46 47 48 48 48 49 49 51 51 51 49 50 55 57 57 57 56 56 58 58 59 58 55 53 54 53 49 50 52 46 43 46 55 53 50 43
42 45 47 49 50 50 49 49 50 49 48 50 49 48 48 52 54 54 52 54 57 60 62 63 65 62 60 67 57 58 55 54 56 50 57 53 51 51 47 48 48 43 36
44 46 48 49 49 48 49 51 52 51 50 50 49 47 51 51 50 53 54 57 59 63 69 72 70 62 56 61 61 57 60 62 66 51 56 49 54 52 45 48 44 45 48
45 48 47 47 47 48 49 49 49 50 48 45 45 46 47 48 51 54 55 59 63 66 68 67 67 66 61 65 56 55 60 65 61 46 51 52 47 51 50 49 57 52 50
48 47 46 46 46 48 47 48 48 45 42 44 42 45 46 48 49 52 55 57 60 63 57 55 54 56 59 69 66 59 54 69 65 71 59 47 46 47 47 54 54 53 52
47 46 46 46 46 46 46 44 40 41 41 41 44 45 46 46 48 49 52 54 61 57 52 47 49 48 47 49 53 62 41 58 60 58 52 56 53 47 51 47 50 55 55
44 45 44 44 45 45 42 40 38 37 38 41 43 44 45 46 48 48 48 51 57 53 53 42 40 43 46 44 50 50 51 47 46 53 51 45 49 52 42 40 42 42 42
42 41 42 42 43 43 41 40 41 41 41 41 42 45 46 45 46 45 44 47 51 48 47 40 35 42 40 38 23 37 42 46 47 47 45 46 34 39 38 40 42 38 34
40 40 39 38 38 38 39 39 40 41 39 40 43 43 42 44 46 39 40 41 44 44 44 34 29 29 33 31 24 31 34 38 36 33 42 41 44 39 37 40 42 46 49
38 38 39 40 37 35 36 38 39 39 40 40 39 39 40 41 43 36 37 38 38 37 36 30 25 23 19 23 21 11 13 17 20 29 43 49 45 41 45 42 44 41 38
36 36 38 37 35 35 36 37 38 38 37 38 37 36 36 38 36 34 32 35 34 33 34 26 24 20 21 22 22 26 32 29 28 25 28 34 37 39 38 37 37 39 40
35 34 34 33 33 34 34 35 36 37 38 37 34 34 34 35 31 28 29 30 32 32 29 26 23 19 18 21 22 24 27 29 28 26 27 30 33 34 36 37 40 41 42
28 28 29 30 31 32 33 34 35 35 32 31 30 30 26 23 23 24 25 26 27 28 27 25 23 23 22 22 22 23 24 26 27 28 30 35 35 39 41 43 45 46 47
27 28 30 30 31 32 31 31 30 29 28 27 25 22 23 23 25 26 27 28 29 29 30 29 29 28 28 29 29 30 32 34 36 37 38 42 42 45 46 48 49 50 51
25 26 27 29 29 30 29 27 27 25 24 23 22 24 23 25 26 27 28 29 29 29 31 32 32 33 34 35 35 37 37 39 41 43 44 46 46 47 49 52 54 55 55
23 24 26 26 27 27 26 25 24 23 22 23 23 23 24 25 27 28 29 31 31 32 33 34 35 36 37 38 39 40 40 41 43 44 46 48 51 54 56 57 57 57 56
20 22 24 26 26 26 26 24 24 24 24 24 23 23 25 27 28 30 31 32 33 34 35 36 37 37 38 39 40 41 41 42 46 51 55 57 56 56 57 60 60 59 55

GFSMA_500_spd_048.txt.gz
Wind_Speed
25 24 22 23 24 23 24 25 26 27 29 31 32 33 34 35 36 35 35 35 36 37 37 37 37 38 37 36 34 33 33 32 32 33 32 31 29 27 27 26 24 21 20
25 25 25 26 26 26 26 28 29 30 31 32 33 34 37 38 38 38 38 38 38 39 39 38 39 40 40 40 39 38 37 36 35 34 34 33 31 29 29 28 26 24 23
26 27 27 28 29 28 29 30 31 32 34 35 37 38 39 40 41 40 40 40 41 41 42 41 40 40 41 41 42 41 41 40 39 37 36 36 34 32 31 31 30 28 26
27 28 29 30 31 30 31 32 34 35 36 39 40 42 43 43 43 41 41 42 42 43 43 45 46 44 43 43 44 43 42 41 41 40 39 38 37 36 34 33 33 32 30
30 30 30 32 32 33 34 35 36 37 39 42 43 43 44 43 43 44 44 45 46 47 47 47 48 48 48 48 46 46 46 45 44 44 42 41 40 39 38 37 37 36 34
33 33 33 34 35 36 36 37 38 40 43 44 45 45 44 44 43 43 45 46 48 48 49 48 50 50 49 48 48 47 45 44 42 45 45 44 43 42 41 40 39 39 38
36 36 36 37 38 38 38 40 41 43 45 47 47 45 45 45 45 45 45 46 47 49 50 51 51 50 49 50 51 51 49 48 46 46 45 46 46 45 44 43 42 42 42
38 38 39 40 41 41 40 41 44 46 48 48 48 47 46 46 46 46 47 48 48 49 50 49 50 53 53 54 53 49 49 50 50 50 49 50 49 49 47 46 46 46 46
41 41 42 42 42 41 41 45 49 50 50 47 48 49 49 47 47 46 47 46 47 48 48 49 51 53 55 55 54 53 53 55 53 52 50 51 50 49 48 50 51 49 52
44 44 44 43 41 42 45 48 51 51 49 48 48 47 47 48 48 48 45 45 45 44 47 51 54 57 60 61 60 54 64 63 58 57 53 57 58 50 52 50 52 50 46
45 47 45 42 43 45 48 50 51 50 48 48 47 47 47 47 43 42 39 41 44 47 48 52 56 58 61 65 64 64 68 68 62 66 54 56 54 52 43 46 63 56 47
46 44 43 43 45 48 49 51 51 49 48 48 48 49 48 43 42 40 42 44 46 47 48 52 56 59 62 59 61 64 65 60 60 55 53 55 54 56 55 51 49 45 60
42 42 43 45 48 50 51 50 47 47 46 48 48 45 43 43 42 44 45 45 48 45 47 51 54 59 55 60 61 60 53 47 58 69 47 52 52 59 44 42 40 35 44
42 43 46 49 51 49 47 45 45 45 46 44 42 41 40 40 42 45 45 46 44 44 45 49 50 52 58 54 48 44 44 45 49 62 63 51 58 62 54 49 61 51 37
45 48 51 52 49 46 44 43 44 45 43 40 39 40 41 43 45 45 45 43 44 43 44 45 45 50 49 36 34 35 43 44 54 47 54 52 48 55 60 62 35 37 40
51 51 49 46 44 42 43 43 43 42 42 40 41 43 43 43 44 45 41 43 42 41 43 40 40 45 34 25 31 34 38 32 22 32 36 33 34 29 36 31 33 36 47
49 47 44 42 41 41 41 41 40 40 40 40 42 42 43 44 44 42 41 41 41 40 40 36 36 41 23 25 29 36 25 22 19 24 28 27 28 29 30 29 26 30 34
45 42 39 38 39 39 39 40 39 38 39 40 42 42 44 43 42 40 39 39 37 37 33 32 33 36 27 26 29 29 26 18 28 10 12 23 21 20 26 31 34 32 34
39 37 37 37 37 38 39 38 38 39 40 40 42 42 41 41 40 38 38 35 35 31 29 29 29 30 28 24 23 26 23 15 25 22 19 17 18 27 34 37 31 34 37
35 35 36 36 36 38 38 39 39 40 40 39 39 39 39 36 35 34 32 30 28 27 26 27 27 26 25 23 22 22 20 22 20 16 18 18 21 27 30 31 33 33 34
33 34 35 34 33 35 34 35 37 39 39 38 36 34 32 30 29 26 24 25 25 28 28 29 28 27 26 26 26 25 24 23 22 21 20 21 22 24 27 29 32 34 36
31 30 30 28 31 33 33 34 35 35 36 33 32 29 27 24 24 25 25 26 27 30 30 29 29 29 29 28 28 29 29 30 30 30 30 33 31 34 35 37 39 40 42
24 24 26 26 28 29 30 31 31 31 31 30 28 26 24 25 26 27 27 28 29 30 31 30 31 32 32 33 33 33 33 33 34 35 34 37 37 37 39 40 42 45 47
21 22 23 24 26 27 28 29 28 28 28 28 27 26 26 27 28 27 28 29 30 31 31 31 33 34 35 35 36 37 36 36 38 38 37 38 38 38 41 44 47 49 51
20 21 22 23 24 25 26 27 27 27 27 27 27 27 27 27 27 28 30 32 33 33 33 34 35 36 37 37 37 37 37 39 41 42 41 42 44 46 48 50 51 48 47
17 19 21 23 24 26 27 27 26 26 26 27 27 28 28 28 29 32 34 34 35 34 35 36 37 38 38 39 39 39 41 42 43 45 46 47 48 49 50 52 52 52 54

GFSMA_500_spd_051.txt.gz
Wind_Speed
23 22 22 22 22 22 22 22 23 24 25 26 29 30 31 32 34 36 36 37 38 38 37 36 36 36 37 37 36 37 36 34 34 34 35 35 35 34 34 32 29 28 27
25 24 24 24 24 24 24 25 25 26 28 29 32 32 33 35 38 39 39 39 40 37 37 38 37 37 37 37 39 37 37 36 36 37 37 37 36 36 35 34 32 30 30
26 25 26 26 27 26 26 27 28 29 32 33 34 35 37 39 41 41 41 41 40 39 39 41 41 41 41 41 41 40 40 42 41 38 37 38 39 39 38 36 35 33 32
27 26 27 29 29 29 29 30 31 34 35 36 37 38 40 42 44 43 42 42 42 42 42 43 42 43 43 43 43 42 42 42 41 41 41 41 41 41 40 38 37 36 34
29 29 29 30 31 32 32 34 35 37 38 38 38 40 42 44 45 44 43 44 44 44 43 43 43 44 44 44 44 43 41 40 42 42 42 40 39 40 41 41 39 37 36
32 31 31 32 33 35 35 37 38 39 39 39 39 41 45 46 45 43 43 43 42 42 43 44 44 43 43 43 42 42 44 44 45 45 46 43 41 40 41 42 42 40 39
35 34 34 35 36 37 38 40 41 41 39 40 41 45 46 45 44 44 44 43 42 42 42 41 43 44 44 42 43 44 45 46 45 46 44 46 44 42 42 42 42 45 43
38 37 37 38 39 40 41 42 44 42 40 43 46 48 47 44 43 43 44 43 43 41 40 41 41 40 43 44 46 48 50 51 51 51 48 49 48 46 45 44 45 45 46
40 40 40 42 42 43 43 44 44 41 42 45 49 50 48 44 42 42 41 40 39 38 40 39 42 44 45 47 48 51 54 55 56 55 53 53 54 49 50 45 49 46 47
44 44 44 44 44 44 44 43 41 41 45 47 49 47 45 44 44 44 41 38 37 38 39 41 43 44 46 47 49 52 56 59 57 54 45 48 46 53 57 54 55 54 51
45 44 44 44 45 46 44 41 42 45 48 49 48 45 45 44 44 42 38 37 37 40 41 43 44 44 44 46 51 53 53 56 55 55 54 59 57 45 51 58 60 53 55
45 44 45 46 47 44 42 43 45 48 49 50 46 44 44 44 41 39 39 37 38 40 43 44 44 43 44 48 50 52 57 41 36 38 41 50 65 69 66 58 62 59 56
46 46 45 45 44 43 45 46 49 50 49 46 44 44 44 42 40 37 36 38 41 41 43 43 42 42 44 47 47 52 40 36 37 37 38 40 43 49 59 73 40 49 50
45 44 44 43 43 43 45 50 50 48 44 44 44 44 43 42 39 39 40 41 41 42 44 42 42 41 44 43 43 36 28 38 43 37 38 46 44 39 42 44 45 35 40
45 43 42 45 47 48 50 48 45 41 42 43 42 40 40 39 41 42 41 42 42 43 40 41 38 39 41 36 39 32 31 34 31 33 31 31 36 37 28 35 31 32 43
44 45 47 47 48 48 46 44 41 40 42 40 38 38 39 40 41 41 43 43 43 42 38 37 36 36 33 31 35 28 28 35 38 33 28 21 15 16 19 26 27 25 22
47 49 50 50 49 45 43 40 40 41 39 40 41 40 39 41 41 41 42 42 41 39 36 33 32 33 30 28 29 28 29 32 32 24 23 20 12 14 10 19 19 20 19
49 51 53 49 44 41 39 39 38 37 39 40 40 41 42 42 43 42 41 41 38 34 32 30 30 28 27 27 27 27 27 28 29 29 20 18 13 11 16 17 17 21 25
50 47 46 44 40 37 37 37 37 37 37 39 40 39 41 42 42 41 38 34 32 29 26 26 26 27 28 27 27 26 26 26 25 24 23 22 20 17 13 20 23 25 34
43 43 43 39 37 36 36 35 35 34 34 36 38 38 40 40 38 35 32 28 24 23 24 26 26 27 28 27 27 27 28 28 28 27 27 24 22 21 21 21 28 30 32
41 38 38 38 37 35 33 31 31 33 34 34 34 35 35 33 31 28 26 24 24 25 26 27 28 29 29 30 30 30 30 30 30 30 29 29 29 29 28 28 30 32 33
38 36 35 35 35 31 30 30 30 31 30 31 30 31 30 28 27 26 26 27 27 27 27 29 30 30 31 31 31 32 32 32 33 32 31 31 30 31 32 34 36 38 39
34 34 33 32 29 28 29 30 29 27 28 27 28 28 27 27 26 26 26 26 26 28 30 32 32 33 33 33 33 33 34 34 35 34 34 35 34 34 35 36 37 39 40
30 30 30 26 26 27 27 26 26 26 26 27 27 28 27 28 28 28 27 27 27 31 34 34 34 34 34 35 35 36 36 37 37 36 37 38 37 38 38 40 42 42 44
28 26 24 23 23 23 23 24 25 26 26 26 27 28 29 30 31 30 29 29 31 35 37 37 36 36 36 36 37 38 38 38 39 39 40 40 40 41 41 42 45 47 48
24 23 21 19 19 21 22 23 24 27 28 28 28 29 30 30 30 30 31 33 36 38 38 37 37 37 37 37 38 39 39 39 40 42 43 44 44 45 45 45 47 50 51

GFSMA_500_spd_054.txt.gz
Wind_Speed
20 20 21 21 21 20 21 22 23 24 25 26 27 29 30 30 31 33 35 37 38 39 38 37 36 36 35 37 36 36 35 34 34 34 34 35 34 33 34 34 35 34 32
23 23 23 23 22 23 24 25 25 26 27 28 30 32 33 33 34 35 38 40 40 40 39 37 36 36 37 37 37 37 36 36 36 36 37 37 36 35 34 34 35 36 35
25 26 25 25 25 25 26 27 27 28 29 31 34 35 36 36 37 38 41 43 43 41 39 38 37 37 37 38 37 36 37 38 37 37 35 35 35 35 36 37 37 38 36
28 27 27 28 28 28 29 29 30 31 32 34 36 37 38 38 38 41 44 45 43 42 41 40 39 38 39 38 37 37 37 37 36 36 36 38 38 37 38 38 39 38 38
31 30 30 31 30 30 31 31 32 33 35 37 39 40 39 38 40 43 45 44 43 42 42 42 42 40 38 37 37 38 38 36 37 39 40 40 40 40 40 39 38 37 38
32 31 31 33 33 33 33 33 35 37 39 41 41 40 40 40 42 46 46 45 43 42 42 43 42 40 38 37 37 37 37 39 40 41 42 43 44 44 43 40 41 41 41
36 35 34 35 36 36 36 37 38 40 42 43 43 41 39 41 44 48 46 44 42 42 42 42 40 38 38 37 39 40 41 42 43 42 42 46 48 49 49 47 45 44 42
39 38 37 36 36 37 38 41 43 43 43 45 44 41 39 43 45 47 45 44 44 44 44 41 38 39 37 39 42 42 44 43 41 43 47 51 49 51 53 51 50 48 45
42 41 39 38 39 42 42 44 44 44 45 45 42 41 44 46 47 45 44 43 43 42 42 39 40 39 41 42 43 45 43 42 44 48 51 52 52 54 48 49 57 53 50
43 42 41 42 45 46 46 45 45 45 46 42 41 44 47 49 48 45 43 43 42 39 39 41 39 40 41 43 45 43 42 43 46 49 51 37 37 40 50 55 55 54 58
46 44 46 47 47 47 45 45 45 45 41 42 44 47 49 48 45 45 44 43 40 40 39 38 40 42 44 45 43 41 41 44 45 45 34 40 39 41 39 45 61 56 48
47 49 49 47 46 45 45 46 44 44 44 45 47 50 49 45 45 46 44 40 38 39 41 43 43 44 44 44 42 40 42 40 41 32 37 33 37 39 42 45 50 56 67
51 48 46 45 45 46 45 44 45 45 45 47 49 49 45 45 45 45 43 41 39 41 44 44 45 45 44 42 39 39 35 36 33 31 35 33 40 43 46 47 46 41 41
46 47 47 46 45 44 43 44 46 48 49 50 48 45 45 45 44 43 42 42 42 44 45 45 45 45 42 39 36 35 32 34 32 28 34 37 39 36 32 46 31 25 23
48 47 46 45 44 44 45 47 48 50 50 47 44 44 45 44 42 42 41 42 44 44 44 45 43 42 39 35 33 31 31 31 30 31 36 38 33 32 30 21 19 16 26
46 45 45 45 45 46 47 48 49 51 46 43 42 42 42 41 42 42 42 43 44 45 44 43 42 39 35 32 31 30 30 29 29 29 33 32 27 29 23 13 17 16 17
46 46 47 47 47 47 49 50 49 45 43 42 43 41 39 40 40 41 41 42 42 43 42 40 37 34 30 29 28 29 28 28 28 29 28 28 28 26 21 15 13 15 18
48 48 47 46 47 49 50 48 44 41 41 42 41 40 39 39 38 39 40 41 41 40 37 36 33 28 25 25 29 28 27 28 28 29 30 30 28 23 22 19 18 19 22
52 50 49 48 49 49 46 44 42 40 40 41 40 39 37 37 38 37 37 38 36 34 31 28 25 24 25 27 28 28 29 30 30 30 30 30 29 29 26 20 19 21 22
49 48 49 49 50 45 44 42 40 39 38 39 37 37 36 35 34 33 33 33 29 27 26 25 25 26 27 28 29 30 31 31 32 32 32 32 30 29 29 28 26 23 23
46 47 44 43 43 43 41 39 38 37 37 36 36 35 32 31 31 30 29 28 26 26 26 26 26 27 28 30 31 32 33 33 34 34 33 32 32 31 30 30 31 32 32
40 41 40 42 40 38 38 36 35 36 35 34 33 31 29 30 29 29 28 27 27 27 27 26 26 28 31 33 35 35 36 35 35 36 35 34 34 34 34 35 36 36 36
40 39 39 40 36 34 37 34 32 32 31 29 29 28 28 28 29 29 29 28 29 28 28 28 29 32 35 36 37 36 36 37 37 37 37 37 37 37 37 38 40 40 41
35 30 31 36 35 30 32 31 30 29 27 25 27 26 27 27 28 28 28 29 30 30 31 33 34 36 38 38 38 37 37 37 38 39 40 39 39 39 41 42 43 44 45
40 34 31 28 31 31 30 28 26 25 25 26 24 25 25 27 28 27 27 29 30 32 34 36 38 39 38 38 38 38 38 38 40 40 41 41 42 43 44 46 47 47 48
30 29 28 29 30 28 26 24 24 24 26 25 24 24 26 27 28 29 30 32 33 34 36 36 37 38 40 40 40 40 41 42 42 44 44 44 45 46 48 49 50 51 51

GFSMA_500_spd_057.txt.gz
Wind_Speed
20 19 18 18 18 18 20 20 21 22 24 25 26 28 29 31 33 33 32 32 33 37 39 40 39 36 34 34 33 34 34 33 31 32 32 32 32 32 32 30 30 30 29
22 21 21 20 20 21 22 23 24 25 26 26 28 30 32 33 35 35 34 33 36 39 41 42 41 37 35 34 35 35 36 34 34 33 33 33 32 32 32 31 31 31 32
23 23 23 22 22 24 25 25 26 27 28 28 31 32 33 36 37 38 37 35 39 42 44 44 41 39 37 37 37 35 34 34 34 34 33 33 33 34 35 34 33 33 32
24 25 26 26 26 26 27 28 29 29 30 31 34 35 37 39 40 41 39 37 40 44 45 44 42 40 39 39 39 38 35 33 34 33 34 34 36 37 38 37 37 36 34
28 28 29 29 29 28 29 30 31 32 32 34 36 38 39 41 42 42 39 40 43 45 47 46 42 42 42 42 40 37 36 33 33 35 37 38 39 40 40 41 41 41 39
32 32 33 33 32 32 32 32 33 34 35 36 38 40 41 42 43 41 39 42 46 48 47 45 43 43 43 42 38 37 35 36 37 38 39 40 40 40 42 43 43 43 42
35 35 36 37 37 35 34 35 35 36 38 40 41 42 42 43 42 38 42 46 49 49 46 44 44 44 42 39 38 37 38 40 40 42 42 42 43 44 46 48 47 47 46
38 38 40 39 39 38 36 37 37 40 41 43 43 43 42 43 42 39 44 49 50 50 47 47 46 44 40 38 39 39 40 41 42 43 41 42 44 45 48 44 42 46 50
42 43 43 42 40 40 38 38 42 44 44 44 43 44 46 42 43 45 46 49 48 47 45 46 45 42 40 39 38 40 41 42 42 39 39 42 41 43 35 38 33 37 38
47 46 44 43 42 42 41 42 45 46 46 44 44 44 43 44 47 47 50 50 47 47 47 46 42 40 40 40 42 42 41 42 39 37 40 36 38 34 35 36 39 41 41
49 47 45 44 44 45 43 44 48 46 44 44 45 43 44 45 47 51 52 47 46 48 47 44 43 41 43 43 43 42 42 39 37 36 33 37 33 31 30 39 44 48 46
49 50 48 48 47 46 47 49 46 44 44 43 43 46 46 49 49 51 48 45 45 45 45 43 43 43 44 44 44 43 40 37 35 32 32 33 29 31 34 38 41 47 48
51 51 52 52 51 51 49 46 45 44 42 42 45 46 49 51 53 49 46 46 45 42 43 42 43 44 43 44 44 42 40 36 33 29 31 31 30 34 39 38 42 38 46
47 48 48 48 47 46 46 46 44 42 43 45 47 48 50 51 48 46 46 46 44 42 43 41 44 43 44 43 43 41 38 34 27 28 30 30 29 35 36 35 40 36 30
48 47 46 46 47 47 46 45 42 43 44 47 47 50 52 48 45 45 44 43 44 43 42 42 41 42 42 42 41 37 33 28 25 28 28 28 27 28 30 30 32 31 21
47 47 47 47 47 46 46 45 44 44 45 48 48 51 47 45 45 44 43 43 42 41 40 41 41 40 40 37 35 32 27 25 27 28 28 29 29 29 28 26 26 27 23
47 48 49 49 48 48 47 45 45 46 45 49 50 46 44 44 43 43 43 41 40 40 39 38 38 37 35 33 30 27 24 27 28 28 29 29 30 30 29 27 22 24 24
50 51 52 50 49 48 48 47 46 47 48 49 46 43 43 42 43 43 41 40 39 37 36 36 35 32 29 25 25 25 26 27 28 29 30 30 31 31 30 30 27 22 22
49 48 47 46 46 49 50 50 48 48 48 46 44 41 40 40 41 41 40 38 35 35 34 32 30 27 26 25 25 26 27 28 30 31 32 32 32 31 31 29 29 28 23
52 51 50 49 49 48 49 47 46 45 43 42 40 38 38 39 38 37 37 34 33 33 31 30 29 28 27 26 26 27 29 31 32 33 33 33 33 33 32 31 31 30 30
45 44 43 41 42 43 43 43 42 41 39 38 36 36 36 35 36 33 31 32 31 32 29 28 29 27 27 27 27 29 31 33 34 35 35 34 34 34 34 34 34 34 34
42 42 41 40 40 39 41 41 40 35 35 33 34 33 35 33 32 30 30 31 30 30 30 29 29 28 28 29 31 33 35 36 35 36 34 34 35 35 36 36 36 35 36
45 44 40 36 37 42 41 38 36 38 34 33 32 32 31 29 29 30 28 28 29 28 29 28 27 28 30 32 35 37 37 36 36 35 36 36 36 37 38 38 38 38 39
41 42 48 44 41 38 36 34 33 36 31 31 32 29 28 29 29 30 27 29 29 28 31 29 30 31 33 35 35 35 35 36 37 37 37 38 39 39 40 40 41 42 43
38 37 33 38 40 36 32 30 29 28 30 31 28 27 28 28 29 28 27 29 29 30 31 32 34 35 36 37 37 38 38 39 39 39 39 41 42 43 44 45 46 47 48
35 34 36 34 36 40 32 31 28 29 29 28 28 27 28 28 29 28 28 29 31 32 33 34 36 37 38 38 39 39 40 40 41 41 42 43 44 46 48 49 50 50 50

GFSMA_500_spd_060.txt.gz
Wind_Speed
18 17 16 16 16 16 17 18 18 19 20 21 22 23 24 26 27 29 32 34 35 35 34 35 37 40 40 38 35 33 34 35 35 33 33 32 31 30 30 29 28 28 27
21 19 20 18 18 18 18 19 21 22 22 23 25 25 26 28 30 33 35 36 36 37 36 37 39 42 41 38 35 35 37 37 36 34 33 31 30 30 31 31 31 32 31
23 22 22 21 20 21 21 21 23 24 25 26 27 28 29 31 33 35 37 37 37 37 37 39 41 43 41 39 36 37 38 37 36 34 33 30 31 32 33 34 35 35 33
26 25 23 23 23 23 24 25 25 25 27 28 30 30 31 32 35 36 37 39 40 37 35 41 43 45 43 38 37 38 39 37 33 33 32 34 35 36 36 37 37 36 35
29 28 26 27 27 26 26 27 28 29 28 30 31 31 34 35 38 38 39 41 41 38 40 43 45 45 43 39 38 39 38 36 36 34 34 35 37 39 37 36 37 36 36
32 30 30 30 30 30 30 30 30 30 31 31 30 34 36 37 39 38 39 41 39 40 43 44 46 45 41 40 40 39 36 36 38 37 39 39 39 39 36 36 38 37 37
34 33 32 33 33 33 34 35 33 33 33 33 34 37 37 39 39 38 39 38 40 43 44 47 47 41 40 41 40 37 36 36 36 38 40 40 41 39 37 38 35 37 31
35 34 35 36 36 37 37 38 38 37 35 35 40 39 38 37 39 40 39 39 42 43 46 48 43 41 42 42 40 38 37 37 39 40 39 40 38 37 39 36 32 30 27
39 38 38 40 41 41 41 40 40 39 40 38 41 42 41 40 39 37 39 38 42 45 47 44 42 42 43 42 40 39 39 41 40 39 39 38 37 37 34 33 32 27 26
41 44 45 44 47 47 45 42 42 41 42 41 45 42 42 42 41 38 41 43 44 49 46 44 41 43 42 41 40 40 41 39 39 38 36 35 35 33 32 28 30 31 33
45 46 47 46 47 47 46 45 43 43 43 43 47 42 42 41 40 41 42 44 46 48 45 44 41 42 41 41 40 40 39 38 37 36 34 32 32 29 29 30 29 34 37
48 48 50 51 50 50 51 50 48 48 46 47 41 44 44 42 41 42 43 45 46 45 44 44 41 43 42 39 39 37 38 37 35 33 32 31 27 28 28 29 31 34 33
51 52 50 50 51 51 49 46 45 44 43 42 44 43 42 43 44 44 45 46 44 42 43 42 42 44 42 39 36 35 36 36 34 31 29 25 25 26 27 28 26 27 30
48 50 50 50 49 46 45 44 43 42 43 44 43 42 43 43 46 45 45 45 42 42 43 43 43 43 39 38 36 35 34 32 30 29 24 22 24 25 26 27 26 24 26
49 50 49 48 47 47 45 45 44 44 44 43 43 43 44 45 46 45 45 43 41 40 41 41 40 41 39 35 34 33 30 28 27 24 23 23 24 27 27 27 27 24 24
48 49 49 49 47 45 44 44 44 45 45 44 43 43 44 46 46 45 42 41 41 41 40 38 39 37 34 33 32 30 27 24 24 23 24 23 25 28 29 29 28 27 24
51 49 49 46 45 46 46 45 46 46 47 46 45 44 44 46 47 44 40 39 39 39 37 37 35 33 33 30 29 27 24 22 23 23 23 25 28 29 29 30 30 28 26
52 52 50 48 47 47 45 45 44 45 46 46 47 45 46 45 45 41 38 37 36 36 35 33 32 30 29 29 27 26 25 24 23 23 25 27 28 29 30 30 30 29 27
47 48 49 48 47 48 48 48 47 47 45 45 45 44 43 43 41 37 36 35 34 33 30 31 30 29 29 27 26 26 26 25 24 25 26 28 30 31 31 31 30 30 29
46 49 50 48 47 47 48 45 44 46 44 43 43 43 41 38 36 36 34 33 32 30 29 28 28 28 28 27 27 27 27 25 26 27 28 30 32 31 30 30 31 31 31
43 44 46 47 44 43 42 41 39 37 39 39 40 40 38 35 34 32 32 33 31 30 28 29 28 27 27 27 26 28 29 29 30 32 33 32 33 30 30 30 30 31 32
43 44 44 42 41 41 42 41 42 41 39 39 39 38 34 33 31 31 31 32 30 30 28 28 28 27 27 27 27 30 31 32 33 35 34 32 31 32 32 33 33 33 33
46 46 45 44 46 47 45 41 35 37 39 38 35 34 31 30 30 30 30 29 29 30 28 29 28 28 28 28 31 32 34 34 34 34 34 34 34 34 35 35 35 36 36
45 45 44 42 42 42 42 46 43 37 35 34 32 29 28 29 29 29 28 29 29 30 29 30 29 29 30 31 33 34 36 36 36 37 36 35 35 36 36 37 37 38 39
41 40 41 39 39 37 36 35 37 35 36 32 27 26 30 28 30 28 30 28 29 30 30 29 29 30 31 33 34 35 35 35 35 36 35 36 37 37 37 37 38 40 42
38 37 37 36 36 36 36 35 33 30 28 27 29 26 29 29 28 29 28 27 28 28 30 31 31 32 33 35 35 35 35 35 36 37 38 38 37 37 37 39 41 41 42

GFSMA_500_spd_063.txt.gz
Wind_Speed
21 18 18 17 17 17 17 16 16 17 17 18 18 20 21 22 22 24 27 29 31 32 32 34 33 32 34 37 39 37 35 33 33 35 35 33 31 30 29 28 28 28 27
24 21 19 19 19 19 18 18 17 18 19 20 20 21 22 24 25 26 28 30 31 33 34 36 32 31 35 37 38 36 34 34 36 36 35 32 31 29 29 31 31 31 30
27 25 23 22 21 20 20 20 20 22 22 22 23 24 25 25 26 28 29 32 32 32 34 36 34 35 37 38 38 36 34 34 36 35 35 32 30 30 31 33 32 33 32
28 28 26 25 23 23 24 23 22 23 24 25 26 26 27 27 29 31 32 33 33 33 34 30 33 36 38 39 37 34 35 37 37 36 34 33 33 32 33 33 33 33 31
31 30 29 28 26 25 25 27 27 26 26 27 28 28 29 28 32 34 35 36 36 38 36 34 37 36 40 39 35 34 35 38 38 37 36 34 34 35 35 34 32 31 30
33 33 31 31 30 29 28 28 28 29 30 30 30 31 31 31 37 34 34 35 37 38 37 37 36 38 40 37 36 35 36 36 36 36 34 37 38 37 35 35 34 32 30
34 34 35 34 33 32 31 31 31 32 33 34 33 33 32 34 39 38 36 36 38 37 37 37 37 39 38 38 38 37 38 37 36 34 36 38 38 37 35 34 33 34 29
28 41 35 37 37 35 35 35 36 37 38 38 38 38 36 34 38 38 35 38 39 37 38 38 38 39 38 38 37 38 39 38 36 35 36 35 35 35 34 33 31 28 25
36 29 40 43 38 38 38 39 41 42 43 43 42 42 42 39 38 36 35 37 36 37 38 39 40 39 38 37 38 38 39 38 37 36 35 34 33 33 33 31 28 26 20
37 35 34 35 46 51 48 46 45 45 48 47 44 44 45 44 42 36 37 38 38 38 38 40 40 38 39 38 38 40 38 37 36 36 35 34 32 31 30 30 26 25 23
40 42 41 41 41 45 46 47 47 49 49 49 48 48 45 42 36 36 38 39 39 40 40 42 40 38 38 38 38 38 38 35 35 33 32 33 31 28 27 24 24 21 23
44 44 48 48 48 49 49 50 51 49 49 49 47 44 40 40 37 39 39 39 42 42 40 42 41 39 39 37 38 37 35 34 32 33 31 29 26 25 23 22 20 20 21
51 52 51 50 51 51 52 51 49 48 47 44 41 39 39 40 40 40 39 40 42 42 42 41 41 39 38 38 36 35 33 30 31 30 28 25 23 21 20 20 21 22 21
49 51 52 53 52 51 50 49 48 48 46 44 41 41 41 41 40 41 41 41 42 42 41 40 40 39 37 36 36 33 29 29 30 28 25 22 21 21 19 19 21 23 23
55 53 52 50 50 50 50 49 48 49 47 45 43 42 40 40 41 41 42 43 42 42 40 40 39 39 35 35 33 30 29 28 26 24 22 21 22 20 20 21 22 23 23
56 53 53 53 53 54 50 48 49 47 44 42 42 42 42 42 41 42 42 43 42 42 40 38 39 36 34 33 31 28 25 24 23 20 21 22 22 21 22 23 23 24 25
53 58 61 63 58 57 53 51 47 46 45 43 43 42 43 42 42 42 42 42 44 42 40 37 37 33 31 29 28 26 23 21 21 21 22 23 22 23 25 25 25 26 26
58 63 59 60 66 62 54 53 51 47 44 43 43 42 41 40 41 41 41 42 42 41 38 36 34 30 30 27 25 24 21 22 22 22 24 23 24 24 24 26 28 29 28
37 40 45 45 48 50 53 48 48 48 45 46 48 46 47 43 43 41 42 41 39 38 37 35 32 28 29 26 25 24 23 24 22 23 25 25 25 27 28 30 31 30 28
39 43 43 39 42 43 44 44 44 41 44 44 43 43 41 42 41 41 40 38 36 35 34 33 31 28 29 27 26 25 25 25 25 26 27 29 30 31 32 33 31 29 29
38 37 39 41 44 46 46 45 47 46 46 44 44 43 41 42 41 40 38 35 33 32 31 31 30 27 27 27 26 25 25 26 27 28 30 32 32 33 32 31 31 31 32
39 39 40 41 41 42 41 42 45 46 43 42 43 44 43 43 42 38 36 33 30 32 29 29 28 28 26 27 27 26 26 27 28 30 33 34 32 33 34 34 33 33 33
42 42 41 41 42 45 45 43 44 45 46 46 43 37 37 37 37 35 32 30 30 30 30 29 29 28 27 28 29 29 29 30 31 33 34 35 35 35 35 35 35 35 35
43 42 43 43 43 42 40 39 38 40 42 40 42 39 30 32 32 30 27 28 30 30 27 30 28 27 27 28 30 29 28 29 31 32 33 34 34 35 36 37 37 36 36
38 38 40 42 41 39 38 38 36 37 37 36 37 34 31 32 31 29 31 28 28 27 30 28 28 26 27 28 29 29 30 31 32 33 34 35 34 35 37 37 36 35 35
34 34 33 31 34 35 35 34 39 37 36 36 35 36 30 27 29 28 26 27 28 30 29 27 25 24 26 28 29 30 31 31 33 35 35 36 36 36 36 35 34 35 35

GFSMA_500_spd_066.txt.gz
Wind_Speed
23 21 21 20 18 17 18 18 18 18 17 17 18 19 20 21 23 24 26 27 28 30 31 30 29 30 28 29 33 35 36 35 32 31 32 33 34 32 31 30 28 28 29
24 24 24 23 22 21 20 20 19 18 19 19 20 21 21 23 25 27 27 28 31 33 32 33 35 31 28 32 33 35 36 34 33 32 32 33 34 32 30 30 29 30 31
26 26 27 25 24 23 23 22 21 21 21 21 21 22 24 25 26 28 29 30 33 34 33 31 34 35 33 34 34 36 35 34 34 33 34 34 33 31 31 29 30 31 31
28 28 29 28 27 26 25 25 25 25 24 24 23 23 25 27 28 30 31 32 35 33 32 32 32 33 35 34 36 36 35 35 35 36 36 35 34 31 30 30 30 30 29
29 29 29 30 30 29 29 28 28 28 27 27 27 27 29 30 31 33 33 35 35 35 33 34 33 34 34 35 35 36 35 35 36 37 37 35 35 32 32 31 29 29 28
31 30 31 31 31 31 32 32 31 31 31 30 29 31 32 34 34 37 36 38 39 37 35 36 36 36 36 36 36 36 36 36 36 37 37 34 33 33 32 31 30 29 29
32 34 33 32 31 33 33 34 33 34 33 34 33 35 35 38 39 40 41 41 41 39 34 36 36 37 37 38 37 36 37 37 37 37 36 34 33 31 30 32 31 29 28
35 36 30 26 28 37 36 36 36 35 34 36 37 37 37 38 42 42 41 43 44 40 35 37 36 37 38 38 37 36 37 38 38 37 36 35 32 32 31 31 31 30 27
38 39 38 36 36 30 37 41 41 37 39 42 44 46 45 46 45 43 42 43 43 38 36 36 37 39 38 37 37 37 37 38 38 37 36 34 31 31 30 30 29 28 25
44 42 40 38 36 34 35 35 36 41 44 47 48 49 49 52 51 48 47 41 39 35 36 36 36 39 39 38 38 38 38 40 38 37 36 34 31 30 30 29 26 23 22
46 39 37 38 38 40 40 40 41 44 47 48 48 49 50 50 51 49 43 40 39 37 37 36 36 38 39 39 37 38 39 39 36 36 33 31 30 30 28 25 21 18 19
40 40 41 42 43 45 47 47 49 52 52 49 49 49 47 45 45 43 40 39 40 39 40 39 37 38 38 38 38 38 39 36 36 35 31 30 29 28 23 19 18 17 17
42 46 50 51 50 49 52 50 50 48 50 48 48 46 45 44 42 41 41 41 40 39 39 41 40 38 38 38 38 38 38 35 35 31 31 30 27 22 19 17 18 16 18
54 53 55 54 55 53 55 49 51 47 47 48 48 48 45 46 45 42 41 41 40 40 40 38 38 39 40 39 38 38 37 34 31 28 29 25 22 19 18 19 18 18 19
51 50 50 52 52 59 56 55 53 51 49 49 49 47 47 46 45 43 42 42 42 40 40 39 39 40 39 39 39 38 34 31 30 27 26 20 19 19 19 18 18 19 20
55 59 59 58 55 53 55 55 53 54 53 52 52 51 49 46 44 43 44 44 42 42 41 41 42 41 40 38 38 36 34 29 28 28 23 21 20 21 19 19 19 21 21
57 58 56 55 58 60 61 60 59 60 58 58 56 54 53 50 46 44 42 43 42 43 44 44 46 43 39 39 37 35 32 29 28 26 23 22 22 22 22 22 22 21 22
59 59 57 55 54 59 62 64 66 63 61 58 63 55 53 53 48 46 45 46 44 44 46 47 46 43 40 38 36 33 30 28 28 26 23 23 24 23 24 25 25 25 26
49 49 47 48 47 46 46 49 52 56 54 54 52 51 49 49 47 47 46 46 44 44 44 43 42 40 38 36 32 31 29 29 28 26 24 24 25 25 26 27 29 30 30
47 46 45 44 46 49 50 47 46 43 42 41 44 43 43 45 46 47 47 45 44 43 43 40 38 37 37 35 32 31 30 30 27 26 25 25 26 27 29 30 31 31 29
46 46 45 45 44 44 46 46 45 44 43 45 48 49 47 49 49 47 47 47 43 42 40 38 35 35 33 32 32 31 31 29 25 26 25 26 27 29 30 31 31 31 31
46 48 47 48 48 46 45 44 45 47 47 47 45 45 46 46 46 43 44 45 43 39 35 34 33 30 32 32 30 30 30 28 26 27 28 29 30 31 31 32 34 34 33
48 48 48 48 47 46 46 47 47 47 46 45 45 44 45 46 45 45 39 37 35 33 33 30 29 29 32 29 31 30 29 29 28 28 29 30 30 30 30 32 33 33 34
40 41 42 42 43 43 44 44 45 46 44 41 40 39 38 39 41 38 37 30 31 32 30 30 31 29 28 31 30 29 29 29 29 29 30 31 30 31 32 33 33 34 34
38 39 38 38 39 41 41 40 41 41 41 40 40 39 39 39 36 36 33 29 30 28 31 30 27 29 29 30 29 28 28 27 28 29 30 31 32 33 33 33 33 34 34
38 37 37 37 38 38 38 37 37 37 35 36 38 40 38 36 33 35 37 30 26 28 26 28 29 27 29 29 29 27 25 26 29 31 31 32 33 33 32 31 31 31 32

GFSMA_500_spd_069.txt.gz
Wind_Speed
22 22 23 23 22 22 21 21 20 19 18 18 18 19 21 21 21 23 24 25 26 27 30 32 32 30 32 32 32 34 34 34 33 31 32 31 32 34 34 33 30 28 27
23 24 25 25 25 25 24 23 22 22 21 21 21 22 22 22 24 25 27 27 30 32 33 35 35 35 34 35 35 36 35 35 34 32 32 32 33 35 34 32 30 27 26
24 25 26 28 27 27 27 26 25 24 23 24 23 23 25 24 25 27 29 30 32 34 36 36 34 36 36 36 35 35 36 36 35 34 34 34 35 37 35 31 28 29 27
23 25 27 30 29 29 29 28 26 25 25 26 26 26 27 27 27 30 31 31 34 36 39 39 38 37 36 36 36 36 37 36 35 35 35 36 37 39 37 32 30 28 27
24 24 28 30 31 31 30 29 29 29 28 28 29 29 30 30 30 33 34 34 36 39 40 41 39 39 37 37 36 36 37 36 34 34 35 37 38 39 38 36 32 28 25
25 27 28 30 31 33 32 32 32 32 31 31 32 33 32 32 33 35 37 37 39 40 41 42 42 41 38 37 37 37 37 36 35 35 36 37 40 38 39 36 33 30 27
29 29 30 32 32 34 35 35 35 35 34 35 34 34 33 34 34 34 38 42 44 44 44 44 42 41 40 38 38 38 36 35 35 35 36 37 39 37 36 36 33 31 27
34 33 33 34 34 32 32 33 36 39 37 38 39 38 34 36 40 43 42 44 46 49 49 47 44 39 40 38 39 38 36 35 35 36 35 37 36 35 35 34 31 31 31
39 37 37 34 37 38 40 40 38 33 35 40 43 45 45 44 45 46 47 47 49 49 48 44 40 38 40 38 38 36 36 35 35 36 36 37 36 35 33 32 30 30 30
46 44 41 40 42 42 43 42 40 37 34 35 37 41 43 45 47 47 48 47 45 44 42 39 38 37 38 37 37 37 36 36 36 36 37 35 35 34 31 29 29 28 25
35 39 38 40 45 41 38 38 39 38 44 51 48 47 48 52 53 56 48 44 44 42 40 36 37 38 37 36 38 37 36 36 36 37 36 35 33 32 30 29 27 22 18
43 44 40 41 37 36 39 39 40 45 47 49 48 51 51 49 48 47 45 43 43 43 42 40 38 38 39 37 37 37 38 38 37 36 36 34 33 30 29 26 23 18 15
43 38 42 40 40 40 42 45 48 49 50 49 53 53 49 47 46 45 46 46 46 45 45 43 38 37 39 40 39 37 40 39 38 38 36 33 31 29 26 23 19 17 15
44 49 47 41 40 46 49 52 53 53 53 51 50 49 50 50 47 45 46 47 48 46 45 43 41 40 39 41 41 39 41 41 40 38 37 33 31 28 24 21 19 16 17
45 48 49 50 52 54 52 50 51 52 51 53 55 54 54 55 54 49 48 50 50 48 45 43 42 42 42 42 43 42 41 41 40 38 35 31 31 27 22 21 20 17 17
52 53 55 53 52 54 55 55 54 54 53 53 56 57 56 56 56 54 53 53 53 51 48 45 44 44 45 44 44 43 40 40 39 36 33 31 30 26 23 21 20 19 17
47 49 48 51 54 55 56 58 57 57 55 57 57 56 58 61 60 58 60 58 56 50 48 45 43 43 44 45 45 42 39 37 36 32 31 31 27 26 25 23 21 21 20
48 50 52 53 55 56 56 56 55 55 55 53 54 55 52 57 59 62 56 59 59 49 49 48 47 45 42 46 46 42 37 35 34 31 30 31 28 26 26 25 23 23 22
47 49 51 52 52 52 52 53 50 50 51 52 50 50 49 45 46 48 51 52 50 45 45 45 43 42 43 45 43 38 35 33 32 31 31 31 30 28 27 26 25 25 26
46 47 48 49 50 50 49 48 47 47 47 47 48 48 49 45 43 44 45 44 45 47 46 44 46 43 42 42 38 33 32 32 31 32 31 29 29 29 27 27 26 28 28
43 43 41 41 42 43 45 46 47 48 49 49 48 47 45 46 46 44 45 47 47 48 46 43 42 42 39 35 33 32 29 29 33 32 31 28 27 28 27 29 28 29 29
46 44 44 45 45 46 47 49 51 50 50 50 49 48 47 47 47 48 46 45 44 44 44 41 39 34 34 31 31 28 29 30 31 33 31 29 29 30 28 28 28 30 30
50 52 53 54 56 55 54 52 51 50 49 49 50 49 49 47 45 43 42 42 42 41 40 37 34 32 29 28 28 32 29 29 31 32 31 31 30 29 28 29 29 29 30
51 51 51 48 46 45 45 45 43 43 44 45 45 46 46 45 42 42 41 39 39 38 36 33 32 29 28 30 32 27 29 30 31 29 28 28 28 28 29 29 30 32 33
43 42 41 40 39 40 41 42 41 42 42 43 43 42 41 41 40 39 39 40 42 37 35 34 28 28 29 30 26 31 28 30 29 28 27 27 27 28 30 31 33 33 33
39 39 41 41 40 39 39 40 40 40 38 39 38 39 38 35 35 36 37 36 37 37 37 29 29 30 28 28 30 28 30 30 29 29 26 25 27 29 31 32 33 33 32

GFSMA_500_spd_072.txt.gz
Wind_Speed
24 24 24 24 23 23 22 22 22 22 22 21 20 21 21 22 23 23 22 22 23 25 28 28 30 33 35 35 35 36 35 35 34 33 33 31 30 30 31 34 36 35 31
26 25 24 24 24 24 25 24 24 24 25 24 23 23 24 25 25 25 26 26 27 28 29 31 32 35 37 37 37 37 37 37 36 35 33 31 30 30 31 34 35 35 32
27 26 27 26 26 26 27 26 26 26 26 27 26 27 27 27 27 27 28 28 29 30 31 34 35 37 38 38 37 36 36 37 36 36 34 32 31 32 32 35 35 33 31
28 27 27 26 27 28 28 28 28 29 29 29 30 29 29 29 29 30 31 30 30 31 32 34 37 39 39 39 39 37 36 37 36 36 32 31 30 32 32 34 34 32 29
27 24 26 26 27 28 29 30 29 30 30 31 31 31 31 32 32 32 33 33 32 32 33 37 39 41 42 42 43 40 38 37 37 36 33 31 33 34 33 34 34 32 28
26 25 28 28 27 27 30 30 31 31 32 33 34 34 34 35 35 33 34 36 37 36 38 41 43 45 46 46 44 39 38 37 36 35 33 32 33 34 34 35 35 32 29
29 28 30 30 29 30 33 32 33 34 35 37 37 37 36 36 37 36 35 37 40 44 49 50 49 47 45 44 42 39 35 35 36 34 37 34 34 34 35 34 32 32 26
31 32 33 34 32 34 36 37 36 35 35 34 35 37 38 37 38 38 41 43 44 44 45 45 47 45 42 40 39 40 38 34 35 33 35 34 33 34 34 33 30 27 26
39 34 34 35 35 36 38 39 40 36 35 37 40 41 39 37 38 38 39 41 43 46 47 47 44 41 38 37 40 43 35 33 34 34 33 33 35 36 35 33 29 27 25
33 38 42 42 46 47 41 33 39 38 38 39 42 45 45 43 40 43 48 46 47 46 42 41 39 39 38 38 40 41 37 34 33 35 35 34 33 35 36 33 29 28 25
33 32 29 26 29 36 35 34 36 40 37 38 42 43 47 51 52 48 47 49 47 44 41 40 38 37 38 39 41 41 38 33 34 36 36 36 34 34 35 32 30 28 23
29 28 32 35 36 40 37 42 35 33 39 38 36 41 44 47 50 51 50 47 44 43 41 41 40 39 40 40 39 40 39 38 36 35 35 37 35 33 32 31 29 25 21
38 36 39 41 40 44 41 40 39 38 41 41 43 46 48 51 51 53 49 47 48 47 45 44 42 41 41 42 40 41 41 39 39 37 34 34 35 33 31 30 27 22 20
44 43 42 45 44 47 49 44 40 44 44 46 50 49 49 51 50 48 52 51 51 52 51 47 46 44 43 43 44 43 43 41 40 38 36 33 33 32 30 28 25 22 20
41 45 41 44 40 44 44 45 46 49 52 53 50 50 51 51 50 50 50 55 56 53 52 50 51 51 48 46 46 46 44 42 41 38 35 33 33 30 27 27 23 22 20
49 49 52 52 55 56 55 54 54 50 50 52 52 50 52 52 51 51 52 54 55 55 56 55 55 54 51 47 44 41 41 40 39 38 37 33 32 29 27 26 25 22 20
46 50 52 53 50 50 48 49 50 51 53 53 53 52 53 55 54 50 49 50 52 55 56 52 54 52 54 53 44 45 44 41 39 36 32 31 29 27 26 25 26 24 23
47 48 50 50 49 49 49 50 50 50 51 51 51 51 50 50 47 49 49 48 49 48 48 50 50 50 47 43 42 42 43 37 35 36 31 30 27 27 26 25 26 25 25
48 49 50 50 49 49 48 48 48 49 48 47 47 46 46 46 46 46 46 46 45 45 45 41 38 36 38 39 38 37 38 37 34 32 29 28 27 27 26 27 27 26 26
39 40 41 42 42 43 44 44 44 44 44 45 44 45 44 44 46 46 45 45 46 44 42 42 44 41 39 42 40 37 36 33 31 29 28 28 26 28 28 27 27 26 27
36 37 38 39 39 40 40 40 40 41 42 44 44 47 49 49 49 49 47 45 43 43 42 41 40 38 37 37 36 35 34 29 29 29 27 26 27 27 28 29 27 26 27
43 43 44 44 44 45 45 46 47 49 51 53 54 53 53 52 51 48 48 48 47 44 42 41 40 40 38 36 34 32 30 28 28 26 30 26 26 28 28 27 27 27 28
45 46 48 49 50 50 51 53 54 52 48 46 46 46 45 45 45 45 45 45 44 41 39 37 36 35 33 34 31 30 28 27 27 28 27 27 27 28 29 28 27 26 27
51 52 52 52 53 53 50 47 46 42 42 43 43 43 43 43 42 41 41 40 39 36 34 35 36 36 36 34 30 27 28 29 32 27 28 27 27 27 26 25 25 26 26
50 48 48 47 47 47 45 41 39 40 42 42 41 43 41 39 36 35 36 35 33 33 33 35 34 37 33 35 29 28 28 29 29 30 26 26 26 25 26 25 25 25 27
49 48 45 43 43 43 39 39 39 41 40 40 40 38 32 32 31 33 31 28 28 30 31 30 33 33 33 26 25 31 29 28 29 29 26 26 27 28 26 24 25 26 28

GFSMA_500_spd_075.txt.gz
Wind_Speed
30 29 28 27 26 26 24 24 24 23 23 22 21 21 21 21 23 23 24 24 24 25 26 27 27 27 29 30 33 34 36 35 35 35 35 33 33 30 28 29 30 30 31
32 31 30 29 27 26 26 27 26 26 26 25 24 23 24 24 25 26 27 26 27 28 28 28 28 28 29 30 34 36 36 38 40 37 36 35 33 31 29 30 31 31 31
35 34 32 31 29 28 28 27 28 28 28 28 27 27 27 27 28 29 30 28 28 30 30 30 30 28 31 33 35 37 37 39 39 38 37 35 32 29 30 32 31 31 30
39 37 35 34 31 31 30 31 30 29 29 30 30 29 31 30 31 31 31 31 32 32 32 32 32 33 36 38 41 42 41 39 37 37 36 32 29 26 33 32 31 30 30
40 39 37 35 35 33 33 31 31 31 31 31 32 32 33 34 34 33 33 34 35 34 34 34 35 38 43 45 44 41 41 38 36 35 34 30 28 30 33 32 31 31 30
35 43 40 37 35 33 30 31 30 32 34 33 32 34 34 35 36 36 37 36 37 37 37 38 39 42 43 43 43 43 39 35 35 35 33 31 28 32 30 31 32 31 31
39 36 35 35 34 32 32 31 31 33 36 34 34 34 34 36 38 38 40 39 39 38 40 41 42 44 44 47 44 39 36 35 36 38 32 30 31 30 30 29 30 32 32
35 38 37 36 36 36 34 33 35 36 38 39 36 34 34 36 36 37 38 39 40 41 40 40 46 47 45 41 38 37 36 36 37 37 34 32 31 31 31 30 28 29 30
35 37 38 37 38 37 35 35 39 38 40 41 41 37 35 37 41 41 41 39 38 38 43 52 47 45 42 39 37 36 36 37 38 36 33 33 33 32 30 30 28 27 28
42 42 39 39 39 38 39 40 37 38 33 32 39 38 39 42 44 41 42 44 43 48 50 47 47 41 42 41 39 37 37 37 38 38 33 33 33 33 30 29 28 27 28
43 38 36 36 33 32 34 34 36 39 42 35 35 36 41 42 42 36 33 38 39 41 43 45 42 40 41 42 39 38 37 37 37 38 37 36 35 33 30 30 28 26 25
31 32 34 37 34 34 36 36 36 38 36 37 36 38 38 41 40 38 39 43 44 44 43 44 44 44 44 44 44 43 40 38 37 39 38 38 38 35 30 29 27 26 24
32 37 34 34 31 33 36 40 39 42 46 40 39 41 44 43 40 42 44 45 51 49 48 45 44 44 46 48 48 45 42 41 41 40 39 39 37 34 30 28 28 25 23
37 38 39 34 36 40 40 48 48 33 40 44 36 39 43 46 43 46 49 51 50 49 50 50 48 49 51 50 50 49 48 46 44 42 42 39 40 33 29 28 26 25 22
43 45 42 33 36 40 37 38 38 36 41 46 46 46 45 46 47 48 49 51 48 49 49 48 48 48 51 54 53 51 51 48 46 41 39 37 31 30 29 26 25 24 22
44 45 49 48 50 49 48 50 51 52 55 51 56 47 46 47 49 48 48 48 50 52 49 48 49 48 48 50 52 53 52 50 51 47 37 34 33 33 27 26 24 23 22
41 41 41 43 48 54 55 53 51 51 51 51 48 47 48 47 48 47 47 48 49 50 50 48 48 49 48 48 47 47 47 46 44 42 38 41 30 27 27 26 24 24 22
40 42 43 44 45 45 47 49 49 48 49 47 48 45 45 47 47 46 47 47 47 48 46 44 42 42 44 46 44 37 35 33 31 30 31 31 27 24 24 26 23 23 23
46 47 47 47 46 46 46 46 47 46 45 44 43 43 44 44 44 44 41 41 41 43 44 43 42 41 41 43 43 37 34 33 35 32 30 31 27 27 25 24 23 24 26
39 40 41 42 41 39 38 38 38 38 39 39 40 40 40 41 41 42 43 47 49 50 49 45 43 41 40 39 37 33 30 30 32 30 28 27 28 25 24 24 25 26 27
37 36 36 36 36 36 36 38 38 40 39 40 42 43 45 46 47 49 52 52 51 49 47 45 43 43 41 40 39 35 34 33 33 29 30 25 27 26 24 24 24 25 27
41 41 40 41 41 41 41 41 42 44 45 47 47 48 46 45 46 45 43 42 42 42 42 41 40 39 38 35 35 34 34 33 32 29 28 26 24 26 28 26 26 25 26
47 47 45 44 43 43 43 44 46 47 48 49 48 45 43 43 43 42 42 41 41 41 39 38 36 34 32 30 31 31 32 32 31 28 25 25 28 29 26 23 24 26 27
49 48 47 47 48 48 48 48 48 48 47 46 43 41 41 40 40 39 39 39 37 36 36 35 31 30 30 29 30 29 34 36 27 24 27 27 30 28 25 24 25 26 26
50 50 50 50 50 51 51 50 48 46 41 39 38 39 40 40 38 37 35 32 32 32 30 28 28 28 30 30 29 34 30 32 25 32 30 30 27 26 23 23 24 25 25
54 53 53 54 55 54 51 48 46 44 39 38 37 38 38 37 36 33 29 29 29 26 24 26 25 24 26 27 30 34 33 34 29 26 31 27 28 24 23 24 27 29 29

GFSMA_500_spd_078.txt.gz
Wind_Speed
37 36 34 33 32 30 29 27 26 25 25 24 24 24 24 23 23 24 25 25 26 27 26 27 28 27 28 28 28 31 34 37 40 39 38 36 34 33 31 28 27 28 28
39 38 35 37 35 32 31 30 30 28 28 27 27 27 27 26 26 27 27 27 28 28 29 29 29 28 29 30 31 35 40 43 42 38 40 37 34 33 29 27 28 30 30
40 37 40 39 36 35 33 32 32 31 30 30 30 29 30 30 30 30 31 30 31 31 31 31 32 31 31 31 33 36 39 37 38 41 40 36 33 30 28 25 28 31 29
43 42 43 40 38 36 35 34 33 32 33 32 31 32 33 32 32 33 33 33 33 32 33 33 34 34 34 34 36 38 40 39 40 41 35 33 33 31 27 27 29 29 28
46 44 42 42 40 38 38 37 35 35 35 35 34 34 35 34 34 36 36 36 34 34 35 34 36 37 37 37 39 41 42 41 37 33 33 31 32 31 30 28 31 29 28
47 45 44 42 39 38 40 41 39 38 36 37 37 36 35 35 36 37 37 38 36 36 36 37 39 39 40 41 39 49 43 37 33 34 33 32 33 32 32 30 31 30 30
49 44 39 39 44 46 41 44 41 37 37 37 37 37 36 35 37 37 39 39 38 36 35 35 37 39 39 41 48 46 41 37 34 33 35 34 35 34 34 32 30 30 29
50 49 45 37 41 45 46 44 40 40 40 36 39 38 37 38 40 40 40 40 38 37 36 35 36 40 42 46 47 44 41 38 38 36 37 37 37 35 34 33 32 31 29
46 42 37 40 42 44 45 46 43 41 39 33 34 40 43 44 42 43 41 42 42 41 40 38 41 44 48 49 46 41 39 38 39 38 37 38 37 35 34 33 32 31 29
56 44 42 41 42 43 40 43 43 43 42 38 33 38 36 37 40 40 41 44 43 44 42 40 41 43 44 43 42 42 43 41 39 40 38 39 38 36 36 34 33 31 30
57 56 44 46 39 37 38 41 40 37 37 37 37 40 40 39 40 40 42 44 43 39 38 40 40 42 45 45 46 47 46 45 43 43 41 39 40 38 38 36 35 32 29
37 38 45 51 41 39 40 43 38 36 42 38 39 41 40 39 41 42 43 42 40 39 39 41 43 47 46 47 49 47 45 45 44 45 42 40 41 40 40 37 36 33 31
25 30 31 30 33 33 35 32 34 34 36 43 40 42 47 46 44 46 46 45 41 39 39 44 48 50 49 49 50 50 50 50 48 48 48 45 45 43 42 40 38 35 29
30 32 31 31 31 35 38 37 37 41 39 44 49 40 32 36 36 40 44 46 47 49 49 47 50 50 51 51 49 50 48 50 50 50 51 49 47 46 43 41 43 31 30
34 35 37 37 37 39 43 41 42 42 38 34 39 39 38 43 44 45 44 43 45 46 46 46 49 49 50 51 52 52 54 52 51 50 47 47 44 45 48 43 36 33 30
29 30 34 38 42 44 47 51 50 47 49 51 49 50 53 51 45 44 44 43 45 44 46 48 49 52 52 51 53 54 51 50 50 47 45 45 46 42 42 41 34 33 29
33 35 36 38 40 42 43 45 52 53 53 55 60 57 47 45 45 45 46 47 47 48 48 47 49 50 49 47 47 45 45 45 41 43 42 36 33 31 36 35 29 27 30
39 39 39 40 42 43 44 43 45 48 51 51 51 47 44 44 43 43 43 43 44 45 44 41 40 40 41 42 42 43 41 39 38 39 38 35 31 30 27 29 31 32 31
41 41 40 43 45 47 46 46 45 45 45 44 42 42 40 38 38 38 39 39 40 42 43 44 45 47 49 47 47 45 42 39 36 33 34 33 32 33 32 29 24 22 27
44 43 43 44 43 41 40 39 38 37 35 35 34 33 35 37 37 39 41 42 45 47 48 49 50 51 50 48 47 44 41 41 40 36 32 32 33 31 28 24 24 25 25
46 46 44 43 41 39 37 37 37 37 37 37 37 38 40 41 44 45 47 47 47 48 49 48 46 44 43 42 42 41 39 39 39 37 36 36 34 31 31 26 28 28 28
49 48 48 45 43 41 40 41 42 43 43 42 41 41 43 45 46 47 47 48 50 47 45 44 43 43 44 43 40 38 36 35 33 33 34 35 33 31 24 27 26 30 27
51 51 50 49 47 44 43 44 45 45 44 43 45 46 47 46 45 44 43 43 42 43 41 40 42 41 40 39 37 35 33 31 31 32 31 35 31 29 24 26 28 29 28
54 52 52 53 51 48 47 47 46 47 47 47 47 44 44 43 40 38 37 39 39 39 39 37 36 37 37 33 34 32 32 31 32 34 33 36 31 25 29 30 31 30 23
53 53 52 52 51 49 46 48 49 49 48 47 46 44 44 40 37 36 35 34 34 36 34 34 34 32 28 27 28 30 32 32 31 34 31 29 26 33 29 29 28 25 26
54 51 54 55 52 51 48 46 46 46 48 48 48 45 43 38 36 36 37 35 34 34 34 34 32 30 29 27 27 28 30 28 31 34 31 30 34 26 26 24 25 25 25

GFSMA_500_spd_081.txt.gz
Wind_Speed
40 38 37 36 34 33 31 30 29 28 26 26 25 25 25 24 25 25 26 26 26 27 27 27 27 28 29 28 29 29 29 32 35 40 36 36 38 34 32 29 27 26 25
43 41 41 39 36 35 33 30 35 32 30 29 28 28 28 29 28 29 29 29 29 28 29 29 30 30 31 31 30 31 32 33 36 40 38 38 36 32 31 30 27 27 27
45 44 44 40 38 37 31 40 37 35 33 31 31 30 31 32 32 32 32 32 32 32 32 32 32 33 32 33 32 33 34 36 37 42 40 37 32 30 29 30 28 27 29
47 46 44 41 40 36 41 41 38 37 35 33 33 33 34 36 35 37 35 35 35 34 34 34 34 35 34 34 34 36 35 38 40 45 38 35 32 32 31 30 29 28 30
51 50 46 46 43 44 42 41 40 39 37 35 35 35 37 39 38 39 38 38 37 37 36 34 35 35 36 36 36 36 37 38 41 40 38 35 34 33 33 33 31 31 30
55 53 50 47 44 45 42 42 41 40 40 36 39 39 40 42 41 41 41 40 39 38 37 36 35 37 36 34 36 38 38 39 41 41 36 35 35 35 34 35 33 32 31
57 53 51 48 49 46 47 44 45 44 41 44 43 40 42 42 42 42 41 39 40 39 39 38 37 34 36 35 36 39 43 44 42 40 36 35 35 36 36 35 34 33 32
60 57 49 51 47 38 40 41 43 47 47 46 47 44 41 44 41 44 42 41 42 42 41 40 38 40 38 38 38 37 38 41 40 39 39 40 39 38 38 38 36 35 33
62 63 56 51 50 47 37 42 42 39 44 47 44 42 43 44 40 39 44 43 43 42 40 42 41 40 39 38 37 37 39 40 40 41 42 43 43 42 40 37 36 35 35
59 54 51 52 54 46 41 43 30 40 44 39 44 44 42 38 38 35 38 37 38 42 39 42 42 43 41 40 41 39 43 43 44 44 47 47 46 44 41 39 36 35 34
52 45 44 48 51 51 42 43 41 45 44 43 46 44 41 39 38 38 42 41 40 45 42 41 44 43 44 43 44 45 44 46 45 47 47 47 46 45 44 43 39 37 36
62 58 46 47 52 58 50 48 39 44 45 44 45 49 44 40 40 44 42 41 44 41 41 46 47 48 48 45 45 46 46 48 49 48 49 49 48 48 47 45 46 43 40
29 28 39 40 40 46 48 46 50 50 48 47 44 38 42 44 42 43 45 45 45 46 46 38 41 44 47 50 50 50 50 50 53 52 50 48 48 48 49 46 47 46 46
20 20 25 27 20 20 30 30 33 33 36 38 37 37 36 44 46 40 37 36 38 38 39 42 39 43 43 43 45 48 49 52 53 54 52 52 54 51 49 48 45 43 45
26 25 24 27 27 27 28 27 29 31 31 31 41 41 40 37 39 40 40 41 42 44 45 41 39 44 44 47 49 51 53 56 57 54 54 52 52 49 47 48 47 42 43
29 31 27 27 26 26 26 28 28 32 35 38 41 44 53 49 45 47 48 57 58 52 46 42 42 45 49 50 49 51 51 50 46 44 43 43 41 39 39 42 42 42 44
32 30 31 30 30 31 33 34 35 38 42 43 46 46 48 48 49 48 43 40 39 41 39 40 42 44 43 42 42 43 43 43 44 44 45 44 41 37 36 36 38 32 36
38 38 37 36 36 37 37 37 38 40 41 43 43 44 44 46 47 43 41 39 36 36 36 35 36 38 39 41 44 47 49 51 51 51 48 41 36 34 35 33 34 35 31
41 42 42 41 42 40 42 39 40 42 43 45 44 41 40 41 40 38 36 35 35 36 37 39 41 43 44 46 48 49 50 50 49 48 43 41 38 36 34 33 34 35 32
47 47 47 47 45 44 43 43 44 44 45 43 41 41 36 34 33 34 35 37 38 40 42 44 45 46 48 50 49 48 46 44 43 43 42 41 39 36 36 35 37 36 29
53 53 52 52 51 48 47 46 47 48 46 44 40 38 37 37 37 38 39 39 41 43 46 46 48 49 49 49 48 44 43 46 46 43 42 37 36 35 35 35 38 34 25
58 58 57 56 53 52 51 50 50 51 49 46 43 42 40 41 40 40 40 42 44 45 44 45 45 44 45 43 43 45 44 42 41 40 38 35 33 32 32 32 33 32 24
64 63 61 61 61 57 53 52 51 52 52 50 48 47 44 42 43 42 43 44 43 42 41 41 39 40 44 40 40 38 40 41 35 36 33 31 30 31 30 32 28 26 27
60 60 60 58 55 54 56 57 55 54 54 53 52 51 49 45 45 45 44 45 40 39 35 35 35 36 40 37 35 37 35 32 31 32 30 30 31 31 33 28 32 25 27
61 59 57 54 55 54 53 56 56 57 55 54 54 53 50 49 46 43 43 42 40 38 35 33 36 35 35 37 38 35 34 31 30 30 31 30 29 28 30 32 27 26 22
59 59 58 57 56 56 55 54 52 54 54 54 54 53 50 47 44 42 40 40 41 39 36 35 36 36 35 37 35 34 32 32 33 32 31 30 29 30 29 26 20 21 22

GFSMA_500_spd_084.txt.gz
Wind_Speed
43 43 39 38 37 35 35 33 31 29 27 25 26 27 26 25 24 24 26 26 27 28 28 29 28 28 29 28 29 29 30 31 31 31 35 37 38 37 35 31 31 32 31
47 43 42 39 37 38 38 35 33 32 27 26 32 31 29 27 27 28 27 30 30 31 30 31 32 31 31 32 32 32 31 31 33 33 36 40 42 36 32 31 32 32 30
46 44 42 41 42 41 40 37 35 33 29 30 37 34 32 31 31 31 30 31 33 33 34 34 35 34 34 33 33 33 33 34 35 35 37 37 39 35 31 31 32 32 32
51 48 47 45 45 43 41 39 37 34 35 38 37 36 36 35 34 33 33 35 35 35 36 38 37 37 36 35 34 34 35 36 36 37 38 40 39 34 32 31 32 33 34
54 52 50 49 47 45 44 43 38 39 45 38 39 38 37 37 37 36 38 38 38 38 37 37 39 39 38 37 35 35 35 37 38 39 40 38 37 36 34 35 34 34 32
55 54 52 50 49 48 47 45 43 44 44 39 39 39 37 39 40 40 41 42 39 39 38 38 36 39 39 38 36 35 37 38 40 39 36 36 37 36 38 39 36 35 34
55 54 53 52 52 54 51 48 46 50 44 40 42 40 42 42 44 46 45 43 40 41 40 39 37 38 41 40 37 37 38 38 35 35 37 37 38 37 41 40 39 37 36
53 51 53 55 55 51 56 58 51 49 45 48 42 42 44 47 45 45 48 44 43 43 42 41 44 42 42 42 40 38 39 36 37 38 40 42 43 41 42 44 42 39 38
57 57 59 62 60 53 43 45 47 36 35 36 38 37 42 43 47 44 43 44 42 39 38 39 41 38 37 37 38 40 40 40 41 42 41 43 43 42 42 43 43 42 41
45 52 54 58 56 52 56 52 38 38 39 42 37 44 42 42 41 39 43 42 39 38 39 38 39 38 43 40 40 43 43 44 45 45 42 41 45 46 46 44 45 43 40
52 50 48 55 58 47 56 57 55 50 45 48 42 45 43 47 53 49 44 43 41 43 42 41 43 43 45 43 43 44 46 47 47 45 45 44 48 47 49 48 46 45 44
48 55 56 56 48 50 50 44 47 48 50 41 33 38 37 44 48 51 45 43 38 42 43 44 43 44 44 44 43 42 43 45 46 49 49 47 48 50 51 51 49 47 46
53 57 66 69 60 60 50 51 48 54 55 43 46 43 42 40 40 39 44 46 43 43 43 40 41 44 46 44 41 44 46 47 48 49 48 49 51 54 53 51 50 48 44
30 25 32 40 34 43 32 21 34 46 43 44 50 44 44 44 44 44 46 46 44 37 39 41 35 39 42 43 46 47 47 46 47 48 51 54 54 50 43 40 40 39 39
17 16 18 23 24 26 24 22 23 23 28 26 27 28 26 29 28 28 33 42 39 40 42 41 42 44 46 42 40 41 44 45 47 50 51 48 43 42 39 39 40 38 35
24 24 23 28 25 25 23 20 22 21 21 21 25 26 28 30 31 34 38 38 41 39 41 46 43 41 38 38 38 39 40 43 44 44 45 46 46 45 46 44 41 40 36
24 26 24 27 26 26 27 25 26 28 30 28 29 32 32 33 35 37 38 41 42 41 39 38 31 31 30 32 33 35 38 40 43 45 46 47 47 48 46 42 40 37 34
30 31 31 30 32 31 31 32 33 34 35 34 36 33 34 37 41 42 42 43 42 39 37 31 26 26 29 32 36 39 42 45 48 49 48 47 44 41 38 38 36 35 34
33 33 36 37 38 40 43 42 41 41 41 41 39 40 41 41 43 43 42 40 38 33 29 29 29 31 33 36 39 42 46 50 50 48 44 43 41 41 38 37 36 34 34
40 39 40 41 41 43 45 45 45 44 44 44 45 45 45 46 44 42 41 39 36 34 33 33 33 33 36 40 41 43 46 47 45 43 42 42 43 42 39 37 35 31 32
49 48 48 49 50 50 49 49 49 48 48 48 48 48 47 47 45 42 40 38 38 38 36 35 34 37 39 38 39 42 42 39 40 40 40 43 40 37 36 34 31 29 30
58 57 55 55 54 55 56 56 55 53 52 50 51 50 50 49 47 46 44 43 43 41 40 38 37 38 37 36 37 39 38 36 32 35 37 37 34 33 32 30 27 27 28
59 58 57 58 58 58 57 57 58 57 58 56 55 54 53 52 51 50 49 48 46 44 43 41 39 37 37 36 35 36 37 33 33 34 31 30 28 29 28 26 26 27 28
60 62 62 61 58 55 54 54 56 57 57 56 56 56 56 55 53 52 51 49 49 46 45 43 41 36 36 36 34 34 34 33 34 32 31 29 28 27 26 28 26 29 28
57 56 56 56 56 56 57 57 56 53 54 57 58 58 58 57 56 54 54 52 49 48 46 43 42 37 35 34 35 34 34 34 33 32 30 29 29 28 26 26 25 24 24
55 55 57 59 58 56 56 56 57 55 54 54 57 57 57 57 57 55 54 52 49 48 46 43 41 39 35 35 35 35 36 31 30 32 31 29 29 27 26 28 26 23 20

GFSMA_500_spd_087.txt.gz
Wind_Speed
44 42 42 41 40 38 36 35 34 33 31 29 28 25 25 25 25 26 25 25 25 26 26 26 27 28 29 29 31 30 32 33 32 32 32 33 36 37 39 38 33 30 31
45 45 46 44 43 41 40 38 36 36 34 32 31 27 26 27 28 28 29 29 28 29 30 30 29 29 31 32 33 34 34 35 34 36 35 35 37 39 38 34 30 31 34
48 50 49 47 45 43 42 40 40 38 37 34 33 29 27 28 34 31 31 31 31 32 31 33 33 33 32 33 34 35 35 36 35 37 37 37 38 39 35 30 30 31 33
54 54 52 49 48 46 44 43 42 41 40 37 36 35 34 36 35 35 34 33 33 34 33 35 36 35 35 36 35 37 36 36 36 36 37 39 39 36 31 30 33 33 35
57 55 55 53 51 48 46 46 45 43 41 40 39 42 41 36 37 38 35 35 36 36 36 38 39 39 37 36 35 36 36 37 37 37 40 39 35 33 33 33 33 35 36
62 58 57 55 53 50 49 48 46 45 43 42 44 45 43 37 38 40 36 38 40 38 40 39 40 39 40 37 37 37 39 39 38 40 39 38 35 37 39 40 40 39 39
60 60 58 57 55 52 51 52 47 46 48 47 46 49 48 40 37 41 41 41 43 44 42 40 39 40 41 41 38 40 40 39 38 37 39 37 39 41 42 43 42 41 40
43 51 59 59 57 56 54 51 52 53 52 59 49 54 54 42 42 46 45 44 45 46 44 42 41 42 41 41 40 37 35 33 36 38 39 40 43 43 44 43 43 41 40
44 37 40 48 59 56 54 56 48 46 56 53 54 55 40 38 42 42 40 43 46 46 41 37 40 41 41 41 40 37 36 37 39 39 41 43 47 45 44 46 42 40 40
35 46 38 36 41 50 50 50 42 29 35 41 33 39 33 32 35 36 38 40 45 37 37 39 41 41 40 38 42 42 42 39 40 42 44 44 45 47 47 46 42 42 42
39 36 35 29 34 35 45 36 44 39 53 50 42 39 39 41 39 46 44 42 48 49 43 42 47 46 44 43 42 41 43 44 43 45 42 41 46 48 50 50 46 47 48
42 46 42 46 47 48 46 50 52 45 40 45 50 48 53 46 46 44 36 42 44 46 40 39 43 43 43 45 43 44 44 42 41 40 41 44 48 52 52 51 50 49 41
40 39 45 47 50 52 54 53 57 53 56 59 51 47 47 45 47 45 36 39 47 50 47 42 42 42 41 38 35 37 37 38 41 44 50 54 52 50 47 48 44 39 39
28 33 39 48 59 58 57 60 66 68 56 55 53 50 42 44 50 55 50 43 45 38 41 42 45 43 39 40 39 41 40 39 43 47 52 47 44 45 43 40 38 39 41
16 20 22 28 27 24 35 33 35 38 36 37 31 34 37 44 43 41 35 42 27 28 21 24 24 39 41 41 37 37 39 37 39 41 42 42 42 42 42 42 42 41 44
21 22 22 22 26 30 30 28 26 26 32 24 19 23 31 28 30 30 25 22 21 22 23 25 28 30 33 33 33 36 37 37 38 37 39 39 41 41 44 43 43 42 38
29 29 27 25 27 27 25 26 25 25 23 22 21 21 22 25 21 24 26 27 28 28 30 32 33 35 37 35 35 34 33 32 34 36 39 42 45 45 46 43 43 38 34
25 26 27 28 29 29 29 29 29 30 29 29 29 28 27 28 29 31 32 31 31 31 32 35 37 37 36 34 33 32 32 33 35 38 41 43 47 45 45 42 37 37 35
32 33 34 35 37 38 40 39 36 37 38 39 38 38 38 37 37 38 37 37 39 40 39 38 38 36 32 32 32 33 34 36 38 38 41 46 46 40 40 39 39 38 33
35 35 35 36 37 38 40 43 45 46 47 48 46 46 44 44 46 46 46 46 45 44 41 40 39 34 32 33 34 34 37 37 36 40 41 39 38 38 38 38 35 33 31
43 43 43 43 45 45 46 47 47 48 49 49 49 50 48 48 50 51 50 49 48 44 43 42 39 38 37 36 35 36 38 36 38 40 38 34 36 35 36 32 30 28 27
50 50 49 49 48 51 52 52 53 53 53 52 52 51 52 52 51 51 51 51 49 46 46 44 41 41 38 39 38 37 39 38 38 38 38 37 37 34 31 28 25 23 23
51 53 54 54 54 52 53 53 54 55 56 56 56 55 54 55 54 53 52 52 52 50 50 48 45 44 40 41 39 40 40 38 37 36 35 36 33 30 28 26 24 22 23
52 54 55 54 53 52 52 52 53 55 56 57 56 55 57 57 57 58 57 54 54 53 53 52 49 46 43 42 42 40 40 39 36 36 36 36 32 27 25 24 23 23 25
57 55 56 58 59 59 58 58 56 54 52 52 54 55 56 56 57 58 60 58 57 55 54 53 52 49 45 44 43 41 41 39 36 36 37 35 30 27 25 25 25 24 23
60 58 57 57 58 58 58 58 59 57 57 55 54 54 52 57 57 57 58 58 59 57 56 54 53 52 49 45 43 42 39 38 37 37 36 33 30 26 24 27 25 24 25

GFSMA_500_spd_090.txt.gz
Wind_Speed
48 51 49 44 41 41 39 38 37 36 35 33 32 31 29 28 28 26 26 27 27 26 26 25 25 27 28 29 31 31 33 34 33 33 34 34 34 34 37 40 38 32 33
51 53 41 48 45 43 42 42 41 39 38 36 36 34 33 31 30 29 29 28 29 29 29 29 28 29 30 31 33 33 33 35 35 35 35 33 34 34 38 40 35 30 37
49 53 55 50 48 47 47 45 44 41 39 39 39 37 36 36 32 30 31 30 32 32 32 31 31 31 32 34 34 35 36 35 35 35 35 34 35 34 37 36 32 35 37
58 57 52 51 51 51 50 49 45 43 42 41 41 40 39 38 36 34 31 35 36 36 34 34 34 34 35 36 37 38 37 36 35 35 36 38 36 36 35 34 33 37 40
61 60 50 57 56 53 52 50 47 46 45 44 44 43 41 40 40 42 41 40 39 37 37 36 35 36 38 41 39 38 37 36 35 36 38 39 39 35 34 32 36 38 41
66 63 63 64 59 56 53 52 50 49 47 47 46 44 43 42 42 46 47 42 40 39 38 36 38 40 42 42 41 38 37 37 37 39 38 36 34 33 35 35 38 39 42
73 69 66 64 61 57 54 53 52 52 49 49 49 48 46 46 47 50 48 49 52 43 41 39 41 44 45 42 42 40 40 37 38 37 35 35 36 36 38 38 39 40 41
70 69 70 72 63 58 55 56 56 55 53 52 51 51 49 50 53 55 52 53 54 52 46 44 44 43 46 43 40 41 38 38 37 35 36 38 38 38 40 41 41 41 42
42 55 57 55 57 59 60 59 61 60 55 59 61 53 59 62 57 57 58 53 49 43 41 39 34 36 38 39 39 39 38 36 38 38 40 39 40 41 41 42 40 41 44
37 35 38 41 51 58 55 56 56 46 39 35 36 40 38 35 35 42 37 32 33 36 36 37 40 35 37 41 41 43 40 39 40 40 39 41 43 44 40 39 40 42 42
36 39 40 41 40 33 35 36 44 42 44 39 37 38 44 37 39 36 36 37 39 37 42 43 42 43 46 46 48 44 41 42 43 45 44 43 43 39 41 45 45 45 45
42 37 39 41 39 41 40 41 42 43 48 47 47 50 45 47 36 47 52 50 47 41 44 43 48 42 41 46 46 45 42 41 42 43 42 40 41 42 44 46 47 43 42
45 40 43 45 43 42 47 45 45 46 40 49 51 51 50 43 49 46 50 51 58 51 49 51 42 46 51 53 51 46 44 41 41 40 39 37 41 40 41 43 43 44 41
39 41 49 47 44 41 48 48 46 51 53 55 52 54 54 54 58 49 48 50 52 50 57 56 42 45 40 41 42 40 40 41 34 38 38 40 40 41 40 41 42 41 43
33 39 34 33 38 42 47 53 57 60 61 61 63 57 62 58 32 43 44 49 51 37 46 48 45 43 32 25 28 35 33 42 40 41 35 39 40 40 42 43 43 43 43
25 23 24 21 18 21 27 31 28 30 34 42 47 47 40 30 35 27 35 38 30 35 36 45 34 30 25 23 24 26 27 29 31 35 38 40 42 42 41 43 45 46 44
28 28 30 32 33 33 34 34 35 36 37 34 36 37 39 28 33 37 28 27 34 28 22 20 20 18 19 25 29 32 35 37 38 39 38 39 39 40 42 44 46 48 46
27 29 30 33 34 34 33 35 29 29 31 33 33 36 31 33 35 29 40 28 25 25 27 26 26 27 29 32 35 37 37 38 37 34 35 37 39 41 42 45 46 44 39
28 30 30 32 35 38 39 41 38 34 37 36 33 35 35 35 32 34 35 32 31 32 31 30 31 33 37 39 37 38 37 36 36 36 36 38 39 41 42 40 39 37 37
36 38 40 43 45 47 46 46 43 40 41 45 46 44 43 43 43 43 45 43 43 42 43 43 42 44 44 42 40 38 38 38 37 37 38 38 39 40 40 39 38 37 39
47 48 47 46 47 47 48 49 50 52 52 52 54 54 53 52 51 50 55 53 51 52 53 52 50 50 47 45 42 40 40 39 38 39 38 39 38 38 37 37 38 39 39
49 51 53 55 54 53 54 54 54 53 53 53 54 54 53 53 52 53 54 54 53 53 54 54 51 48 47 47 45 44 41 41 41 40 38 38 38 37 37 36 37 38 34
54 55 55 55 56 56 56 57 58 57 56 57 58 58 57 57 57 57 54 52 55 52 56 52 49 50 49 49 48 48 45 42 42 41 39 38 38 38 36 36 38 37 32
62 61 61 62 62 63 62 61 59 58 59 60 60 60 59 58 59 60 60 60 57 54 55 51 54 53 53 51 50 50 49 45 43 42 40 37 38 37 34 36 37 34 30
61 62 64 65 66 66 66 65 65 64 64 61 60 59 59 60 60 60 59 59 60 60 65 64 58 59 57 55 53 52 51 47 45 43 41 38 37 36 33 35 35 32 30
72 70 69 69 68 68 68 68 68 67 65 65 64 64 62 61 62 61 60 60 59 60 60 60 60 59 57 56 56 53 51 49 44 43 41 39 37 35 33 34 33 32 30

GFSMA_500_spd_093.txt.gz
Wind_Speed
55 55 45 48 43 49 48 43 40 39 38 37 34 33 33 32 31 30 29 30 29 29 28 29 29 28 27 28 28 29 31 32 32 32 34 33 32 31 34 35 31 33 28
55 54 50 49 49 53 53 43 43 42 41 39 37 36 36 34 34 33 32 32 31 31 29 30 31 32 31 31 31 31 32 33 34 35 35 35 34 31 33 36 34 32 28
57 56 46 49 51 49 44 49 48 47 43 42 40 39 38 38 37 35 34 34 34 33 32 32 32 34 35 34 34 35 36 35 35 35 34 35 35 34 36 36 36 31 30
58 61 61 53 66 72 56 55 56 49 46 43 42 42 41 41 40 38 37 37 37 37 34 38 38 38 37 36 36 38 40 40 38 36 35 36 35 36 37 34 31 31 33
60 56 63 57 64 45 47 49 53 52 49 45 45 45 45 44 44 41 41 40 40 41 42 41 43 43 40 39 38 39 43 43 40 39 36 36 36 36 35 32 34 35 35
67 65 61 61 71 66 53 54 55 54 48 48 48 48 47 47 46 45 43 42 43 44 48 47 46 48 45 43 42 43 44 45 42 41 38 37 36 35 33 35 36 36 36
68 73 68 66 61 68 59 52 61 52 49 51 52 51 49 50 50 47 46 45 46 51 49 56 50 46 54 49 46 46 47 46 45 40 39 36 36 34 34 37 37 39 40
56 62 71 73 73 59 51 52 60 58 54 55 54 53 53 53 52 53 47 49 51 52 54 61 53 54 54 57 49 48 47 45 39 36 38 37 36 37 37 36 39 41 42
58 67 73 74 72 76 69 67 65 60 61 60 59 59 59 56 55 56 58 50 56 63 64 69 55 57 55 48 45 43 42 37 37 37 38 38 38 41 39 41 43 42 41
43 57 71 73 74 77 77 76 74 72 73 69 62 62 64 66 61 64 62 59 57 43 43 42 40 45 43 40 40 42 40 42 42 42 40 40 40 43 42 42 42 42 41
37 47 47 48 60 59 64 73 69 61 59 60 52 46 47 44 39 35 32 33 39 38 36 38 36 40 39 40 42 43 46 47 44 41 38 39 40 44 41 42 42 42 42
36 36 38 38 38 38 41 40 43 42 35 35 41 43 43 44 49 41 43 49 52 43 44 45 47 43 47 46 48 51 51 45 42 41 43 43 43 45 40 42 38 40 38
33 36 34 36 38 36 38 43 42 41 41 41 45 47 44 43 48 51 51 47 50 46 47 53 54 53 53 49 47 49 51 49 49 49 45 42 39 38 39 39 40 40 40
40 41 41 41 43 45 44 48 46 49 49 45 42 48 44 46 50 53 55 54 48 53 50 49 48 50 55 61 59 56 53 48 39 37 40 40 38 34 37 38 37 40 42
34 35 36 38 37 39 42 47 45 50 49 53 48 54 57 57 59 58 59 59 56 52 44 48 44 48 49 50 57 56 49 43 34 33 29 32 33 35 38 38 37 42 44
33 37 36 39 43 42 44 51 54 51 51 58 60 63 61 61 61 64 60 48 46 45 43 43 43 46 50 42 45 48 47 32 27 25 25 30 32 33 36 39 41 42 42
34 34 35 31 33 33 34 30 33 35 37 38 40 40 39 41 44 49 52 43 41 44 39 39 40 42 43 46 47 43 30 27 23 25 28 31 39 42 41 41 40 39 41
23 27 28 30 33 36 37 41 45 49 49 45 42 41 44 47 49 48 49 45 43 35 38 36 34 31 30 26 23 21 23 26 30 33 39 40 41 40 39 40 40 40 39
35 39 41 38 42 43 47 44 45 48 49 46 44 41 38 38 46 48 44 50 46 38 40 36 31 29 28 30 31 34 37 39 40 39 39 39 39 39 38 40 40 41 42
36 39 40 41 42 45 48 48 49 49 50 47 47 47 46 45 44 41 42 46 38 41 45 42 39 38 38 40 41 41 42 42 41 40 39 39 38 39 39 38 41 41 39
39 42 46 49 53 56 56 55 56 58 58 56 55 54 53 53 53 54 51 48 46 49 49 52 50 46 50 50 51 50 48 46 45 43 41 41 40 39 38 38 39 40 38
49 52 53 54 56 58 59 60 62 64 64 64 63 63 62 63 61 58 57 58 56 57 55 57 59 50 53 55 55 53 52 50 46 44 42 43 42 40 40 39 37 37 37
60 63 64 64 64 66 66 65 66 66 67 67 66 66 66 66 65 64 61 59 59 59 58 59 61 52 51 52 51 49 51 48 44 43 44 44 43 42 41 40 36 35 36
73 74 75 79 80 73 70 71 73 73 72 71 70 70 69 69 69 69 68 66 65 62 60 54 58 49 48 52 54 55 50 47 45 45 45 46 46 44 42 39 37 36 35
83 87 93 82 78 76 76 75 76 78 79 77 74 73 73 72 72 72 71 70 70 69 67 65 63 60 50 50 50 52 50 50 48 47 48 47 46 46 42 40 37 36 34
93 102 98 96 95 89 82 78 79 80 78 77 79 75 73 72 72 75 74 73 70 69 69 68 65 65 65 66 66 65 56 51 54 50 50 48 45 45 42 40 38 36 33

GFSMA_500_spd_096.txt.gz
Wind_Speed
40 42 40 44 47 48 48 45 46 47 45 43 41 38 36 35 34 32 31 30 29 29 29 29 29 29 30 30 31 31 31 31 32 34 34 33 33 31 30 31 32 33 32
44 45 46 44 48 49 48 49 48 52 51 47 44 42 40 38 38 36 34 33 32 31 32 32 32 32 32 32 33 33 34 34 34 36 37 37 35 33 34 32 33 33 31
42 44 45 46 45 51 51 53 50 50 53 49 47 46 43 41 39 39 37 36 36 35 35 35 35 35 36 33 36 37 38 36 36 38 39 41 38 36 35 34 34 32 29
50 48 49 52 51 55 53 55 59 60 62 58 48 46 46 43 39 40 40 39 39 38 38 39 38 39 40 37 39 42 43 42 40 39 42 42 41 37 36 34 34 31 31
50 51 51 57 56 55 45 52 56 63 49 50 49 48 49 45 43 41 43 43 42 41 41 41 41 42 44 46 41 43 47 46 45 43 44 45 44 39 37 35 33 32 34
51 53 56 53 61 62 62 63 60 54 62 63 66 51 53 46 45 46 45 46 43 44 44 45 44 44 46 48 50 50 48 48 48 47 46 47 45 41 37 34 34 34 35
52 56 59 55 56 62 60 59 64 61 61 51 53 52 55 49 50 49 48 46 45 45 47 45 45 47 49 56 54 56 54 49 51 51 49 47 43 37 35 33 35 36 34
51 53 57 56 54 59 58 60 71 70 62 57 54 54 58 53 51 50 49 48 46 46 48 47 49 53 57 58 61 60 58 54 54 51 50 47 38 36 36 35 36 37 37
47 39 42 48 55 57 70 59 65 70 66 58 61 58 59 59 52 54 52 51 51 52 52 54 55 61 56 60 66 65 56 54 48 43 41 38 37 40 40 38 37 36 39
43 39 38 40 46 61 65 73 73 63 64 58 58 60 60 58 59 58 59 57 57 58 59 61 58 64 63 54 50 39 41 40 40 40 42 43 43 43 40 34 36 36 38
28 36 37 35 48 58 60 64 77 74 65 67 58 59 64 68 72 67 63 62 54 49 44 40 35 36 42 42 40 40 39 37 40 42 41 42 44 37 42 39 39 39 38
20 24 39 42 45 53 61 68 68 74 74 83 85 86 82 67 56 49 43 41 42 37 37 38 41 47 50 46 47 49 47 46 45 46 44 46 49 44 46 43 40 38 36
29 30 31 32 40 39 45 52 59 59 60 58 46 41 41 41 42 42 40 39 44 47 49 45 46 45 48 46 52 57 53 52 51 47 44 46 48 47 45 43 40 36 31
30 30 33 32 33 35 36 35 38 41 44 33 34 39 43 47 48 47 48 49 48 47 50 49 49 52 49 52 48 53 57 54 54 59 59 52 50 42 40 36 38 39 38
31 32 34 30 33 35 36 41 40 38 39 40 43 43 48 52 47 48 49 50 51 54 55 52 57 56 51 48 47 47 47 50 50 48 52 53 44 37 31 33 31 30 32
30 28 28 30 28 29 35 37 38 39 44 47 51 51 53 50 49 52 55 56 57 59 65 61 64 58 52 45 47 48 47 48 41 44 40 36 35 31 30 29 30 33 34
34 32 34 35 33 36 34 39 41 44 48 50 52 59 55 57 62 60 59 60 60 58 54 53 46 52 50 43 43 46 51 45 50 50 51 38 36 27 26 30 33 35 35
23 25 28 30 30 31 33 35 36 40 40 43 43 44 45 49 48 49 49 46 42 48 49 51 49 44 45 47 38 41 45 47 44 45 38 27 23 32 37 38 37 34 34
21 24 26 31 34 36 35 39 38 44 43 45 49 51 49 53 55 53 54 52 52 51 51 52 50 44 45 40 36 39 35 33 30 25 26 28 34 37 40 37 34 34 33
26 28 30 32 35 38 42 46 49 52 56 53 55 60 62 62 59 57 55 53 56 57 56 56 55 43 44 38 40 35 35 42 35 36 39 40 39 39 39 37 35 34 36
33 36 39 41 43 45 48 51 53 55 58 60 61 61 62 64 66 62 58 53 52 52 52 57 55 54 45 44 50 42 45 40 39 41 41 43 43 42 41 40 40 37 39
45 47 49 52 56 58 59 61 63 63 64 66 66 66 68 71 69 67 67 65 62 58 58 60 53 54 54 40 49 47 51 51 47 47 45 45 45 42 41 41 42 41 39
51 55 60 66 69 71 72 74 77 78 76 77 75 75 75 74 75 76 72 68 66 66 65 61 60 61 62 60 58 52 52 49 44 44 40 39 40 41 42 41 41 42 40
60 64 68 73 78 82 86 91 91 91 92 89 83 80 81 80 80 79 79 77 73 68 65 65 64 62 62 57 60 55 56 49 51 46 43 40 42 40 40 41 39 40 42
66 71 75 80 85 90 95 99 103 105 105 103 92 87 84 82 85 84 82 82 80 77 73 70 66 65 65 63 59 59 50 51 48 49 51 47 44 40 39 39 40 41 42
73 77 84 87 91 98 103 108 112 114 105 94 82 80 84 88 87 88 86 83 84 81 78 76 74 71 55 57 58 54 47 49 49 43 43 41 40 41 41 42 41 40 41

GFSMA_500_spd_099.txt.gz
Wind_Speed
49 45 47 46 44 44 42 41 42 44 46 44 42 43 43 43 42 39 36 35 33 32 30 30 30 30 30 31 32 32 31 31 32 33 34 34 35 36 36 36 34 32 31
48 47 44 45 43 43 44 43 44 43 47 49 47 46 45 44 44 44 41 38 36 34 34 34 34 33 32 32 33 33 33 33 33 35 36 37 38 37 38 36 37 36 34
53 49 45 46 45 45 46 47 44 42 48 51 53 50 48 46 47 46 44 41 39 38 37 37 36 36 35 34 35 35 36 35 36 37 41 39 39 40 41 40 39 37 36
55 53 49 46 48 46 45 44 40 41 51 51 53 49 51 50 51 48 47 45 42 40 39 40 38 38 38 37 38 38 40 39 40 40 45 46 40 41 43 42 40 39 36
60 57 55 53 50 51 49 46 49 53 54 57 56 58 56 55 55 50 48 46 46 42 41 43 42 41 41 40 41 41 42 45 44 43 49 47 46 45 45 43 41 38 34
62 61 57 56 54 50 50 49 51 55 59 63 63 63 65 64 65 49 41 47 47 45 44 45 44 43 43 43 43 43 45 52 48 50 49 49 51 50 47 46 42 36 32
62 62 60 57 54 50 50 53 54 57 59 62 57 55 57 57 52 49 63 54 52 49 46 46 45 46 44 45 46 45 53 55 54 56 52 56 54 55 49 42 38 34 32
60 60 58 57 54 53 54 57 57 60 57 68 66 60 53 52 53 59 57 51 52 50 50 48 45 44 46 48 52 52 53 55 57 61 57 61 56 51 44 37 34 35 34
56 56 57 55 52 55 57 56 61 60 55 61 64 65 63 59 52 51 53 54 57 52 50 48 50 50 54 55 53 56 59 60 60 59 53 47 43 38 38 37 32 35 33
54 52 53 52 53 54 54 53 40 45 50 58 59 61 60 65 72 71 67 60 58 58 57 55 56 56 57 59 60 60 60 54 44 43 41 37 35 36 35 38 35 36 34
50 50 52 52 53 50 52 41 41 46 41 45 64 61 59 57 62 74 69 64 65 66 60 54 48 56 57 48 50 37 36 35 44 42 43 40 40 38 40 40 38 40 39
44 41 48 49 41 40 39 42 44 47 49 53 56 61 63 69 65 60 61 59 52 52 47 45 43 40 37 36 36 37 40 44 43 45 48 48 46 43 40 41 38 41 41
34 38 37 32 32 39 42 37 54 57 51 57 63 58 61 69 60 56 54 49 47 39 37 34 34 37 38 41 45 43 43 42 47 47 47 50 46 49 48 47 48 45 42
25 31 39 34 32 32 38 42 41 35 48 52 43 46 42 44 45 38 33 35 36 42 43 40 41 45 43 44 47 49 47 47 49 53 48 47 48 48 47 49 51 48 42
23 22 30 34 33 37 34 38 36 33 37 46 46 47 46 43 36 40 44 42 47 50 50 47 45 46 51 50 50 52 50 55 52 52 50 46 44 42 44 41 44 44 39
21 26 27 29 28 29 32 27 30 36 36 39 40 42 45 43 45 46 45 48 52 55 57 53 49 53 54 54 56 58 59 57 47 49 48 50 49 43 38 40 40 35 30
20 28 32 32 34 31 32 32 31 28 34 35 38 41 43 45 49 52 53 53 53 57 56 58 60 56 59 60 59 54 54 48 49 49 49 47 46 46 45 46 37 33 29
14 17 18 20 23 25 24 23 25 28 34 34 34 40 43 47 48 51 54 55 55 57 51 55 51 45 47 43 44 43 45 50 49 49 49 52 48 49 47 43 35 25 28
18 19 21 23 25 24 27 28 30 32 29 32 39 39 42 44 44 49 47 51 54 54 53 51 48 48 44 45 40 39 40 41 44 42 43 45 47 41 36 27 26 32 34
20 23 26 28 29 30 32 34 37 39 41 43 45 47 48 49 51 52 55 59 59 58 56 61 62 61 57 52 52 49 46 46 43 44 47 45 40 34 30 30 33 35 34
26 29 31 33 36 37 39 41 43 45 48 50 51 55 58 60 61 62 62 62 65 65 65 66 63 65 65 61 58 57 48 49 51 45 42 42 41 36 33 36 37 34 33
35 37 40 42 44 47 48 50 53 55 58 60 61 64 66 67 67 67 69 69 71 72 72 71 72 66 64 63 66 60 48 49 46 50 50 50 48 39 40 42 38 36 34
42 45 47 50 52 55 57 60 62 64 66 69 70 72 74 77 78 76 76 77 76 77 80 81 79 70 64 61 64 63 60 57 52 44 51 46 44 46 44 44 37 33 33
51 53 56 57 59 62 65 68 70 73 75 78 81 85 85 87 91 94 94 89 87 84 84 85 83 81 73 67 67 65 56 64 59 57 49 52 46 38 40 39 35 35 35
62 63 65 67 68 70 72 75 77 80 83 87 91 93 96 100 104 106 107 107 104 93 88 88 88 84 80 75 71 68 69 68 55 55 51 55 54 44 40 41 39 37 33
69 70 72 75 77 78 82 84 87 89 91 94 97 102 109 113 109 99 93 87 85 81 84 89 91 87 82 80 76 75 70 60 58 51 48 47 46 42 44 48 44 34 32

GFSMA_500_spd_102.txt.gz
Wind_Speed
46 46 45 43 45 42 44 46 45 43 41 41 44 46 46 46 44 43 44 43 42 40 38 35 34 33 32 31 31 31 31 32 33 31 32 32 31 33 34 35 34 35 35
52 52 48 48 48 49 47 48 47 46 45 44 42 46 49 48 48 45 44 46 45 44 42 41 38 36 35 34 33 33 33 34 35 34 33 33 35 36 36 37 37 36 37
57 54 53 52 50 48 45 44 47 47 47 46 45 44 44 50 50 48 49 46 48 48 46 44 42 40 38 37 36 35 35 37 37 38 38 36 39 42 42 42 40 41 39
61 59 56 56 54 51 49 46 46 48 49 47 45 47 46 46 48 54 52 52 51 51 49 47 45 43 42 40 39 38 38 39 39 40 42 42 42 44 44 46 44 43 42
66 65 62 60 59 55 53 52 49 48 50 46 46 47 50 52 49 48 51 51 53 53 52 51 49 46 46 44 43 41 42 41 42 43 45 44 43 47 46 48 50 48 46
69 67 65 63 62 59 57 56 54 52 52 53 52 49 55 57 58 55 54 60 54 51 56 52 53 49 48 47 46 43 41 41 42 45 48 49 49 53 53 52 52 52 46
65 66 66 63 60 62 61 59 56 56 56 55 56 57 57 59 64 66 61 58 63 66 62 51 49 52 50 48 48 45 40 45 46 48 48 52 54 53 54 59 50 45 39
60 63 63 62 61 60 61 61 56 56 57 57 56 61 61 63 58 60 60 55 52 65 55 59 57 60 54 52 49 47 47 46 48 48 52 54 56 58 51 43 37 35 31
60 60 61 61 61 63 62 62 57 56 56 57 60 61 65 62 63 61 63 58 53 53 54 65 68 57 55 56 56 53 51 54 49 53 50 54 56 49 40 37 29 30 31
55 58 59 61 61 59 59 58 55 56 57 58 60 57 58 55 56 61 61 64 61 59 56 66 51 55 59 62 57 59 62 57 56 55 49 47 38 39 35 35 33 32 29
50 54 58 60 59 57 52 53 54 56 57 58 58 56 50 47 49 52 55 56 56 57 57 64 70 70 64 56 52 47 46 45 48 41 35 33 40 39 40 38 38 37 35
47 51 52 53 54 55 54 54 55 57 60 56 55 49 46 41 38 45 49 47 54 61 65 67 72 73 65 55 48 45 45 44 42 31 32 33 36 41 42 39 41 41 40
42 43 45 46 47 47 45 48 49 51 49 49 49 47 46 50 51 48 52 54 55 58 63 54 47 47 40 42 42 42 41 41 38 38 36 38 39 39 43 44 41 42 45
30 27 32 31 39 40 43 35 36 42 42 45 45 53 56 55 52 55 50 47 43 46 50 48 41 35 39 38 39 39 37 39 39 39 43 42 42 45 46 46 45 42 41
22 24 25 27 25 33 35 40 36 39 45 47 49 53 49 50 49 43 41 39 38 40 41 39 39 43 43 46 44 45 46 48 46 47 47 46 47 46 51 48 46 40 40
25 24 24 25 30 24 31 36 36 34 33 38 39 43 39 43 41 39 40 38 40 40 44 45 45 47 46 46 49 52 45 50 53 50 49 50 53 53 52 48 45 46 42
26 24 25 30 39 37 32 31 33 31 31 34 31 33 35 39 39 39 43 44 45 48 47 50 46 49 48 52 53 56 52 50 51 56 56 52 53 52 49 49 47 46 46
15 15 18 22 28 24 23 25 26 27 27 26 27 28 28 33 35 36 37 41 42 45 49 53 54 55 57 57 63 61 62 60 55 59 52 46 47 45 47 50 46 48 42
18 18 20 21 22 22 26 25 26 28 29 30 29 29 26 34 36 38 36 40 46 45 43 47 39 41 48 51 48 50 46 48 47 43 42 46 50 46 45 48 48 47 41
21 22 23 25 26 27 29 29 31 32 33 35 36 36 35 37 39 41 43 43 45 48 52 52 49 51 50 50 51 49 44 43 40 40 39 39 42 39 41 42 44 46 44
27 29 30 31 33 34 36 37 40 41 42 43 44 45 45 46 47 48 50 51 52 53 53 54 55 54 56 58 56 55 56 59 59 50 41 43 48 44 44 48 51 50 42
36 36 38 40 41 42 43 44 45 47 48 50 51 53 55 55 57 58 58 59 60 60 61 61 61 61 60 60 62 62 60 63 57 63 60 53 50 50 46 46 44 43 41
45 47 47 49 51 52 53 55 56 57 57 58 59 60 61 62 64 64 65 66 67 69 70 70 70 69 68 66 67 67 67 67 65 63 64 62 58 54 55 52 52 49 45
51 53 55 57 59 62 63 64 65 66 67 68 69 69 70 70 71 72 73 74 76 77 78 79 77 76 76 78 77 75 73 72 72 71 68 65 64 56 50 54 53 51 47
59 61 63 65 67 70 72 73 74 74 75 76 78 78 79 81 83 84 84 85 85 86 88 88 88 87 87 89 86 83 83 80 78 76 74 72 65 63 56 53 45 39 39
69 71 73 76 77 76 77 78 79 80 80 81 81 82 86 87 88 89 90 91 93 96 96 96 97 97 96 95 93 82 83 83 83 79 78 74 68 61 68 62 64 59 47

GFSMA_500_spd_105.txt.gz
Wind_Speed
42 48 46 45 42 44 41 41 40 39 39 41 41 41 41 42 46 47 47 46 45 42 42 41 41 40 39 38 36 34 33 33 33 33 34 34 32 31 32 33 30 34 34
56 49 51 48 48 44 43 43 44 44 45 43 45 44 44 44 44 47 47 47 48 46 43 42 43 43 42 41 40 38 36 35 35 35 36 36 36 35 34 34 35 34 39
61 62 56 55 54 55 52 49 46 48 46 46 41 45 44 44 45 46 47 49 47 47 46 45 43 45 45 45 43 42 40 38 38 38 38 39 39 38 37 35 37 38 41
63 64 63 63 63 60 57 56 51 50 48 44 44 45 46 47 47 46 45 39 44 48 49 47 46 45 47 47 47 45 44 43 42 41 41 41 39 39 42 41 41 40 45
63 66 67 65 64 64 63 60 57 54 51 52 50 51 52 51 46 47 49 47 48 48 51 50 48 48 48 49 48 50 48 46 44 44 42 42 41 42 44 44 43 43 49
58 64 64 66 66 68 68 65 61 59 57 57 57 57 56 53 51 51 49 52 49 48 47 48 50 51 51 52 49 50 52 49 46 44 41 42 43 45 46 46 45 46 49
60 57 62 67 66 67 69 67 66 62 60 61 62 62 61 59 58 53 54 54 53 58 60 58 53 47 49 54 54 52 50 52 49 45 41 42 45 48 48 47 46 49 48
61 60 59 61 65 64 66 66 66 64 61 58 59 60 63 62 61 57 56 56 60 58 57 60 62 62 59 60 60 56 53 55 52 47 44 48 51 49 48 48 47 41 32
58 59 58 58 58 64 63 62 63 62 60 60 60 60 59 60 60 60 60 60 63 63 63 60 61 59 54 53 55 62 63 62 49 53 56 52 51 50 50 47 34 29 29
59 59 57 56 56 57 60 60 58 59 59 59 60 60 58 57 58 61 60 60 61 63 63 62 60 61 57 53 48 51 64 59 56 59 54 56 53 54 44 40 28 30 30
57 57 58 54 54 55 58 60 60 58 56 56 58 56 56 56 58 61 60 60 55 56 55 57 55 60 58 59 58 60 61 51 48 39 41 43 41 40 38 31 29 29 29
52 52 52 53 53 55 57 56 55 53 54 55 57 56 58 55 57 60 60 55 49 39 35 35 41 45 54 58 55 54 59 63 61 44 43 45 40 39 36 34 33 29 30
42 45 47 51 52 51 52 51 51 49 50 50 53 55 57 57 57 55 56 53 52 44 44 45 47 52 50 52 52 50 57 55 50 40 47 48 40 39 37 34 37 34 36
32 33 40 36 42 42 42 44 41 42 45 41 42 45 47 43 47 51 54 53 51 53 50 51 48 52 52 49 48 46 42 43 41 38 41 43 41 42 40 38 40 46 39
29 34 31 30 31 27 33 43 30 38 43 44 39 42 44 48 49 50 50 52 57 55 55 51 52 48 49 48 44 43 40 39 38 38 40 40 38 41 41 40 41 45 46
30 30 30 31 32 29 36 33 35 43 40 41 45 44 42 43 45 48 51 50 50 48 47 45 42 40 41 39 40 40 39 38 43 42 38 40 41 43 47 44 42 45 48
30 27 26 31 32 37 35 39 41 41 40 37 35 38 38 38 39 40 40 39 41 42 43 43 40 39 41 41 45 45 47 45 45 45 48 44 44 44 45 48 48 46 50
15 16 18 24 33 32 39 43 35 31 33 33 32 33 33 33 31 31 35 43 46 46 47 47 47 47 45 44 35 34 43 44 43 47 52 53 52 48 49 49 51 48 50
19 20 21 21 22 22 26 23 26 27 31 31 31 31 32 33 30 32 30 35 35 35 32 42 45 35 39 32 33 34 30 31 39 34 38 44 49 48 49 42 41 44 43
27 28 28 29 29 28 28 30 32 34 35 36 37 37 38 38 36 37 38 38 39 39 40 41 45 43 42 43 44 40 38 38 39 39 34 31 34 38 38 40 45 44 45
31 33 34 36 37 38 39 39 39 40 41 42 42 42 44 45 46 46 45 45 46 47 47 47 48 48 46 46 45 45 42 43 44 45 42 41 39 39 42 38 32 37 41
40 41 43 45 46 48 49 49 49 49 49 50 51 52 52 52 52 53 53 53 53 53 54 55 55 54 53 52 51 51 50 48 47 48 47 47 46 47 46 46 49 48 47
48 49 51 52 54 56 57 58 58 59 59 59 60 61 61 61 61 62 62 62 61 62 62 62 62 61 61 60 59 57 57 56 54 52 53 52 50 49 51 49 48 48 49
53 55 57 59 61 63 65 66 67 68 69 70 71 72 72 71 71 70 70 70 71 71 70 70 70 70 70 69 68 67 63 63 61 59 59 58 56 55 55 55 52 51 52
53 55 56 58 60 62 65 68 72 74 76 77 77 77 77 76 75 74 75 75 75 77 78 78 78 77 76 74 74 73 71 69 66 65 65 64 62 62 61 62 58 57 57
60 61 61 63 64 65 67 70 72 73 74 75 76 78 80 80 79 80 80 79 79 78 78 80 81 82 82 81 80 78 77 75 73 71 69 69 67 68 66 66 64 60 60

GFSMA_500_spd_108.txt.gz
Wind_Speed
52 53 52 54 47 50 45 44 41 40 38 37 38 36 33 37 37 37 37 39 42 45 45 45 43 40 38 38 38 38 37 37 37 36 35 34 35 34 34 32 30 28 29
47 48 53 51 52 45 46 46 41 42 40 40 42 41 39 40 41 43 42 40 42 44 46 45 45 42 42 39 39 40 40 40 39 39 38 38 38 37 36 34 32 31 32
49 49 49 53 55 57 59 43 50 45 44 45 44 45 44 44 46 44 44 43 41 42 45 46 45 45 43 44 41 39 41 42 42 42 42 41 41 40 38 35 35 34 36
53 52 52 53 57 60 62 62 59 56 54 55 49 44 46 46 45 48 45 43 44 41 44 45 39 45 45 45 45 43 41 42 44 45 45 45 44 43 41 38 38 36 40
58 56 56 55 56 58 59 63 64 63 63 62 56 52 49 48 49 48 48 49 49 44 43 43 43 43 45 47 47 44 44 43 46 45 46 47 47 45 43 42 40 37 41
61 59 58 57 57 57 57 59 62 64 64 64 64 58 59 56 53 56 55 54 54 47 46 46 47 45 47 50 46 44 45 44 47 48 49 50 48 48 45 44 41 37 42
60 56 62 60 59 57 57 58 59 60 63 65 67 65 65 65 63 61 61 59 58 55 52 49 48 49 50 52 51 54 45 53 51 50 50 49 47 47 42 44 42 49 47
66 62 61 61 59 57 58 59 59 58 59 63 65 66 66 66 64 61 59 58 57 58 59 56 53 51 52 57 56 55 54 49 49 51 50 50 51 52 50 47 53 51 45
71 64 62 60 57 57 55 58 60 60 57 59 62 64 64 64 63 60 57 55 55 57 57 59 56 57 56 55 56 56 55 58 56 50 45 51 53 54 56 57 54 49 41
67 65 62 61 59 56 56 57 57 58 60 58 60 61 61 61 61 61 58 55 56 56 55 57 58 60 60 59 57 57 57 58 53 50 37 43 55 56 51 51 52 46 38
58 59 60 58 57 55 56 57 56 58 61 61 58 58 57 56 57 58 57 55 54 55 57 56 56 59 61 59 57 52 55 58 58 51 43 37 47 40 40 43 34 31 29
52 55 60 58 56 57 59 59 59 60 61 60 57 56 55 54 54 55 57 55 56 55 53 51 57 55 54 52 45 43 44 48 52 49 48 42 37 35 38 41 36 34 32
43 46 45 46 50 51 51 53 54 53 53 54 54 53 51 51 53 55 56 53 56 57 59 55 51 51 48 41 42 46 44 43 45 46 46 41 45 43 43 40 34 40 35
31 30 30 34 36 38 39 38 44 45 46 47 49 49 49 49 47 43 46 46 49 48 52 55 48 49 52 49 48 47 52 46 47 44 43 44 50 49 50 45 42 40 38
19 20 25 27 32 37 35 36 38 38 40 43 47 46 45 37 42 47 47 50 52 49 47 47 49 50 49 55 56 52 53 50 48 46 43 45 43 45 48 50 42 44 42
22 25 29 33 33 37 37 39 40 35 44 42 44 54 42 40 44 48 47 50 56 54 55 52 49 50 51 54 57 56 51 45 47 44 45 45 47 44 48 46 43 42 43
27 26 30 33 33 32 34 37 39 44 44 35 39 44 40 36 43 51 47 47 49 49 50 49 48 48 46 47 48 42 42 42 40 39 39 40 43 44 38 44 40 40 43
18 20 21 22 22 24 21 22 31 40 40 45 44 42 40 38 39 39 38 37 41 39 38 41 39 37 38 39 39 40 40 41 41 47 48 45 48 45 48 49 47 41 43
22 23 25 26 27 26 27 28 30 29 30 34 29 31 29 34 36 32 32 33 38 35 35 38 39 43 42 43 45 45 44 50 37 29 39 43 37 34 30 37 44 40 38
31 32 33 33 33 34 32 32 32 34 35 37 37 36 41 41 41 41 41 40 39 40 39 38 33 35 36 36 42 43 36 32 33 32 30 25 27 23 21 20 20 26 31
39 40 42 43 44 44 45 44 42 43 43 44 44 45 46 46 46 46 46 47 47 47 47 46 45 41 42 42 41 44 45 42 40 39 36 35 32 33 32 26 24 23 21
44 46 48 49 51 52 53 54 54 55 55 55 55 55 55 55 55 54 53 53 54 53 52 52 53 53 53 52 52 53 52 49 45 45 42 40 38 37 35 34 34 34 33
50 51 53 55 56 58 59 60 61 62 62 63 64 64 65 65 65 65 65 64 62 61 61 61 60 60 60 60 61 60 59 57 54 52 51 47 45 44 42 41 39 38 37
52 53 55 55 57 59 60 63 65 65 65 65 66 67 69 70 72 73 73 73 73 73 72 71 70 69 68 68 67 66 65 62 60 58 58 55 54 51 49 48 45 43 42
58 59 62 62 61 60 60 60 61 63 64 66 67 69 71 71 72 73 75 77 78 80 80 78 78 77 76 76 75 73 72 70 67 64 64 62 60 58 56 54 53 50 48
59 61 64 65 65 62 61 61 61 62 64 66 67 68 71 73 74 74 74 75 77 78 79 81 81 81 81 81 81 81 80 79 77 73 70 70 69 65 64 60 59 57 55

GFSMA_500_spd_111.txt.gz
Wind_Speed
38 39 39 43 45 50 51 49 50 48 46 45 40 38 38 37 35 35 35 35 36 37 36 38 39 41 42 42 40 39 38 36 35 35 35 36 36 36 35 34 32 31 29
44 44 43 43 42 44 47 49 48 48 47 48 46 43 39 38 38 38 39 37 38 41 42 41 41 42 42 42 43 42 42 39 38 37 37 37 38 38 38 36 35 34 34
52 51 50 49 47 46 46 45 48 46 43 41 48 42 42 41 42 42 44 45 44 43 43 44 42 41 40 41 43 42 43 42 42 41 40 39 39 39 40 39 38 38 37
61 60 57 55 55 53 49 48 48 52 53 55 54 48 48 49 48 43 43 45 47 46 43 41 40 39 39 41 40 37 40 42 43 43 43 41 41 41 41 40 40 39 39
64 63 62 54 56 58 57 54 52 50 52 55 59 63 61 59 58 55 55 54 51 48 45 42 42 41 39 41 43 40 38 41 44 43 43 43 43 42 41 43 43 42 43
64 64 63 61 58 56 59 61 57 56 53 52 55 58 61 64 64 65 63 60 57 56 53 51 48 48 45 43 44 47 45 43 45 47 43 44 46 44 45 44 45 42 41
68 63 66 67 63 63 65 62 61 57 55 55 56 53 54 54 59 65 65 67 64 61 61 59 55 54 52 51 48 47 48 48 47 46 44 51 46 49 49 43 47 45 42
65 65 64 64 58 58 60 56 59 62 58 55 56 58 55 53 52 56 63 65 66 68 65 62 60 55 54 52 54 51 50 51 50 53 54 49 48 42 44 49 48 50 48
60 59 63 64 66 61 63 62 59 58 60 58 56 59 59 56 55 55 59 63 64 66 67 65 61 56 53 54 55 56 55 52 50 51 52 49 49 53 50 50 47 51 51
56 64 58 63 65 61 64 66 62 61 58 57 57 58 59 59 58 57 56 58 62 62 62 63 60 57 55 56 57 57 55 54 52 52 51 49 52 47 46 45 42 47 48
47 47 58 58 60 65 63 61 64 64 62 61 58 59 62 63 61 63 61 58 59 59 61 62 60 57 58 57 58 57 56 56 54 54 54 48 50 45 43 41 41 43 41
32 33 42 45 48 52 54 57 58 62 61 59 62 63 63 65 62 64 65 58 55 53 53 56 54 53 56 57 57 57 55 56 55 52 54 48 48 47 44 40 40 48 45
29 34 39 41 48 51 51 56 60 59 61 61 61 59 59 60 58 55 54 49 50 51 52 54 54 52 51 53 52 57 51 52 51 48 40 43 40 46 46 44 42 46 39
26 28 28 31 34 34 35 40 42 44 49 51 52 53 47 50 51 51 44 45 56 47 52 53 48 54 53 47 56 57 52 48 46 43 44 44 43 44 48 46 42 47 48
16 20 19 18 24 25 28 31 38 43 42 46 45 45 42 43 41 53 50 50 57 56 49 44 49 50 46 49 43 50 51 52 53 49 52 50 47 51 47 46 46 48 52
15 18 22 24 32 34 36 37 36 38 39 40 50 47 43 46 52 47 56 55 54 53 49 53 50 51 50 49 45 46 51 56 53 55 56 55 57 54 49 50 51 58 60
13 14 18 18 18 20 23 26 28 27 26 34 40 40 47 46 48 39 42 48 56 55 49 55 56 55 54 55 52 53 53 53 55 55 58 55 56 54 52 51 53 54 56
21 23 24 26 28 30 30 32 33 32 33 31 28 33 40 48 48 51 47 42 45 44 43 49 45 49 50 50 50 50 50 54 52 51 51 48 49 48 46 47 49 52 54
28 30 31 33 35 36 37 38 38 38 38 38 38 37 36 32 35 40 37 45 36 35 39 36 40 35 35 38 38 42 41 41 41 42 41 44 45 45 43 42 44 46 48
36 38 40 42 44 45 45 45 46 46 46 47 47 47 46 44 44 44 42 40 43 42 40 38 35 37 38 38 37 41 43 43 44 44 44 45 48 47 47 48 46 46 50
38 39 41 43 46 48 50 52 54 56 56 55 55 54 55 54 53 52 51 51 50 50 50 49 46 46 47 47 45 42 42 38 43 48 42 42 35 34 31 37 38 31 29
41 44 46 49 51 53 54 54 54 55 58 60 62 64 63 63 63 62 60 61 59 58 58 56 55 55 54 54 54 52 45 42 45 45 49 37 40 36 36 30 32 31 30
45 49 52 55 58 60 59 60 60 60 61 62 63 66 69 69 69 69 70 69 69 68 67 65 64 62 61 60 60 58 57 53 50 49 49 46 44 44 45 45 38 36 38
53 56 58 62 65 66 63 63 62 62 63 65 65 66 66 68 71 73 74 72 71 73 75 75 73 72 70 69 67 65 64 64 63 63 62 58 56 55 52 49 48 47 46
57 61 65 65 65 65 65 64 62 60 59 60 61 64 65 66 66 69 71 73 73 76 76 77 78 79 79 78 78 75 73 70 69 69 70 68 66 63 60 56 55 52 51
63 64 66 65 66 61 55 53 53 52 53 54 56 58 61 66 69 70 71 72 74 72 77 80 79 80 81 82 82 83 82 80 77 75 76 74 72 71 68 64 62 60 58

GFSMA_500_spd_114.txt.gz
Wind_Speed
43 42 42 40 39 40 43 43 46 45 47 48 49 48 46 44 42 41 41 39 39 40 40 40 40 39 38 39 39 39 38 38 38 38 38 38 36 36 35 33 32 31 31
51 51 49 48 45 45 44 43 45 41 46 44 44 45 47 49 48 46 42 40 40 41 41 39 40 40 41 41 40 40 40 40 40 39 39 40 40 39 37 36 34 33 33
61 59 58 57 55 52 51 49 49 47 43 45 43 44 43 45 48 45 43 41 43 42 43 45 43 42 42 42 43 41 41 39 40 40 40 39 40 41 40 38 37 34 34
67 67 65 64 64 62 59 57 56 54 52 49 50 52 51 47 45 47 47 45 44 44 41 42 42 42 43 42 41 40 39 38 39 40 40 41 41 42 41 40 39 35 35
72 71 70 67 66 59 60 64 63 61 60 56 55 53 54 56 58 59 56 56 51 52 54 52 50 48 48 46 43 41 39 39 40 41 39 40 41 42 39 41 41 39 38
77 76 71 65 61 62 61 61 59 57 57 59 60 58 55 55 56 58 58 62 65 65 62 61 59 56 56 55 50 48 46 43 42 44 45 45 43 42 42 38 38 42 42
81 78 75 68 57 62 61 58 61 63 62 60 57 60 61 57 56 54 54 55 58 59 62 66 67 64 61 59 58 56 54 52 49 47 47 47 46 45 43 39 43 45 42
79 80 76 71 65 62 66 68 65 64 63 64 68 65 63 60 56 54 55 55 54 56 58 59 63 67 65 65 62 60 59 58 56 54 50 48 49 48 47 47 46 43 41
61 66 63 65 63 64 53 66 65 64 65 62 60 63 59 59 60 56 57 56 56 56 56 59 62 63 65 64 64 60 60 59 58 57 53 53 50 50 49 48 46 44 45
37 42 57 58 50 52 65 57 66 63 65 64 67 61 61 63 64 63 60 59 58 56 58 59 62 63 64 64 63 59 58 59 60 57 56 57 56 53 52 48 47 46 46
22 31 42 50 57 52 57 54 51 54 59 65 61 61 65 69 68 67 62 60 61 60 60 64 65 65 64 63 62 59 57 60 60 61 57 55 53 51 51 46 48 48 45
19 21 28 41 46 55 67 52 53 62 65 64 65 62 65 64 69 70 69 64 66 64 62 62 66 65 64 62 60 58 57 59 61 59 58 56 52 51 51 48 50 50 45
15 16 15 21 25 28 42 50 51 53 59 64 66 62 64 64 65 68 68 69 66 65 64 64 63 58 57 56 53 54 55 53 51 52 52 53 56 53 45 50 49 53 47
17 19 20 22 26 28 32 40 45 46 47 48 50 51 52 54 58 62 64 66 61 59 58 52 52 53 57 56 54 58 53 51 51 52 51 51 53 47 46 43 47 50 49
9 11 15 16 18 21 24 28 32 34 38 40 43 47 52 55 54 58 54 52 52 48 53 55 51 45 47 52 59 53 52 54 57 50 54 56 52 50 49 46 45 46 51
13 14 16 17 20 22 26 32 32 32 35 36 35 38 43 46 48 50 58 54 52 53 50 54 51 52 57 46 50 50 49 49 49 52 48 51 53 55 53 49 48 51 51
19 20 21 23 25 26 28 31 33 34 36 38 40 41 42 42 39 48 49 51 54 52 49 56 61 67 57 54 53 47 52 53 53 51 46 51 56 53 58 58 55 56 54
25 26 27 28 29 31 34 37 39 41 42 44 45 45 44 44 43 42 38 43 51 52 51 51 50 58 65 59 61 56 56 56 52 53 52 53 53 60 59 60 56 61 62
29 29 31 32 34 37 39 41 44 46 47 48 50 52 53 53 51 49 48 48 45 44 47 55 51 50 50 53 53 47 51 51 53 55 53 56 65 65 60 57 53 54 56
33 34 35 37 39 42 44 46 49 51 53 54 55 56 57 58 59 59 58 55 53 53 51 47 44 44 44 44 47 47 43 44 46 44 46 46 54 60 57 54 52 51 52
37 39 41 42 45 48 51 52 54 56 57 59 62 63 62 62 62 62 62 64 63 61 59 57 54 52 47 43 43 46 47 44 42 43 47 49 45 46 46 45 48 49 49
41 42 44 48 49 52 55 58 62 65 67 67 63 63 65 66 66 66 67 67 67 68 67 66 64 61 58 58 59 56 48 43 47 46 44 44 48 49 49 47 47 48 49
44 44 46 51 55 58 61 63 65 65 67 68 68 68 65 64 67 69 68 68 70 71 73 72 71 71 69 67 64 63 63 57 57 56 51 48 50 52 51 51 49 48 38
48 47 52 57 62 62 63 63 63 66 64 57 54 52 52 54 56 59 63 66 67 70 74 76 77 75 75 75 74 71 68 66 65 63 61 55 53 49 51 57 51 43 43
50 55 58 63 65 65 65 65 63 58 52 50 51 53 53 55 56 58 61 62 64 66 70 73 76 77 79 79 79 80 78 74 71 69 68 64 63 58 52 56 48 47 45
54 60 63 65 66 67 66 61 56 51 50 49 47 48 49 51 51 55 59 62 66 69 71 72 74 78 80 78 81 82 83 83 81 77 75 71 69 70 66 62 63 59 58

GFSMA_500_spd_117.txt.gz
Wind_Speed
46 46 46 45 45 45 44 43 42 41 44 46 50 48 47 46 47 47 47 46 43 44 47 46 44 42 41 41 41 40 40 40 41 40 40 39 38 38 36 35 34 33 31
54 54 54 53 52 52 50 51 48 46 46 45 46 45 47 47 46 43 45 46 46 45 45 45 43 42 38 40 39 39 40 39 39 40 39 40 39 39 39 37 35 35 34
62 62 62 61 61 60 59 58 56 55 54 52 52 48 46 44 45 47 43 43 44 41 43 47 45 43 42 42 42 42 40 40 42 42 42 41 41 40 39 39 38 36 35
69 68 69 69 69 68 67 65 63 62 61 55 59 55 52 50 50 49 47 46 45 48 39 44 44 44 44 43 44 45 43 40 41 41 41 41 42 40 39 38 39 38 36
72 73 72 71 72 72 72 70 67 63 65 65 68 67 62 57 55 53 54 54 51 49 48 49 50 49 46 45 45 46 45 44 44 43 41 40 41 41 39 36 37 37 35
77 78 78 76 75 72 71 67 65 61 55 52 59 60 63 68 66 61 56 55 58 58 60 59 58 59 58 57 57 57 54 52 51 49 46 43 43 45 43 40 38 38 38
69 74 77 78 78 73 66 68 65 64 62 63 63 60 61 60 58 59 61 58 57 56 55 56 59 63 64 63 62 62 62 61 60 59 56 52 49 47 46 46 45 41 40
59 59 59 63 68 68 69 68 61 67 51 64 65 63 58 61 66 63 59 58 61 60 58 56 56 55 56 56 56 57 59 62 63 62 62 58 56 54 51 51 48 46 44
46 46 51 52 53 60 62 62 65 54 59 64 65 66 72 66 65 63 63 66 65 64 63 59 58 58 57 57 58 57 57 59 62 63 65 65 60 58 54 55 51 48 48
24 23 27 34 40 43 50 49 60 64 63 58 52 62 61 69 66 67 63 58 60 59 60 62 60 62 64 64 63 61 60 60 61 64 66 66 64 61 58 57 56 52 49
21 24 13 19 22 34 44 36 37 54 61 54 63 55 52 56 66 65 63 64 64 65 64 62 65 66 66 67 65 63 63 64 62 63 65 66 64 63 59 58 57 55 54
19 22 18 19 18 16 26 56 55 43 50 50 58 55 50 59 64 60 64 69 72 68 67 71 68 69 72 71 71 67 67 66 66 65 62 63 64 62 60 58 56 54 50
21 20 21 21 17 14 16 22 33 42 46 45 52 59 57 65 70 63 61 65 71 71 68 69 69 74 74 73 73 73 68 65 69 67 61 60 60 61 60 57 54 52 48
19 20 20 21 20 20 20 22 28 31 34 38 45 53 57 60 61 62 60 62 62 62 63 70 73 74 72 72 72 69 68 66 70 63 55 53 55 56 52 54 54 51 51
20 19 18 18 19 21 23 25 28 31 32 33 38 43 47 51 52 53 56 60 61 59 58 58 60 62 63 63 63 64 68 68 61 55 56 55 57 51 52 55 52 52 54
21 21 22 23 23 24 24 26 29 30 31 35 39 41 42 42 44 50 52 52 48 48 51 53 56 54 54 49 57 57 62 48 56 58 57 58 60 60 57 58 53 53 49
27 27 27 27 27 28 29 31 33 36 39 41 44 47 48 49 51 52 52 53 52 50 45 47 50 52 47 57 49 55 58 52 49 50 52 56 58 53 56 56 61 53 53
28 28 28 29 30 31 33 35 37 40 42 44 46 48 50 51 53 55 57 58 58 57 54 48 46 46 56 58 54 55 53 57 56 49 53 53 51 52 54 51 52 53 57
33 33 34 34 34 35 37 39 42 44 46 48 50 52 55 55 56 57 58 59 60 62 62 59 56 52 50 55 55 57 58 58 53 53 55 52 58 52 60 51 51 52 62
38 38 39 39 39 39 39 43 47 50 54 56 56 57 59 60 61 62 61 61 62 63 64 65 65 60 58 55 51 49 57 56 54 56 60 56 58 55 52 54 58 54 58
45 44 42 41 41 41 45 50 55 58 60 60 61 62 63 64 64 65 65 66 66 66 68 68 68 67 64 62 58 56 50 51 51 51 53 56 56 60 62 64 61 62 64
48 47 45 45 45 47 52 59 60 61 62 63 65 66 65 65 67 67 66 63 60 62 66 68 70 70 68 67 67 63 60 55 50 52 53 56 60 61 60 59 57 57 61
50 50 49 49 50 53 59 62 62 64 67 67 66 64 62 59 56 55 56 56 57 56 56 57 61 66 70 70 68 69 68 65 62 59 60 54 57 55 54 56 57 50 49
53 52 51 50 52 57 63 64 66 67 68 66 60 55 52 51 51 52 53 53 55 56 58 59 60 61 64 66 71 71 73 74 71 68 65 61 62 61 54 53 51 51 51
55 54 51 51 57 62 64 65 66 66 60 53 48 46 45 45 49 52 53 55 57 58 60 60 61 63 65 68 69 71 73 75 77 76 75 70 67 62 61 60 54 52 54
54 54 52 57 61 65 66 67 64 57 51 44 41 42 45 48 53 57 62 63 62 63 64 65 69 71 72 71 72 74 73 75 78 80 80 80 77 75 72 68 62 56 53